Date StartTime U_cm/s V_cm/s W_cm/s Ustd_cm/s Vstd_cm/s Wstd_cm/s Uvar_(cm/s)^2 Vvar_(cm/s)^2 Wvar_(cm/s)^2 KE_(m/s)^2 TurbulentKE_(m/s)^2 HorizWindSpeed_cm/s FrictionSpeec_cm/s DragCoef SpeedOfSound_m/s SonicTemperature_C Pressure_mb 
01/02/2015  00:00:00       15.611       46.415       -5.414       11.839       12.252        8.360      140.170      150.117       69.893        0.139        0.018       48.970        6.537        0.018      327.932       -6.282      865.380
01/02/2015  00:01:00       38.241       30.235       -3.503       18.220       10.549        9.249      331.959      111.285       85.544        0.146        0.026       48.750        8.925        0.034      327.836       -6.439      865.393
01/02/2015  00:02:00       40.618       15.036       -8.909        8.239       15.068        6.367       67.879      227.035       40.533        0.115        0.017       43.312        3.801        0.008      327.741       -6.595      865.397
01/02/2015  00:03:00       22.650       28.837       -9.180        9.503       12.370        6.532       90.298      153.011       42.668        0.086        0.014       36.669        4.264        0.014      327.783       -6.527      865.404
01/02/2015  00:04:00       24.653       12.250        0.449       18.424       14.354       10.587      339.453      206.049      112.094        0.071        0.033       27.529        8.856        0.103      327.831       -6.447      865.411
01/02/2015  00:05:00       32.527       15.823        4.418       11.334       13.345       10.658      128.459      178.086      113.584        0.087        0.021       36.171        9.955        0.076      327.804       -6.493      865.415
01/02/2015  00:06:00       18.946       -5.865       -4.940       11.162       16.065       10.457      124.591      258.100      109.354        0.045        0.025       19.833        7.172        0.131      327.876       -6.375      865.419
01/02/2015  00:07:00       21.003       -6.821        1.416       16.109       14.169        8.055      259.497      200.772       64.884        0.051        0.026       22.083        3.846        0.030      327.931       -6.285      865.426
01/02/2015  00:08:00      -30.157        5.742        1.799       17.217       10.578       13.820      296.433      111.897      190.979        0.077        0.030       30.699       11.794        0.148      327.717       -6.636      865.426
01/02/2015  00:09:00      -78.282       16.379       -8.768       25.363       16.709       11.926      643.294      279.200      142.235        0.377        0.053       79.977       13.333        0.028      327.506       -6.977      865.419
01/02/2015  00:10:00     -101.156       -6.210      -16.003       13.832       15.038        8.320      191.317      226.142       69.220        0.551        0.024      101.347        6.570        0.004      327.621       -6.790      865.425
01/02/2015  00:11:00      -92.518      -32.589       -4.999       19.322       15.719       12.531      373.335      247.100      157.020        0.521        0.039       98.090        7.024        0.005      327.613       -6.803      865.419
01/02/2015  00:12:00     -103.225      -43.582       -9.107       14.834       13.000       11.932      220.051      168.992      142.379        0.658        0.027      112.048        4.182        0.001      327.611       -6.806      865.419
01/02/2015  00:13:00      -70.057      -36.180       -1.395       29.687       20.150       16.520      881.325      406.033      272.925        0.389        0.078       78.848       15.401        0.038      327.564       -6.882      865.416
01/02/2015  00:14:00     -103.188        4.750       -6.771       24.615       15.823       12.622      605.912      250.369      159.308        0.587        0.051      103.297       13.612        0.017      327.433       -7.096      865.413
01/02/2015  00:15:00     -125.251       -3.470      -15.691       19.810       20.977       17.881      392.441      440.035      319.723        0.855        0.058      125.299       11.959        0.009      327.399       -7.151      865.408
01/02/2015  00:16:00     -117.012      -12.442      -14.868       17.768       19.853       14.232      315.702      394.148      202.548        0.749        0.046      117.672       10.232        0.008      327.405       -7.141      865.409
01/02/2015  00:17:00     -115.190       -7.955      -17.417       13.859       12.744        9.692      192.082      162.415       93.929        0.704        0.022      115.464        3.217        0.001      327.410       -7.132      865.409
01/02/2015  00:18:00     -111.088      -13.399      -17.472       16.301       21.383        9.405      265.719      457.229       88.455        0.682        0.041      111.893        8.186        0.005      327.424       -7.110      865.403
01/02/2015  00:19:00     -103.031      -17.019       -6.664       19.301       20.590       15.626      372.525      423.937      244.169        0.599        0.052      104.428       11.426        0.012      327.428       -7.103      865.399
01/02/2015  00:20:00     -123.857      -19.248      -20.268       14.642       14.861       12.532      214.401      220.851      157.047        0.836        0.030      125.344        5.364        0.002      327.404       -7.144      865.405
01/02/2015  00:21:00     -116.224      -20.568      -10.627       21.640       20.799       18.145      468.274      432.597      329.248        0.764        0.062      118.030       14.626        0.015      327.370       -7.198      865.413
01/02/2015  00:22:00     -127.476      -14.960      -12.534       16.920       13.821       12.293      286.293      191.033      151.121        0.863        0.031      128.351        9.125        0.005      327.341       -7.244      865.427
01/02/2015  00:23:00     -100.234      -17.217      -10.157       16.828       16.933       12.579      283.190      286.730      158.236        0.559        0.036      101.702        5.258        0.003      327.336       -7.253      865.438
01/02/2015  00:24:00     -109.064      -17.983       -6.140       21.982       16.240       12.412      483.229      263.731      154.054        0.658        0.045      110.537       10.189        0.008      327.316       -7.285      865.443
01/02/2015  00:25:00     -108.054       -6.692       -8.707       20.811       17.545       17.195      433.108      307.837      295.653        0.642        0.052      108.261       15.225        0.020      327.325       -7.271      865.451
01/02/2015  00:26:00     -118.448       -6.043      -12.972       18.559       10.901       12.723      344.433      118.837      161.887        0.743        0.031      118.602       10.873        0.008      327.328       -7.266      865.447
01/02/2015  00:27:00     -127.406       -2.971      -12.769        7.968        7.644        8.859       63.487       58.424       78.480        0.830        0.010      127.440        4.047        0.001      327.294       -7.320      865.433
01/02/2015  00:28:00     -110.417       -0.733      -15.217       19.393       12.887       15.412      376.070      166.070      237.543        0.660        0.039      110.420       12.365        0.013      327.292       -7.325      865.416
01/02/2015  00:29:00     -101.244       -2.779       -8.872       23.059       15.710       14.560      531.706      246.791      211.990        0.566        0.050      101.282       13.089        0.017      327.265       -7.367      865.389
01/02/2015  00:30:00      -70.444      -11.584       -7.639       27.050       16.902       13.380      731.702      285.678      179.031        0.318        0.060       71.390       11.398        0.025      327.231       -7.424      865.371
01/02/2015  00:31:00      -70.896      -37.906       -6.493       20.347       25.809       15.806      414.000      666.123      249.825        0.392        0.066       80.393       13.572        0.029      327.213       -7.453      865.358
01/02/2015  00:32:00     -100.257      -19.893       -3.500       33.700       24.250       13.961     1135.692      588.043      194.909        0.619        0.096      102.212       13.862        0.018      327.194       -7.484      865.352
01/02/2015  00:33:00      -90.943      -27.197       -4.467       18.535       18.351       12.820      343.556      336.758      164.348        0.494        0.042       94.923        7.772        0.007      327.198       -7.478      865.339
01/02/2015  00:34:00     -114.270      -25.770       -9.569       30.006       18.804       15.508      900.373      353.593      240.496        0.765        0.075      117.140       15.741        0.018      327.132       -7.585      865.322
01/02/2015  00:35:00     -119.196      -28.417      -16.509       21.125       17.832       11.784      446.271      317.971      138.859        0.810        0.045      122.536       11.108        0.008      327.142       -7.568      865.302
01/02/2015  00:36:00     -120.654      -28.103      -13.601       17.385       25.799       13.873      302.244      665.576      192.471        0.835        0.058      123.883        8.500        0.005      327.113       -7.615      865.277
01/02/2015  00:37:00     -125.580      -15.302      -10.767       28.151       17.987       17.204      792.488      323.517      295.974        0.877        0.071      126.509       16.052        0.016      327.067       -7.689      865.278
01/02/2015  00:38:00     -107.241      -30.097       -3.268       27.586       26.411       16.791      760.973      697.515      281.932        0.708        0.087      111.384       14.153        0.016      327.133       -7.583      865.287
01/02/2015  00:39:00     -113.596      -19.203       -5.276       44.822       43.448       25.384     2009.052     1887.724      644.325        0.892        0.227      115.207       21.637        0.035      327.146       -7.561      865.286
01/02/2015  00:40:00     -103.699      -16.995       -6.957       36.053       32.206       20.241     1299.803     1037.257      409.710        0.692        0.137      105.082       13.369        0.016      327.145       -7.562      865.285
01/02/2015  00:41:00      -93.813      -13.755       -7.551       40.961       33.662       21.856     1677.801     1133.108      477.674        0.617        0.164       94.816       17.739        0.035      327.176       -7.513      865.282
01/02/2015  00:42:00      -85.207       -9.074       -4.405       37.988       32.538       18.524     1443.110     1058.725      343.143        0.510        0.142       85.689       17.200        0.040      327.243       -7.405      865.265
01/02/2015  00:43:00     -119.533        5.711       -8.058       32.561       24.482       17.005     1060.200      599.345      289.172        0.817        0.097      119.670       16.862        0.020      327.206       -7.464      865.250
01/02/2015  00:44:00      -97.412       13.289       -6.121       23.505       26.219       16.210      552.506      687.412      262.773        0.560        0.075       98.314       12.059        0.015      327.398       -7.153      865.238
01/02/2015  00:45:00     -120.609       22.888       -9.140       35.869       27.543       17.905     1286.596      758.619      320.586        0.876        0.118      122.762       17.904        0.021      327.376       -7.186      865.233
01/02/2015  00:46:00     -111.331        5.209      -10.180       29.826       25.856       13.958      889.601      668.550      194.818        0.714        0.088      111.453       14.778        0.018      327.382       -7.180      865.226
01/02/2015  00:47:00      -70.509       -2.986       -7.039       22.770       20.819       14.083      518.455      433.415      198.334        0.309        0.058       70.572       10.894        0.024      327.409       -7.136      865.223
01/02/2015  00:48:00     -102.257      -45.960       -4.245       24.357       33.767       16.045      593.274     1140.218      257.444        0.729        0.100      112.110        9.835        0.008      327.303       -7.308      865.224
01/02/2015  00:49:00      -98.528      -72.399       -8.721       41.343       22.494       21.000     1709.214      505.988      441.015        0.884        0.133      122.268       16.040        0.017      327.194       -7.484      865.221
01/02/2015  00:50:00     -118.068      -58.657      -11.158       41.873       25.053       22.190     1753.382      627.655      492.392        1.019        0.144      131.836       22.031        0.028      327.158       -7.543      865.208
01/02/2015  00:51:00     -110.189      -54.671      -11.052       30.103       29.616       16.450      906.215      877.099      270.600        0.865        0.103      123.006       10.037        0.007      327.162       -7.536      865.203
01/02/2015  00:52:00     -101.739      -54.464      -13.045       30.193       26.202       16.143      911.599      686.529      260.598        0.767        0.093      115.400        8.106        0.005      327.196       -7.480      865.194
01/02/2015  00:53:00      -48.434      -36.728        0.004       41.902       33.707       20.448     1755.802     1136.131      418.135        0.350        0.166       60.785       13.592        0.050      327.218       -7.445      865.184
01/02/2015  00:54:00      -49.241      -31.955       -8.473       45.982       19.841       18.059     2114.384      393.657      326.138        0.318        0.142       58.701       21.121        0.129      327.208       -7.461      865.169
01/02/2015  00:55:00      -31.800      -21.867       -8.018       44.645       17.881       14.178     1993.164      319.716      201.023        0.203        0.126       38.593        6.222        0.026      327.251       -7.391      865.168
01/02/2015  00:56:00      -38.208      -21.088        1.837       44.738       27.992       23.774     2001.533      783.573      565.216        0.263        0.168       43.641       23.164        0.282      327.120       -7.604      865.167
01/02/2015  00:57:00      -37.673      -44.812        1.681       36.745       31.330       22.766     1350.225      981.559      518.275        0.314        0.143       58.544       11.293        0.037      327.087       -7.658      865.170
01/02/2015  00:58:00      -36.487      -28.226        6.388       62.806       24.809       26.086     3944.580      615.475      680.487        0.370        0.262       46.131       35.995        0.609      327.084       -7.662      865.167
01/02/2015  00:59:00     -100.943      -58.530       -6.380       38.715       25.133       18.168     1498.879      631.655      330.063        0.806        0.123      116.684       12.427        0.011      327.076       -7.675      865.169
01/02/2015  01:00:00      -55.863      -46.921       -5.445       30.981       29.150       18.876      959.844      849.700      356.321        0.376        0.108       72.954       15.212        0.043      327.058       -7.703      865.170
01/02/2015  01:01:00      -73.938      -24.110       -5.511       27.031       23.600       19.531      730.667      556.980      381.454        0.387        0.083       77.770       15.670        0.041      327.039       -7.735      865.161
01/02/2015  01:02:00      -77.720      -18.424       -6.878       28.804       25.454       16.630      829.653      647.911      276.549        0.409        0.088       79.874       14.355        0.032      327.060       -7.701      865.154
01/02/2015  01:03:00      -81.108      -16.268      -12.169       15.503       23.577       13.089      240.339      555.866      171.309        0.398        0.048       82.723        9.499        0.013      327.085       -7.659      865.153
01/02/2015  01:04:00      -56.914      -20.739       -8.132       17.438       18.608       11.871      304.088      346.261      140.920        0.226        0.040       60.574        6.550        0.012      327.084       -7.663      865.154
01/02/2015  01:05:00      -68.003      -21.395       -9.429       22.000       11.902       11.535      483.992      141.646      133.046        0.296        0.038       71.289        8.848        0.015      327.054       -7.710      865.157
01/02/2015  01:06:00      -46.829      -30.587       -4.902       20.950       14.225       17.390      438.887      202.339      302.395        0.205        0.047       55.933       12.120        0.047      327.106       -7.627      865.167
01/02/2015  01:07:00      -65.143      -36.099      -13.354       17.205       15.437       14.764      296.017      238.309      217.990        0.324        0.038       74.477        6.566        0.008      327.114       -7.613      865.174
01/02/2015  01:08:00      -41.346      -42.453      -13.798       25.865       19.894       17.130      669.023      395.784      293.435        0.253        0.068       59.260       17.411        0.086      327.145       -7.562      865.180
01/02/2015  01:09:00      -57.589      -32.163      -11.049       18.526       18.218       11.516      343.197      331.904      132.620        0.264        0.040       65.961        5.056        0.006      327.186       -7.498      865.181
01/02/2015  01:10:00      -72.797      -31.249       -6.825       12.033       16.411        9.767      144.799      269.310       95.397        0.342        0.025       79.221        7.565        0.009      327.160       -7.539      865.173
01/02/2015  01:11:00      -28.762      -35.077        0.962       38.240       22.450       17.469     1462.277      503.994      305.150        0.216        0.114       45.361       12.386        0.075      327.225       -7.433      865.169
01/02/2015  01:12:00      -49.212      -29.873        4.581       40.824       25.591       18.877     1666.564      654.885      356.357        0.301        0.134       57.570       20.838        0.131      327.179       -7.507      865.160
01/02/2015  01:13:00      -41.006      -23.989       -5.641       26.071       22.790       15.166      679.681      519.395      230.010        0.186        0.071       47.507        7.640        0.026      327.281       -7.342      865.149
01/02/2015  01:14:00     -109.425      -47.366      -12.845       33.695       27.646       23.400     1135.377      764.312      547.583        0.841        0.122      119.237       16.651        0.020      327.187       -7.494      865.137
01/02/2015  01:15:00     -109.207      -82.339       -9.099       52.023       30.975       21.863     2706.433      959.436      477.974        1.147        0.207      136.769       12.469        0.008      327.159       -7.540      865.131
01/02/2015  01:16:00     -104.579      -64.070       -1.607       39.037       25.525       19.862     1523.897      651.508      394.497        0.881        0.128      122.645       19.509        0.025      327.171       -7.521      865.137
01/02/2015  01:17:00      -82.618      -60.144        2.940       37.842       28.441       22.254     1432.024      808.886      495.250        0.659        0.137      102.191       21.556        0.044      327.189       -7.492      865.142
01/02/2015  01:18:00      -88.419      -47.860       -2.873       30.078       40.813       24.043      904.665     1665.688      578.084        0.663        0.157      100.541       22.837        0.052      327.196       -7.480      865.137
01/02/2015  01:19:00      -87.946      -48.117       -4.394       31.625       24.029       14.837     1000.159      577.388      220.127        0.593        0.090      100.248       15.357        0.023      327.220       -7.441      865.130
01/02/2015  01:20:00      -74.996      -23.015       -4.040       39.407       22.894       14.983     1552.931      524.131      224.501        0.424        0.115       78.448       16.604        0.045      327.236       -7.415      865.119
01/02/2015  01:21:00      -49.370      -33.107        4.813       39.774       28.230       16.046     1581.948      796.933      257.467        0.310        0.132       59.443       17.853        0.090      327.194       -7.483      865.105
01/02/2015  01:22:00      -87.770      -43.335        1.354       36.427       25.184       20.913     1326.963      634.257      437.373        0.599        0.120       97.885       19.203        0.038      327.159       -7.539      865.090
01/02/2015  01:23:00      -83.592      -31.063       -4.586       28.473       25.120       16.389      810.689      631.034      268.599        0.484        0.086       89.177       12.277        0.019      327.220       -7.440      865.072
01/02/2015  01:24:00      -79.688      -36.231       -1.914       34.618       34.329       18.352     1198.426     1178.491      336.780        0.519        0.136       87.537       15.994        0.033      327.188       -7.494      865.060
01/02/2015  01:25:00      -76.051      -43.218        2.045       38.034       26.030       23.711     1446.560      677.548      562.198        0.517        0.134       87.474       24.865        0.081      327.127       -7.592      865.049
01/02/2015  01:26:00      -98.323      -48.057       -5.319       28.703       22.000       14.019      823.860      483.986      196.532        0.675        0.075      109.439       12.100        0.012      327.155       -7.547      865.046
01/02/2015  01:27:00      -83.060      -39.519        0.699       35.505       32.676       16.020     1260.619     1067.707      256.646        0.552        0.129       91.982       11.661        0.016      327.158       -7.543      865.045
01/02/2015  01:28:00      -91.573      -34.033        0.463       31.851       28.936       17.546     1014.515      837.308      307.859        0.585        0.108       97.693       17.784        0.033      327.092       -7.649      865.044
01/02/2015  01:29:00      -85.542      -36.597       -0.858       25.947       26.554       15.543      673.246      705.132      241.592        0.514        0.081       93.042       10.778        0.013      327.062       -7.699      865.042
01/02/2015  01:30:00     -113.434      -19.431       -7.891       16.531       15.248       15.214      273.283      232.509      231.467        0.702        0.037      115.086        9.163        0.006      327.019       -7.765      865.041
01/02/2015  01:31:00      -94.786      -25.289       -4.785       36.144       24.030       16.335     1306.398      577.418      266.842        0.590        0.108       98.102       19.266        0.039      327.028       -7.753      865.038
01/02/2015  01:32:00      -55.419      -12.895        6.020       32.750       23.453       15.753     1072.565      550.061      248.167        0.257        0.094       56.900       15.217        0.072      327.009       -7.783      865.029
01/02/2015  01:33:00      -83.372      -16.262       -2.243       24.581       16.353       15.365      604.223      267.426      236.092        0.416        0.055       84.944       12.424        0.021      326.996       -7.804      865.036
01/02/2015  01:34:00      -81.434       -7.132       -4.308       22.052       16.137       12.160      486.282      260.397      147.871        0.380        0.045       81.745       10.343        0.016      326.971       -7.845      865.035
01/02/2015  01:35:00      -64.254       -7.204        1.626       24.886       22.945       17.807      619.333      526.490      317.072        0.282        0.073       64.657       15.246        0.056      326.958       -7.865      865.038
01/02/2015  01:36:00      -70.269      -17.269       -0.722       24.101       21.260       13.124      580.852      451.982      172.230        0.322        0.060       72.359       11.151        0.024      327.074       -7.677      865.040
01/02/2015  01:37:00      -72.638      -12.059       -7.108       24.718       17.494       13.575      610.966      306.036      184.271        0.329        0.055       73.632       10.324        0.020      327.042       -7.730      865.041
01/02/2015  01:38:00      -94.180       -2.434       -9.101       21.121       16.012       13.471      446.087      256.400      181.461        0.492        0.044       94.211       12.724        0.018      326.985       -7.821      865.039
01/02/2015  01:39:00      -77.058      -13.164       -4.770       30.317       22.684       16.793      919.100      514.554      282.021        0.392        0.086       78.175       14.619        0.035      326.975       -7.838      865.032
01/02/2015  01:40:00      -96.616      -21.893       -5.936       22.844       16.479       13.825      521.832      271.567      191.140        0.542        0.049       99.066       13.929        0.020      326.946       -7.887      865.028
01/02/2015  01:41:00      -82.726      -39.252       -7.763       19.260       18.975       16.674      370.955      360.068      278.010        0.473        0.050       91.566       11.756        0.016      326.952       -7.877      865.030
01/02/2015  01:42:00      -86.770      -26.909       -6.575       17.925       26.234       15.745      321.301      688.224      247.916        0.478        0.063       90.846       11.739        0.017      326.929       -7.913      865.039
01/02/2015  01:43:00      -72.700      -12.341       -7.440       30.460       18.927       14.410      927.801      358.226      207.642        0.349        0.075       73.740       14.860        0.041      326.959       -7.865      865.044
01/02/2015  01:44:00      -82.666       -7.372       -1.633       29.275       19.539       16.746      857.044      381.767      280.435        0.420        0.076       82.994       17.190        0.043      326.952       -7.876      865.045
01/02/2015  01:45:00      -71.963        2.764       -1.488       30.413       22.512       18.088      924.961      506.808      327.164        0.347        0.088       72.016       17.761        0.061      326.963       -7.858      865.056
01/02/2015  01:46:00      -48.846       -9.735        0.215       24.667       14.594       13.417      608.469      212.992      180.025        0.174        0.050       49.806       14.433        0.084      326.965       -7.855      865.061
01/02/2015  01:47:00      -45.857      -22.883       -0.838       17.292       13.858       11.458      299.013      192.050      131.290        0.162        0.031       51.249        9.295        0.033      326.938       -7.899      865.061
01/02/2015  01:48:00      -50.939      -26.795       -8.247       12.471       17.247       13.242      155.525      297.472      175.342        0.200        0.031       57.557        9.591        0.028      326.877       -7.998      865.064
01/02/2015  01:49:00      -74.062      -20.008       -9.691       20.922       13.225       13.811      437.750      174.913      190.741        0.339        0.040       76.717       12.964        0.029      326.838       -8.061      865.065
01/02/2015  01:50:00      -98.821      -35.421      -12.272       17.083       16.691       13.680      291.825      278.593      187.155        0.596        0.038      104.977       10.582        0.010      326.800       -8.123      865.066
01/02/2015  01:51:00     -117.085      -13.615       -9.403       19.158       13.425       12.887      367.012      180.241      166.064        0.735        0.036      117.874       11.342        0.009      326.760       -8.188      865.071
01/02/2015  01:52:00      -81.738      -19.592       -3.204       16.918       19.562       14.037      286.233      382.660      197.043        0.397        0.043       84.053       10.192        0.015      326.754       -8.198      865.071
01/02/2015  01:53:00      -76.345      -21.652      -11.045       15.568       14.534       12.817      242.367      211.223      164.271        0.352        0.031       79.356        9.773        0.015      326.751       -8.204      865.066
01/02/2015  01:54:00      -61.146      -25.328      -10.533       11.713       16.814       10.537      137.194      282.702      111.018        0.251        0.027       66.184        4.993        0.006      326.698       -8.288      865.062
01/02/2015  01:55:00      -41.395      -15.420      -11.609       13.048       10.932       11.522      170.252      119.506      132.752        0.125        0.021       44.174        4.566        0.011      326.781       -8.153      865.064
01/02/2015  01:56:00      -58.214       -6.888       -3.687       11.905       12.868       10.406      141.727      165.582      108.294        0.193        0.021       58.621        6.649        0.013      326.762       -8.185      865.074
01/02/2015  01:57:00      -44.434       -3.126       -8.255       16.119       16.476        8.562      259.818      271.446       73.311        0.133        0.030       44.544        4.932        0.012      326.776       -8.161      865.086
01/02/2015  01:58:00      -41.773       -1.805       -7.288       17.654       11.319        9.064      311.660      128.117       82.161        0.116        0.026       41.811        3.264        0.006      326.771       -8.170      865.106
01/02/2015  01:59:00      -36.444      -17.720       -3.507       10.656        9.627        9.192      113.546       92.686       84.496        0.097        0.015       40.524        4.754        0.014      326.725       -8.245      865.126
01/02/2015  02:00:00      -30.628       -9.556       -7.738       15.915        7.385        6.741      253.291       54.538       45.439        0.072        0.018       32.084        5.869        0.033      326.784       -8.148      865.136
01/02/2015  02:01:00      -13.523      -10.849       -3.834       21.129       12.687       10.449      446.420      160.958      109.172        0.052        0.036       17.337       11.593        0.447      326.807       -8.112      865.143
01/02/2015  02:02:00       14.765       -0.949        3.115       13.638       13.270       11.629      186.004      176.090      135.237        0.036        0.025       14.795        8.570        0.336      326.966       -7.853      865.138
01/02/2015  02:03:00       16.747       22.153        0.029       18.829       24.961       12.566      354.517      623.039      157.901        0.095        0.057       27.771       13.805        0.247      327.125       -7.595      865.126
01/02/2015  02:04:00        9.142        8.314        4.706       11.810        7.194        9.379      139.473       51.751       87.967        0.023        0.014       12.357        5.753        0.217      327.161       -7.537      865.111
01/02/2015  02:05:00       22.855       23.245       -0.806       15.964        7.204        7.101      254.857       51.904       50.425        0.071        0.018       32.599        4.975        0.023      327.202       -7.471      865.100
01/02/2015  02:06:00       33.543       11.908        3.439       13.779        9.156        7.805      189.868       83.840       60.924        0.081        0.017       35.595        2.069        0.003      327.201       -7.471      865.097
01/02/2015  02:07:00       42.412       17.632        3.819        9.770        8.701        7.740       95.457       75.710       59.908        0.118        0.012       45.931        3.836        0.007      327.206       -7.462      865.087
01/02/2015  02:08:00       29.433       20.052        8.426        6.906        7.564        8.831       47.699       57.220       77.991        0.076        0.009       35.614        4.519        0.016      327.151       -7.555      865.085
01/02/2015  02:09:00       21.750        9.023        7.027       13.187       12.650        9.977      173.890      160.024       99.533        0.052        0.022       23.547        6.203        0.069      327.159       -7.542      865.091
01/02/2015  02:10:00       -1.599        2.212        9.492        5.408        7.454        6.092       29.248       55.567       37.114        0.011        0.006        2.729        2.745        1.012      327.161       -7.538      865.092
01/02/2015  02:11:00       16.822       17.359       -0.927        8.348       10.750        6.265       69.696      115.562       39.244        0.040        0.011       24.172        2.722        0.013      327.168       -7.526      865.099
01/02/2015  02:12:00       21.565        5.824        1.543        8.846        6.004        6.105       78.251       36.044       37.273        0.033        0.008       22.338        6.335        0.080      327.183       -7.501      865.101
01/02/2015  02:13:00       37.020       18.155        4.488        9.176        9.098        8.183       84.201       82.776       66.965        0.098        0.012       41.232        4.474        0.012      327.204       -7.468      865.108
01/02/2015  02:14:00       31.364       27.086        2.899        9.950        7.630        7.744       98.995       58.217       59.969        0.097        0.011       41.441        5.607        0.018      327.175       -7.513      865.103
01/02/2015  02:15:00       30.097       22.175        8.596       15.329       14.256       10.757      234.977      203.236      115.708        0.101        0.028       37.383        8.730        0.055      327.165       -7.529      865.107
01/02/2015  02:16:00       24.432       33.703       -2.140       13.819       14.134       11.742      190.972      199.778      137.881        0.113        0.026       41.627       11.066        0.071      327.167       -7.526      865.108
01/02/2015  02:17:00       24.451       22.858        0.615       11.544       14.073       13.957      133.263      198.056      194.794        0.082        0.026       33.471       10.637        0.101      327.169       -7.523      865.119
01/02/2015  02:18:00       41.749       30.824        2.428       14.494       16.049       13.193      210.080      257.582      174.057        0.167        0.032       51.895        9.718        0.035      327.123       -7.598      865.120
01/02/2015  02:19:00       35.445       27.038        0.179       16.784       12.880       10.231      281.718      165.884      104.671        0.127        0.028       44.580        7.913        0.032      327.131       -7.587      865.111
01/02/2015  02:20:00       38.742       27.299       11.896       13.020       13.374        9.339      169.514      178.867       87.223        0.141        0.022       47.394        7.770        0.027      327.105       -7.628      865.106
01/02/2015  02:21:00       18.101       16.046       19.477       11.655       11.156        8.602      135.840      124.461       74.000        0.065        0.017       24.190        5.889        0.059      327.110       -7.619      865.098
01/02/2015  02:22:00        3.268       -9.358       10.187       13.415       13.702        8.093      179.974      187.733       65.500        0.032        0.022        9.913        7.597        0.587      326.964       -7.855      865.092
01/02/2015  02:23:00      -20.796       -6.609       -1.834        9.945        9.551        7.945       98.902       91.221       63.125        0.037        0.013       21.821        4.893        0.050      326.841       -8.057      865.101
01/02/2015  02:24:00      -26.798        4.041       -8.419       12.692        6.156        5.759      161.075       37.895       33.165        0.052        0.012       27.101        3.215        0.014      326.877       -7.997      865.108
01/02/2015  02:25:00      -29.679       -0.196       -6.251       10.471        8.713        7.268      109.650       75.919       52.826        0.058        0.012       29.679        3.246        0.012      326.809       -8.108      865.117
01/02/2015  02:26:00      -55.629        2.620       -6.345       12.101        6.374        6.702      146.423       40.633       44.921        0.169        0.012       55.691        3.057        0.003      326.856       -8.032      865.118
01/02/2015  02:27:00      -61.594        4.928      -13.443       13.437        6.443        9.039      180.549       41.516       81.703        0.215        0.015       61.791        3.878        0.004      326.838       -8.061      865.130
01/02/2015  02:28:00      -54.943        7.032       -8.784       12.889       14.890        8.157      166.125      221.719       66.536        0.180        0.023       55.391        4.823        0.008      326.722       -8.249      865.135
01/02/2015  02:29:00      -54.549        7.635      -11.985       16.996        9.784        7.465      288.867       95.718       55.730        0.181        0.022       55.081        6.302        0.013      326.718       -8.254      865.153
01/02/2015  02:30:00      -24.702        3.099      -11.219       18.313        7.844        6.423      335.355       61.530       41.258        0.059        0.022       24.896        6.778        0.074      326.897       -7.966      865.162
01/02/2015  02:31:00        2.494        7.114        2.935        7.605        9.080        8.592       57.833       82.439       73.818        0.014        0.011        7.538        5.790        0.590      327.005       -7.791      865.167
01/02/2015  02:32:00       22.757       22.064       -0.383       11.084       13.270        7.878      122.861      176.098       62.055        0.068        0.018       31.697        7.632        0.058      327.117       -7.608      865.173
01/02/2015  02:33:00       27.826       16.540        2.264       10.242        7.494        7.077      104.907       56.154       50.085        0.063        0.011       32.371        5.457        0.028      327.114       -7.613      865.173
01/02/2015  02:34:00       35.874       16.873        6.282       13.225       10.960        6.953      174.893      120.115       48.344        0.098        0.017       39.644        3.341        0.007      327.110       -7.621      865.174
01/02/2015  02:35:00       18.214        6.889        7.894       13.835        8.479        6.384      191.417       71.890       40.759        0.037        0.015       19.473        6.403        0.108      327.141       -7.569      865.177
01/02/2015  02:36:00       27.751       11.351        4.446       14.290        8.833        6.867      204.198       78.022       47.154        0.062        0.016       29.982        7.509        0.063      327.127       -7.592      865.185
01/02/2015  02:37:00       36.095        7.901        0.573        8.233        7.835       10.767       67.787       61.391      115.932        0.081        0.012       36.950        4.751        0.017      327.166       -7.527      865.184
01/02/2015  02:38:00       26.578        8.913        2.018        7.506        6.083        9.911       56.340       36.998       98.218        0.049        0.010       28.033        7.116        0.064      327.183       -7.501      865.189
01/02/2015  02:39:00       19.740       14.059        2.068       11.004       10.943        6.183      121.096      119.743       38.227        0.044        0.014       24.234        3.949        0.027      327.207       -7.463      865.193
01/02/2015  02:40:00        9.703       23.915       16.456       15.713       18.433       12.805      246.885      339.793      163.980        0.084        0.038       25.808       10.668        0.171      327.237       -7.413      865.192
01/02/2015  02:41:00      -11.033       -6.969       11.850        8.968       11.108       11.689       80.432      123.394      136.622        0.033        0.017       13.050        6.476        0.246      326.955       -7.873      865.202
01/02/2015  02:42:00      -24.019       -4.225       -7.446        7.109        5.620        4.636       50.531       31.589       21.497        0.038        0.005       24.388        1.771        0.005      326.853       -8.039      865.215
01/02/2015  02:43:00      -24.304       -3.722       -3.413        5.545       10.085        8.427       30.742      101.703       71.006        0.041        0.010       24.588        5.185        0.044      326.875       -8.001      865.218
01/02/2015  02:44:00        3.249       17.538        2.693       10.522       10.744        7.003      110.722      115.435       49.038        0.030        0.014       17.837        5.427        0.093      327.120       -7.603      865.221
01/02/2015  02:45:00      -10.705       12.479        6.157        9.719       11.428        5.842       94.452      130.594       34.133        0.028        0.013       16.441        3.968        0.058      327.115       -7.611      865.215
01/02/2015  02:46:00      -37.168      -16.434       -2.940        6.662       12.499        6.158       44.385      156.233       37.927        0.095        0.012       40.639        3.596        0.008      326.817       -8.092      865.214
01/02/2015  02:47:00      -14.306      -10.064       -4.509        8.788        7.255        5.281       77.221       52.628       27.886        0.024        0.008       17.492        2.967        0.029      326.855       -8.034      865.207
01/02/2015  02:48:00      -32.693      -11.730       -3.795        6.804        6.589        7.343       46.301       43.414       53.923        0.068        0.007       34.734        2.964        0.007      326.900       -7.959      865.197
01/02/2015  02:49:00      -15.062       -5.558       -3.488        9.992        5.915        5.288       99.846       34.987       27.962        0.022        0.008       16.054        4.021        0.063      326.904       -7.956      865.192
01/02/2015  02:50:00      -26.079       -6.088       -6.852        8.910        5.733        4.553       79.388       32.869       20.731        0.045        0.007       26.780        1.072        0.002      326.930       -7.914      865.194
01/02/2015  02:51:00      -16.664        5.044       -5.339       10.514        6.861        8.066      110.551       47.071       65.060        0.028        0.011       17.411        5.334        0.094      326.993       -7.810      865.197
01/02/2015  02:52:00      -31.625       -7.559       -1.134        8.455        6.654        6.325       71.488       44.274       40.003        0.061        0.008       32.515        4.049        0.016      326.877       -7.998      865.202
01/02/2015  02:53:00      -33.445      -13.517       -7.137        8.633        7.782        7.335       74.531       60.558       53.808        0.077        0.009       36.074        3.777        0.011      326.807       -8.111      865.207
01/02/2015  02:54:00      -29.910      -23.818       -4.655       13.083        8.340        8.555      171.159       69.561       73.196        0.090        0.016       38.234        6.739        0.031      326.732       -8.233      865.208
01/02/2015  02:55:00      -32.277      -13.546        4.797       14.721       12.653        9.856      216.715      160.087       97.138        0.086        0.024       35.004        9.715        0.077      326.680       -8.319      865.200
01/02/2015  02:56:00      -62.241       -6.386      -10.358       18.922        8.670        8.446      358.040       75.161       71.342        0.226        0.025       62.568        7.544        0.015      326.751       -8.202      865.193
01/02/2015  02:57:00      -66.247        1.772      -12.301       12.748        7.075        8.331      162.519       50.057       69.411        0.241        0.014       66.270        5.777        0.008      326.778       -8.158      865.192
01/02/2015  02:58:00      -74.660       -2.420       -9.692        6.117        7.892        7.658       37.417       62.282       58.643        0.292        0.008       74.699        3.814        0.003      326.714       -8.263      865.189
01/02/2015  02:59:00      -62.579      -10.917       -8.225       16.208       11.359        9.526      262.693      129.034       90.754        0.229        0.024       63.524        7.455        0.014      326.711       -8.268      865.193
01/02/2015  03:00:00      -65.535      -22.112       -4.736       15.683       14.312       11.269      245.945      204.823      126.982        0.269        0.029       69.164        9.815        0.020      326.722       -8.249      865.197
01/02/2015  03:01:00      -72.473      -17.364       -5.244       15.271       13.411       12.607      233.209      179.856      158.948        0.308        0.029       74.524       10.473        0.020      326.709       -8.269      865.201
01/02/2015  03:02:00      -57.128      -18.624       -6.858       10.129       11.153        8.657      102.592      124.382       74.937        0.198        0.015       60.087        5.320        0.008      326.766       -8.178      865.200
01/02/2015  03:03:00      -53.665      -13.038       -5.569       16.017       12.621       11.345      256.544      159.282      128.706        0.181        0.027       55.226        9.670        0.031      326.809       -8.107      865.201
01/02/2015  03:04:00      -73.240       -9.535       -4.327       20.516       11.043       11.182      420.886      121.956      125.038        0.307        0.033       73.858        8.670        0.014      326.846       -8.047      865.204
01/02/2015  03:05:00      -59.902      -13.482        0.581       22.113       23.155       12.574      488.991      536.148      158.116        0.248        0.059       61.401        8.691        0.020      326.781       -8.153      865.212
01/02/2015  03:06:00      -70.654      -13.126       -6.624       23.855       15.815       14.444      569.062      250.102      208.629        0.312        0.051       71.863       13.420        0.035      326.755       -8.196      865.219
01/02/2015  03:07:00      -81.179       -6.011       -3.332       20.992       14.917       14.681      440.653      222.532      215.530        0.376        0.044       81.402       13.689        0.028      326.676       -8.323      865.224
01/02/2015  03:08:00      -93.125       -4.676       -8.596       19.628       15.110       10.283      385.271      228.321      105.740        0.474        0.036       93.243        9.267        0.010      326.608       -8.434      865.218
01/02/2015  03:09:00      -71.698      -13.834       -0.609       24.973       16.496       13.375      623.672      272.124      178.891        0.320        0.054       73.021       11.575        0.025      326.583       -8.476      865.211
01/02/2015  03:10:00      -73.225      -34.514        0.206       21.258       16.304       11.913      451.909      265.834      141.916        0.371        0.043       80.951       12.089        0.022      326.718       -8.257      865.203
01/02/2015  03:11:00      -85.142      -33.716       -1.972       16.550       14.153       10.733      273.909      200.315      115.207        0.449        0.029       91.575        7.788        0.007      326.697       -8.289      865.213
01/02/2015  03:12:00      -56.370      -28.489        6.787       28.155       21.149       14.470      792.709      447.299      209.394        0.274        0.072       63.160       14.336        0.052      326.726       -8.242      865.215
01/02/2015  03:13:00      -71.669      -17.649       -0.438       40.531       21.409       11.867     1642.751      458.354      140.835        0.384        0.112       73.810       16.354        0.049      326.711       -8.266      865.212
01/02/2015  03:14:00      -79.865      -21.468       -5.297       17.546       14.783        9.477      307.867      218.540       89.810        0.374        0.031       82.701        7.916        0.009      326.722       -8.250      865.206
01/02/2015  03:15:00      -58.170      -19.265       -2.951       19.714       16.452       12.887      388.638      270.681      166.072        0.229        0.041       61.277        8.618        0.020      326.703       -8.279      865.185
01/02/2015  03:16:00      -45.195      -20.402        0.875       12.379       11.678        7.368      153.241      136.371       54.288        0.140        0.017       49.586        3.083        0.004      326.748       -8.206      865.166
01/02/2015  03:17:00      -54.208        0.144       -6.984       11.750       10.143        7.815      138.059      102.879       61.075        0.164        0.015       54.208        4.139        0.006      326.769       -8.172      865.162
01/02/2015  03:18:00      -64.324        4.696       -7.619        9.387        9.366        8.129       88.122       87.728       66.088        0.223        0.012       64.495        3.653        0.003      326.774       -8.164      865.155
01/02/2015  03:19:00      -65.510       -2.704       -6.155        8.157        8.092        6.105       66.541       65.478       37.267        0.225        0.008       65.566        4.033        0.004      326.769       -8.171      865.146
01/02/2015  03:20:00      -60.736       -8.377      -11.871       12.510       11.352        7.598      156.506      128.874       57.727        0.212        0.017       61.311        7.943        0.017      326.796       -8.127      865.144
01/02/2015  03:21:00      -59.619       -7.286       -5.368       12.768        9.136        8.080      163.028       83.466       65.285        0.197        0.016       60.063        6.867        0.013      326.787       -8.143      865.144
01/02/2015  03:22:00      -64.289      -12.375       -9.166        9.338        7.064        6.505       87.196       49.907       42.313        0.227        0.009       65.469        3.732        0.003      326.818       -8.094      865.143
01/02/2015  03:23:00      -57.478      -14.220       -9.701        9.503        9.088        6.721       90.313       82.583       45.172        0.191        0.011       59.211        4.536        0.006      326.868       -8.014      865.156
01/02/2015  03:24:00      -64.380      -31.911       -7.680        9.803        9.223        8.863       96.101       85.072       78.561        0.274        0.013       71.855        6.166        0.007      326.865       -8.019      865.173
01/02/2015  03:25:00      -60.366      -18.136       -9.196        7.770        9.942        6.220       60.377       98.837       38.694        0.213        0.010       63.032        4.044        0.004      326.849       -8.043      865.167
01/02/2015  03:26:00      -48.642      -18.163       -8.270       12.598       13.137        8.992      158.704      172.590       80.858        0.159        0.021       51.922        5.255        0.010      326.798       -8.126      865.165
01/02/2015  03:27:00      -31.348        0.261       -0.733        8.001        7.695        6.085       64.011       59.216       37.023        0.057        0.008       31.349        4.065        0.017      326.759       -8.186      865.169
01/02/2015  03:28:00      -24.851       -4.392       -9.271        9.279        9.461        6.908       86.100       89.510       47.714        0.047        0.011       25.236        5.154        0.042      326.787       -8.143      865.176
01/02/2015  03:29:00      -10.790      -18.363       -1.524        9.290        5.808        5.267       86.305       33.736       27.737        0.030        0.007       21.298        4.110        0.037      326.821       -8.089      865.184
01/02/2015  03:30:00      -32.799      -18.717      -11.218       12.317       12.753        8.321      151.707      162.632       69.235        0.097        0.019       37.764        3.985        0.011      326.756       -8.194      865.186
01/02/2015  03:31:00      -55.772      -17.736       -4.716       18.571        8.509        7.519      344.892       72.403       56.528        0.196        0.024       58.524        4.272        0.005      326.546       -8.534      865.181
01/02/2015  03:32:00      -76.218      -13.066      -11.294        8.991       10.046        8.930       80.840      100.924       79.747        0.318        0.013       77.329        2.337        0.001      326.504       -8.603      865.188
01/02/2015  03:33:00      -72.607       -8.900      -17.080       13.784       10.726       10.961      189.985      115.049      120.151        0.303        0.021       73.151        8.850        0.015      326.512       -8.590      865.195
01/02/2015  03:34:00      -70.363       -3.984       -8.206       18.663       11.519       11.588      348.322      132.683      134.293        0.282        0.031       70.476        9.364        0.018      326.519       -8.579      865.198
01/02/2015  03:35:00      -55.019       -7.888       -8.131       24.761       16.400       12.539      613.096      268.967      157.228        0.210        0.052       55.582       14.220        0.065      326.461       -8.672      865.202
01/02/2015  03:36:00      -81.668        0.311       -9.075       27.568       17.736       13.512      759.997      314.555      182.576        0.400        0.063       81.669       14.216        0.030      326.473       -8.653      865.200
01/02/2015  03:37:00      -71.720        1.977       -5.031       24.801       18.013       14.217      615.099      324.464      202.122        0.316        0.057       71.747       10.437        0.021      326.493       -8.620      865.196
01/02/2015  03:38:00      -78.952       -6.475       -5.976       33.926       14.404       14.401     1150.960      207.485      207.385        0.394        0.078       79.217       14.531        0.034      326.446       -8.695      865.187
01/02/2015  03:39:00     -104.974      -16.169       -7.828       25.733       15.067       15.685      662.189      227.001      246.020        0.624        0.057      106.212       14.204        0.018      326.413       -8.750      865.180
01/02/2015  03:40:00     -119.465       -5.447      -11.225       19.498       13.660       14.264      380.190      186.583      203.457        0.760        0.039      119.589       10.348        0.007      326.413       -8.751      865.172
01/02/2015  03:41:00     -119.770       16.491      -14.590       18.609       15.918       13.452      346.283      253.384      180.943        0.780        0.039      120.900        8.152        0.005      326.464       -8.668      865.154
01/02/2015  03:42:00      -85.824        5.550       -8.110       35.027       14.719       13.422     1226.898      216.645      180.160        0.454        0.081       86.004       13.954        0.026      326.441       -8.705      865.146
01/02/2015  03:43:00      -68.388      -17.156       -7.204       23.176       20.494       11.793      537.123      419.997      139.080        0.306        0.055       70.507        9.278        0.017      326.425       -8.730      865.143
01/02/2015  03:44:00      -87.646      -15.574       -3.647       27.382       22.871       15.940      749.795      523.062      254.077        0.473        0.076       89.019        9.645        0.012      326.350       -8.850      865.135
01/02/2015  03:45:00      -80.437      -22.701       -6.800       26.260       21.562       11.775      689.611      464.901      138.652        0.416        0.065       83.579        9.464        0.013      326.371       -8.818      865.134
01/02/2015  03:46:00      -86.734      -21.858       -7.872       26.314       28.212       17.677      692.427      795.923      312.482        0.493        0.090       89.446       16.371        0.034      326.381       -8.801      865.123
01/02/2015  03:47:00     -100.654      -25.413      -10.100       19.827       19.141       14.815      393.104      366.391      219.488        0.593        0.049      103.812        9.922        0.009      326.371       -8.817      865.114
01/02/2015  03:48:00      -77.894      -38.230       -5.913       17.738       17.008       10.365      314.632      289.265      107.433        0.414        0.036       86.770        5.817        0.004      326.420       -8.739      865.115
01/02/2015  03:49:00      -91.199       -5.776      -11.089       16.399       16.369       13.721      268.933      267.956      188.274        0.460        0.036       91.381        7.028        0.006      326.375       -8.812      865.107
01/02/2015  03:50:00      -92.846      -12.600      -12.112       11.046       11.079        9.818      122.012      122.751       96.398        0.463        0.017       93.697        3.605        0.001      326.371       -8.818      865.091
01/02/2015  03:51:00      -90.307      -18.060       -8.991       20.973       16.216       15.742      439.874      262.970      247.798        0.476        0.048       92.095       10.885        0.014      326.332       -8.882      865.073
01/02/2015  03:52:00      -73.504       -5.665       -2.980       26.005       23.093       15.955      676.267      533.280      254.559        0.345        0.073       73.722       15.359        0.043      326.377       -8.809      865.049
01/02/2015  03:53:00      -63.849      -15.573       -0.002       26.750       20.779       14.223      715.585      431.769      202.308        0.283        0.067       65.721       12.568        0.037      326.370       -8.819      865.030
01/02/2015  03:54:00      -95.898      -10.016       -8.162       13.872       16.503       11.365      192.446      272.341      129.170        0.498        0.030       96.420        4.911        0.003      326.355       -8.845      865.028
01/02/2015  03:55:00      -68.511      -13.353       -2.231       19.430       20.574       11.314      377.530      423.305      128.017        0.290        0.046       69.800        7.753        0.012      326.327       -8.889      865.020
01/02/2015  03:56:00      -53.188       -8.996       -6.761       13.991       14.328       10.465      195.743      205.295      109.519        0.173        0.026       53.943        7.426        0.019      326.305       -8.925      865.014
01/02/2015  03:57:00      -51.412      -15.513       -8.924       21.357       14.766       12.501      456.122      218.032      156.281        0.190        0.042       53.702        8.098        0.023      326.364       -8.829      865.011
01/02/2015  03:58:00      -40.768      -10.641       -2.393       19.749        9.421        9.312      390.017       88.746       86.716        0.117        0.028       42.133        5.848        0.019      326.336       -8.876      865.002
01/02/2015  03:59:00      -42.549      -11.123      -13.402       15.602       10.951       10.227      243.408      119.926      104.593        0.129        0.023       43.979        4.600        0.011      326.333       -8.880      865.001
01/02/2015  04:00:00      -42.852      -19.807      -14.733       15.179       13.033        8.820      230.387      169.850       77.799        0.146        0.024       47.208        3.904        0.007      326.382       -8.801      864.995
01/02/2015  04:01:00      -47.472      -15.798      -15.829       11.359       11.361        7.630      129.021      129.063       58.214        0.153        0.016       50.032        3.617        0.005      326.425       -8.731      864.986
01/02/2015  04:02:00      -33.526       -2.539      -13.945       12.541        9.109        8.765      157.285       82.972       76.817        0.082        0.016       33.622        8.652        0.066      326.552       -8.524      864.966
01/02/2015  04:03:00      -31.211       -8.389       -5.731       11.053        9.021        9.168      122.165       81.379       84.049        0.068        0.014       32.319        6.514        0.041      326.525       -8.567      864.946
01/02/2015  04:04:00      -29.863       -9.869       -9.900        8.191        7.595        6.273       67.096       57.689       39.355        0.063        0.008       31.451        2.128        0.005      326.518       -8.579      864.934
01/02/2015  04:05:00      -27.641      -13.758       -7.083       11.052        8.256        5.773      122.150       68.158       33.323        0.061        0.011       30.875        1.237        0.002      326.514       -8.587      864.933
01/02/2015  04:06:00      -41.150      -11.809      -10.568        8.032        8.125        6.128       64.508       66.021       37.549        0.106        0.008       42.811        2.360        0.003      326.585       -8.471      864.930
01/02/2015  04:07:00      -32.743      -16.990       -6.334       12.679        8.218        8.318      160.754       67.529       69.183        0.085        0.015       36.888        2.628        0.005      326.490       -8.625      864.920
01/02/2015  04:08:00      -42.128      -24.825        0.553       13.929       10.776        9.805      194.017      116.114       96.144        0.140        0.020       48.898        6.624        0.018      326.457       -8.677      864.904
01/02/2015  04:09:00      -56.821      -25.411       -5.372       11.075       10.997        7.281      122.662      120.929       53.014        0.210        0.015       62.244        6.144        0.010      326.394       -8.782      864.884
01/02/2015  04:10:00      -62.035      -14.978       -9.839        7.386        8.664        5.114       54.552       75.059       26.149        0.216        0.008       63.817        3.113        0.002      326.350       -8.852      864.864
01/02/2015  04:11:00      -61.951      -10.606      -11.826        7.288        8.144        7.539       53.117       66.322       56.835        0.213        0.009       62.853        2.828        0.002      326.317       -8.906      864.847
01/02/2015  04:12:00      -69.246       -3.437      -10.705        9.882        7.762        7.574       97.650       60.246       57.370        0.257        0.011       69.332        3.470        0.003      326.400       -8.769      864.821
01/02/2015  04:13:00      -64.707      -10.288       -6.974        9.345       12.588        8.422       87.323      158.457       70.931        0.233        0.016       65.520        5.160        0.006      326.436       -8.713      864.796
01/02/2015  04:14:00      -76.525       -5.983       -8.850       12.495        6.972        7.496      156.121       48.604       56.186        0.312        0.013       76.758        3.793        0.002      326.399       -8.773      864.771
01/02/2015  04:15:00      -77.644      -16.380       -8.091       18.533       14.010       12.108      343.473      196.267      146.609        0.352        0.034       79.353        9.559        0.015      326.455       -8.682      864.743
01/02/2015  04:16:00      -81.119      -16.001       -8.458       23.476       13.330       12.120      551.112      177.678      146.899        0.389        0.044       82.682       12.220        0.022      326.442       -8.702      864.721
01/02/2015  04:17:00      -71.290      -18.469       -4.524       18.553       11.533        8.811      344.209      133.020       77.633        0.300        0.028       73.644        8.631        0.014      326.525       -8.568      864.704
01/02/2015  04:18:00      -76.210      -33.519       -7.501       20.901       15.251       10.487      436.867      232.606      109.979        0.388        0.039       83.256       10.101        0.015      326.528       -8.563      864.683
01/02/2015  04:19:00      -78.295      -26.767       -6.672       19.322       20.850       10.812      373.328      434.733      116.893        0.391        0.046       82.745        5.022        0.004      326.496       -8.614      864.662
01/02/2015  04:20:00      -81.013      -20.713      -12.517       17.617       13.865       13.568      310.367      192.228      184.085        0.392        0.034       83.619        9.885        0.014      326.512       -8.589      864.647
01/02/2015  04:21:00      -73.575      -15.894       -8.523       11.032       14.228        9.118      121.699      202.425       83.136        0.307        0.020       75.273        5.602        0.006      326.417       -8.743      864.635
01/02/2015  04:22:00      -58.258       -5.863       -2.375       10.748        7.656        9.782      115.513       58.616       95.681        0.185        0.013       58.552        2.456        0.002      326.424       -8.732      864.630
01/02/2015  04:23:00      -45.974      -10.798       -8.120       10.947        7.613        7.018      119.829       57.957       49.249        0.126        0.011       47.225        4.264        0.008      326.468       -8.661      864.608
01/02/2015  04:24:00      -61.072       -1.374       -2.644       10.700        6.842        7.808      114.482       46.818       60.968        0.198        0.011       61.087        3.515        0.003      326.445       -8.697      864.592
01/02/2015  04:25:00      -63.833      -11.420       -3.866       13.306       10.321       10.319      177.050      106.515      106.472        0.230        0.020       64.847        6.836        0.011      326.426       -8.727      864.568
01/02/2015  04:26:00      -57.079       -6.089       -5.069       10.801        8.137        7.813      116.660       66.215       61.050        0.178        0.012       57.403        3.817        0.004      326.391       -8.785      864.538
01/02/2015  04:27:00      -37.600       -3.834       -1.406       12.349        8.382        6.704      152.487       70.262       44.950        0.085        0.013       37.795        5.805        0.024      326.415       -8.747      864.518
01/02/2015  04:28:00      -27.600       -3.740        2.762        9.286        8.865        8.687       86.230       78.594       75.462        0.051        0.012       27.852        7.214        0.067      326.394       -8.782      864.497
01/02/2015  04:29:00      -59.903        6.724       -7.872       12.129        8.056        7.435      147.105       64.906       55.285        0.198        0.013       60.279        4.214        0.005      326.363       -8.832      864.475
01/02/2015  04:30:00      -80.002        0.586      -14.235        9.185        6.045        7.019       84.367       36.537       49.272        0.339        0.009       80.004        4.327        0.003      326.331       -8.883      864.450
01/02/2015  04:31:00      -79.632       -6.114      -10.077       10.079        9.772        7.265      101.587       95.489       52.776        0.336        0.012       79.866        4.619        0.003      326.345       -8.859      864.430
01/02/2015  04:32:00      -64.947       -8.151       -5.553       23.299       16.541        9.917      542.858      273.611       98.348        0.261        0.046       65.456        7.790        0.014      326.282       -8.961      864.418
01/02/2015  04:33:00      -99.403        1.393      -14.573       11.048        9.322        7.526      122.049       86.897       56.634        0.518        0.013       99.413        4.276        0.002      326.262       -8.994      864.407
01/02/2015  04:34:00      -99.792       -1.137      -13.069       17.131       10.226       12.039      293.463      104.576      144.930        0.534        0.027       99.798       10.462        0.011      326.218       -9.065      864.395
01/02/2015  04:35:00      -79.971       -6.413       -9.951       22.901       14.159       12.931      524.439      200.490      167.223        0.371        0.045       80.227       12.619        0.025      326.202       -9.092      864.380
01/02/2015  04:36:00      -50.685       -8.284       -2.555       12.813       15.873        8.375      164.178      251.941       70.136        0.157        0.024       51.358        6.518        0.016      326.174       -9.136      864.366
01/02/2015  04:37:00      -47.125        0.464       -6.140       20.797       12.750        9.404      432.535      162.563       88.429        0.147        0.034       47.127        8.181        0.030      326.203       -9.090      864.350
01/02/2015  04:38:00      -36.208      -23.523       -4.724       15.198       14.328        8.780      230.966      205.290       77.084        0.120        0.026       43.178        8.052        0.035      326.191       -9.109      864.335
01/02/2015  04:39:00      -49.576      -17.454       -9.809       12.234       12.843        8.950      149.667      164.949       80.097        0.163        0.020       52.559        6.890        0.017      326.152       -9.172      864.326
01/02/2015  04:40:00      -55.723      -11.895       -9.616       13.023       11.901        8.726      169.593      141.625       76.149        0.186        0.019       56.978        7.563        0.018      326.091       -9.271      864.325
01/02/2015  04:41:00      -32.498       -4.537       -7.935       20.204       13.736       15.878      408.217      188.683      252.112        0.099        0.042       32.813       13.163        0.161      326.100       -9.255      864.311
01/02/2015  04:42:00      -59.468       -6.186       -7.262       17.243       18.255       14.540      297.313      333.237      211.410        0.223        0.042       59.789       12.045        0.041      326.155       -9.167      864.308
01/02/2015  04:43:00      -78.680       -8.804       -6.256       17.673        8.417       11.085      312.330       70.839      122.870        0.341        0.025       79.171       11.051        0.019      326.148       -9.180      864.319
01/02/2015  04:44:00      -78.296       -1.604      -11.060        8.093        8.930        8.845       65.501       79.737       78.231        0.324        0.011       78.312        6.269        0.006      326.154       -9.167      864.321
01/02/2015  04:45:00      -56.438       -2.607      -11.258       17.336       14.259        8.857      300.540      203.328       78.445        0.195        0.029       56.498        9.830        0.030      326.145       -9.184      864.323
01/02/2015  04:46:00      -52.789      -10.824       -3.763       13.314        8.555        9.973      177.263       73.180       99.467        0.163        0.017       53.887        7.798        0.021      326.161       -9.158      864.309
01/02/2015  04:47:00      -58.686       -2.342       -2.846       17.539       14.217       12.869      307.631      202.114      165.608        0.207        0.034       58.733       10.359        0.031      326.068       -9.308      864.296
01/02/2015  04:48:00      -83.418        3.806      -12.776       11.267       10.088        9.439      126.951      101.760       89.097        0.373        0.016       83.505        4.799        0.003      326.106       -9.246      864.285
01/02/2015  04:49:00      -75.246        6.258      -10.423        7.585        6.754        7.086       57.533       45.621       50.210        0.298        0.008       75.506        2.133        0.001      326.125       -9.215      864.271
01/02/2015  04:50:00      -66.757       -0.811       -9.842        8.326        5.534        5.626       69.323       30.627       31.649        0.234        0.007       66.762        4.038        0.004      326.193       -9.107      864.264
01/02/2015  04:51:00      -41.779        2.863       -9.004       11.605        4.923        7.266      134.665       24.239       52.794        0.102        0.011       41.877        5.961        0.020      326.246       -9.019      864.251
01/02/2015  04:52:00        5.109       11.256       -5.564       18.597       13.006        5.422      345.840      169.148       29.393        0.036        0.027       12.361        2.843        0.053      326.403       -8.765      864.234
01/02/2015  04:53:00       11.231        9.955        2.764       12.497       12.189        8.490      156.177      148.563       72.086        0.030        0.019       15.008        7.064        0.222      326.507       -8.599      864.221
01/02/2015  04:54:00       29.862       20.060        8.350       11.774        8.549        7.419      138.636       73.085       55.046        0.082        0.013       35.974        5.889        0.027      326.544       -8.538      864.209
01/02/2015  04:55:00       36.507       30.176        2.604       13.043        9.962        6.826      170.112       99.241       46.592        0.128        0.016       47.364        5.284        0.012      326.540       -8.544      864.194
01/02/2015  04:56:00       27.548       28.008        2.342       21.785       17.124       11.234      474.584      293.221      126.204        0.122        0.045       39.286        6.372        0.026      326.478       -8.645      864.183
01/02/2015  04:57:00       53.242       38.217        5.176       19.712       13.665       11.245      388.551      186.745      126.454        0.251        0.035       65.539        8.328        0.016      326.451       -8.689      864.174
01/02/2015  04:58:00       39.397       26.513        5.709       19.132       15.911       14.952      366.033      253.163      223.557        0.157        0.042       47.488       11.098        0.055      326.396       -8.778      864.174
01/02/2015  04:59:00       31.133       25.743       -0.679       11.036       10.573        7.021      121.786      111.784       49.299        0.096        0.014       40.398        2.406        0.004      326.439       -8.708      864.183
01/02/2015  05:00:00       40.713       32.632        1.566       12.572       14.284        8.425      158.047      204.045       70.982        0.158        0.022       52.176        6.953        0.018      326.457       -8.680      864.189
01/02/2015  05:01:00       33.643       25.999        3.452       16.587       13.925        9.525      275.132      193.905       90.728        0.119        0.028       42.518        5.758        0.018      326.421       -8.736      864.190
01/02/2015  05:02:00       40.060       38.959        2.857       18.419       15.510       13.211      339.258      240.561      174.528        0.194        0.038       55.881        7.449        0.018      326.422       -8.735      864.183
01/02/2015  05:03:00       25.761       51.284       -6.711       19.319       16.841       11.385      373.205      283.620      129.624        0.206        0.039       57.391        7.735        0.018      326.405       -8.764      864.174
01/02/2015  05:04:00       13.529       31.444       -0.944       17.814       17.270       10.144      317.321      298.242      102.899        0.095        0.036       34.231        7.763        0.051      326.433       -8.718      864.167
01/02/2015  05:05:00        8.600       29.865       -7.624        9.016       16.521        8.338       81.297      272.951       69.521        0.072        0.021       31.079        9.666        0.097      326.445       -8.697      864.168
01/02/2015  05:06:00        2.987       29.203       -1.945        9.600       12.573        9.022       92.169      158.080       81.399        0.060        0.017       29.356        6.618        0.051      326.494       -8.619      864.159
01/02/2015  05:07:00       -3.624       19.906        2.418       15.088       16.744        8.631      227.640      280.358       74.493        0.050        0.029       20.233        9.480        0.220      326.364       -8.828      864.148
01/02/2015  05:08:00       -9.725       14.469        8.255       20.986       13.311        8.073      440.407      177.180       65.169        0.053        0.034       17.434        4.738        0.074      326.351       -8.851      864.141
01/02/2015  05:09:00      -33.281      -13.843       -2.040       19.942        7.637        8.763      397.695       58.319       76.790        0.092        0.027       36.045        8.497        0.056      326.204       -9.089      864.128
01/02/2015  05:10:00      -60.198      -10.136       -8.587       13.773       17.417       11.271      189.696      303.356      127.029        0.221        0.031       61.045        3.188        0.003      326.060       -9.322      864.126
01/02/2015  05:11:00      -50.297       -1.613      -11.914       18.350       17.371       17.084      336.741      301.756      291.854        0.180        0.047       50.323       15.290        0.092      326.022       -9.383      864.122
01/02/2015  05:12:00      -39.674       -8.926       -4.908       27.794       26.618       16.199      772.483      708.529      262.404        0.171        0.087       40.666       17.359        0.182      326.063       -9.317      864.126
01/02/2015  05:13:00      -46.445       -6.899        1.812       26.726       24.418       17.578      714.274      596.245      308.974        0.191        0.081       46.954       16.872        0.129      326.087       -9.279      864.124
01/02/2015  05:14:00      -49.267       -5.617       -7.962       21.195       13.481       10.718      449.239      181.731      114.875        0.163        0.037       49.586       10.396        0.044      326.104       -9.250      864.113
01/02/2015  05:15:00      -56.117      -31.789       -5.795       15.022       17.623       10.633      225.653      310.567      113.056        0.242        0.032       64.495        5.883        0.008      326.164       -9.154      864.096
01/02/2015  05:16:00      -43.980      -20.877       -1.534       24.827       25.418       18.572      616.361      646.087      344.920        0.199        0.080       48.683       17.111        0.124      326.178       -9.131      864.084
01/02/2015  05:17:00      -57.576       -1.397       -2.777       25.958       23.603       13.845      673.803      557.109      191.683        0.237        0.071       57.593       11.473        0.040      326.270       -8.981      864.081
01/02/2015  05:18:00      -68.352       -8.773       -2.687       31.925       24.222       13.998     1019.200      586.704      195.946        0.328        0.090       68.913       17.221        0.062      326.244       -9.023      864.074
01/02/2015  05:19:00      -58.727       -8.225       -5.209       27.267       25.689       14.691      743.504      659.922      215.824        0.258        0.081       59.300       13.561        0.052      326.306       -8.924      864.082
01/02/2015  05:20:00      -44.607       -5.968       -3.484       25.467       15.682       12.917      648.585      245.911      166.859        0.155        0.053       45.004       10.001        0.049      326.318       -8.904      864.092
01/02/2015  05:21:00      -42.015       -3.680       -4.568       17.142       11.305       10.914      293.861      127.801      119.113        0.117        0.027       42.176       10.033        0.057      326.350       -8.852      864.104
01/02/2015  05:22:00      -25.525       -2.243       -1.486       21.189       12.648        8.799      448.989      159.979       77.427        0.067        0.034       25.624        9.162        0.128      326.474       -8.652      864.112
01/02/2015  05:23:00        3.066       -5.445       -1.066        8.153        8.758        6.102       66.472       76.694       37.229        0.011        0.009        6.249        3.593        0.331      326.525       -8.569      864.114
01/02/2015  05:24:00       -6.830       -9.713       -3.120       10.888        6.975        5.035      118.538       48.655       25.353        0.017        0.010       11.874        3.308        0.078      326.606       -8.438      864.096
01/02/2015  05:25:00      -17.882        2.355       -1.073        6.792        8.003        4.469       46.128       64.050       19.968        0.023        0.007       18.036        1.825        0.010      326.670       -8.333      864.075
01/02/2015  05:26:00      -21.461       -0.018       -3.496        4.835        4.649        3.655       23.380       21.616       13.358        0.027        0.003       21.461        1.747        0.007      326.616       -8.423      864.068
01/02/2015  05:27:00      -21.713       -0.298       -1.962        6.462        6.019        3.457       41.752       36.224       11.952        0.028        0.004       21.715        1.583        0.005      326.625       -8.406      864.075
01/02/2015  05:28:00        0.273       11.446       -0.596        6.692        4.409        4.931       44.783       19.437       24.319        0.011        0.004       11.449        1.555        0.018      326.786       -8.149      864.080
01/02/2015  05:29:00       -7.050        8.759        5.957        7.342        6.324        4.974       53.902       39.994       24.744        0.014        0.006       11.244        2.028        0.033      326.714       -8.263      864.078
01/02/2015  05:30:00       -3.879      -15.467        3.472        6.242       11.314        6.905       38.958      128.002       47.673        0.024        0.011       15.946        6.973        0.191      326.610       -8.431      864.077
01/02/2015  05:31:00        3.605       -4.938        5.169        9.173        8.031        4.275       84.152       64.500       18.279        0.012        0.008        6.114        2.832        0.215      326.627       -8.403      864.073
01/02/2015  05:32:00       36.965        7.787        0.542        9.940        6.351        7.108       98.800       40.341       50.527        0.081        0.009       37.776        5.109        0.018      326.797       -8.128      864.071
01/02/2015  05:33:00       54.711       20.398        2.482        8.231        9.699        7.595       67.754       94.074       57.682        0.182        0.011       58.390        2.608        0.002      326.862       -8.022      864.066
01/02/2015  05:34:00       59.560       38.364        8.730       12.584       11.414       10.093      158.346      130.285      101.869        0.274        0.020       70.846        6.956        0.010      326.868       -8.011      864.053
01/02/2015  05:35:00       13.675       20.437       29.987       17.638       11.986       12.467      311.115      143.656      155.426        0.106        0.031       24.590        9.651        0.154      326.710       -8.269      864.045
01/02/2015  05:36:00        3.878       25.212       40.348       12.927       18.228        8.825      167.109      332.268       77.875        0.143        0.029       25.508        9.973        0.153      326.615       -8.422      864.039
01/02/2015  05:37:00       11.673        2.446       22.422       19.010       27.739       25.761      361.380      769.439      663.641        0.122        0.090       11.926       22.747        3.638      326.574       -8.488      864.037
01/02/2015  05:38:00       22.799       14.416       16.051       21.559       25.659       20.353      464.788      658.393      414.226        0.126        0.077       26.975       15.415        0.327      326.503       -8.605      864.035
01/02/2015  05:39:00       -0.600       -7.540       13.196       14.937        8.035       11.068      223.112       64.558      122.499        0.032        0.021        7.563        8.130        1.155      326.512       -8.589      864.042
01/02/2015  05:40:00      -18.076      -15.604        0.631        9.101       13.262        5.840       82.821      175.882       34.110        0.043        0.015       23.879        4.190        0.031      326.506       -8.599      864.046
01/02/2015  05:41:00       -9.038      -36.437        6.360        9.383       19.898       12.144       88.036      395.937      147.467        0.104        0.032       37.541       11.340        0.091      326.504       -8.601      864.043
01/02/2015  05:42:00       -2.741      -52.924      -15.611       18.329       13.682       10.780      335.940      187.210      116.204        0.185        0.032       52.995        9.271        0.031      326.602       -8.444      864.036
01/02/2015  05:43:00       -6.042      -33.219       -3.071       14.112       21.616       14.787      199.156      467.250      218.643        0.102        0.044       33.764       14.859        0.194      326.554       -8.521      864.029
01/02/2015  05:44:00       -8.367        0.918        3.228        9.549       10.636        9.395       91.189      113.124       88.263        0.019        0.015        8.418        2.491        0.088      326.447       -8.695      864.034
01/02/2015  05:45:00       14.406       21.860       24.689       22.069       14.860       11.530      487.045      220.823      132.938        0.107        0.042       26.180       12.939        0.244      326.412       -8.752      864.040
01/02/2015  05:46:00       34.202       16.339       31.931       24.796       14.911       14.114      614.863      222.345      199.219        0.175        0.052       37.905       11.807        0.097      326.470       -8.658      864.048
01/02/2015  05:47:00       70.718       41.614       18.211       26.090       19.420       17.497      680.693      377.132      306.136        0.421        0.068       82.054        6.607        0.006      326.517       -8.581      864.058
01/02/2015  05:48:00       58.391       39.139       44.488       32.194       25.035       24.833     1036.442      626.766      616.660        0.460        0.114       70.295       15.275        0.047      326.525       -8.568      864.053
01/02/2015  05:49:00       66.452       64.273       46.324       22.195       16.647       18.792      492.609      277.109      353.131        0.591        0.056       92.450        6.051        0.004      326.578       -8.482      864.044
01/02/2015  05:50:00       65.353       47.031       34.447       18.480       16.899       13.325      341.503      285.574      177.561        0.424        0.040       80.516        7.343        0.008      326.450       -8.689      864.043
01/02/2015  05:51:00       85.506       53.192       18.337       16.916       12.850       13.597      286.166      165.130      184.882        0.556        0.032      100.701        9.949        0.010      326.440       -8.705      864.061
01/02/2015  05:52:00       71.796       43.721       16.255       29.054       17.624       16.188      844.107      310.606      262.066        0.437        0.071       84.060       18.355        0.048      326.405       -8.763      864.074
01/02/2015  05:53:00       81.414       55.729       15.050       16.584       10.558        9.087      275.028      111.477       82.566        0.521        0.023       98.661        9.183        0.009      326.416       -8.743      864.084
01/02/2015  05:54:00       65.748       49.455        4.552       21.036       16.691       14.478      442.501      278.603      209.598        0.386        0.047       82.272       12.300        0.022      326.405       -8.764      864.095
01/02/2015  05:55:00       51.867       27.458        3.550       13.213       18.351       12.758      174.586      336.745      162.757        0.207        0.034       58.686        6.736        0.013      326.427       -8.728      864.103
01/02/2015  05:56:00       57.466       33.905       -0.549       19.559       11.018        9.482      382.537      121.407       89.900        0.252        0.030       66.722        5.776        0.007      326.443       -8.700      864.116
01/02/2015  05:57:00       43.223       15.920       -0.451       17.282       12.349        9.101      298.673      152.507       82.831        0.133        0.027       46.062        6.394        0.019      326.458       -8.677      864.119
01/02/2015  05:58:00       13.811       11.936       -1.865        7.652        9.463        5.912       58.546       89.557       34.953        0.026        0.009       18.254        3.381        0.034      326.444       -8.699      864.118
01/02/2015  05:59:00       14.687       12.248        3.237        9.312        6.713        5.583       86.711       45.062       31.168        0.027        0.008       19.124        2.971        0.024      326.444       -8.698      864.110
01/02/2015  06:00:00       -5.320       10.882       -0.231       10.516        8.461        6.130      110.591       71.594       37.577        0.018        0.011       12.113        4.813        0.158      326.460       -8.674      864.110
01/02/2015  06:01:00      -21.451        7.962        3.576        5.866        5.541        5.716       34.415       30.707       32.668        0.032        0.005       22.881        4.632        0.041      326.285       -8.957      864.115
01/02/2015  06:02:00      -13.894       -3.327        0.394        8.604        8.087        4.134       74.025       65.395       17.091        0.018        0.008       14.286        4.160        0.085      326.327       -8.888      864.113
01/02/2015  06:03:00      -30.115      -12.204        0.442        8.723        6.409        6.791       76.088       41.074       46.116        0.061        0.008       32.494        3.709        0.013      326.283       -8.960      864.100
01/02/2015  06:04:00      -12.612      -14.578       -1.097       14.064        8.359        8.310      197.787       69.880       69.054        0.035        0.017       19.276        7.417        0.148      326.237       -9.037      864.095
01/02/2015  06:05:00      -45.234       -0.061       -7.861       13.599        9.405       12.244      184.926       88.460      149.924        0.127        0.021       45.234        9.034        0.040      326.196       -9.100      864.097
01/02/2015  06:06:00      -40.740       -2.198       -7.716       10.891        7.193        7.101      118.621       51.740       50.431        0.097        0.011       40.800        6.084        0.022      326.220       -9.060      864.104
01/02/2015  06:07:00      -42.430        0.040       -8.897       11.238       10.635        7.192      126.283      113.109       51.732        0.109        0.015       42.430        5.580        0.017      326.182       -9.124      864.117
01/02/2015  06:08:00      -56.917       -8.744       -6.632       13.028        8.278        8.292      169.722       68.523       68.761        0.183        0.015       57.584        8.124        0.020      326.211       -9.075      864.125
01/02/2015  06:09:00      -72.306      -13.798       -9.621        8.427       10.898        7.282       71.017      118.772       53.023        0.288        0.012       73.611        4.584        0.004      326.260       -8.998      864.125
01/02/2015  06:10:00      -89.617       -0.851       -7.899       15.338       12.242       10.269      235.264      149.860      105.450        0.429        0.025       89.621        8.093        0.008      326.238       -9.031      864.118
01/02/2015  06:11:00     -111.445        0.290      -15.857       10.315       10.392        8.258      106.397      107.987       68.187        0.648        0.014      111.446        4.172        0.001      326.185       -9.119      864.124
01/02/2015  06:12:00     -117.143       -3.716      -14.348       20.166       14.273       11.629      406.668      203.706      135.235        0.734        0.037      117.202        8.216        0.005      326.172       -9.140      864.126
01/02/2015  06:13:00      -97.067       -4.250       -8.757       30.335       16.652       19.317      920.205      277.302      373.136        0.554        0.079       97.160       19.427        0.040      326.151       -9.175      864.135
01/02/2015  06:14:00     -107.141        2.044       -9.602       27.928       16.108       15.491      779.996      259.479      239.964        0.643        0.064      107.160       14.909        0.019      326.169       -9.144      864.148
01/02/2015  06:15:00     -105.707        1.139      -12.070       19.370       13.105       11.972      375.185      171.733      143.334        0.601        0.035      105.713        6.745        0.004      326.173       -9.138      864.160
01/02/2015  06:16:00     -108.645       -2.484      -11.174       17.881       14.852       12.823      319.723      220.575      164.435        0.632        0.035      108.674        6.297        0.003      326.208       -9.081      864.170
01/02/2015  06:17:00      -98.672       -6.429       -7.372       17.824       11.697       12.536      317.703      136.828      157.139        0.522        0.031       98.881       10.513        0.011      326.196       -9.102      864.177
01/02/2015  06:18:00     -118.424      -12.464      -11.953       12.124       11.229       10.471      146.993      126.083      109.650        0.735        0.019      119.078        7.115        0.004      326.233       -9.042      864.181
01/02/2015  06:19:00     -115.490      -14.398      -11.140       24.391       12.596       13.651      594.902      158.647      186.354        0.730        0.047      116.384       12.197        0.011      326.253       -9.009      864.187
01/02/2015  06:20:00     -132.936       -9.757      -14.628       17.323       11.258       10.589      300.074      126.752      112.125        0.926        0.027      133.294        6.481        0.002      326.213       -9.073      864.198
01/02/2015  06:21:00     -123.614       -4.921      -14.878       16.141       15.453       15.468      260.518      238.804      239.247        0.813        0.037      123.712       10.738        0.008      326.085       -9.281      864.206
01/02/2015  06:22:00     -117.627        2.176       -6.808       35.484       22.973       19.688     1259.105      527.744      387.629        0.803        0.109      117.647       19.889        0.029      326.105       -9.248      864.212
01/02/2015  06:23:00     -120.311       -0.819       -5.526       45.508       25.325       20.795     2070.960      641.335      432.431        0.882        0.157      120.314       21.773        0.033      326.157       -9.165      864.226
01/02/2015  06:24:00     -108.191        4.457       -8.862       56.071       34.449       22.781     3143.996     1186.756      518.988        0.833        0.242      108.283       21.600        0.040      326.248       -9.016      864.248
01/02/2015  06:25:00     -131.002       16.278      -11.300       34.747       26.592       20.521     1207.381      707.117      421.121        0.994        0.117      132.009       19.160        0.021      326.278       -8.968      864.279
01/02/2015  06:26:00     -147.727        8.821       -9.322       26.478       18.943       13.524      701.098      358.840      182.887        1.162        0.062      147.990       12.799        0.007      326.270       -8.982      864.289
01/02/2015  06:27:00     -165.144       11.035      -16.314       12.617       13.856        9.626      159.196      191.988       92.658        1.405        0.022      165.513        5.261        0.001      326.255       -9.006      864.294
01/02/2015  06:28:00     -169.192       10.427      -19.127       24.362       19.170       13.320      593.509      367.477      177.431        1.512        0.057      169.513       10.276        0.004      326.238       -9.032      864.289
01/02/2015  06:29:00     -187.070       23.911      -17.311       18.622       22.925       17.167      346.761      525.554      294.722        1.852        0.058      188.592       12.784        0.005      326.208       -9.082      864.280
01/02/2015  06:30:00     -152.446      -10.752      -14.199       37.507       34.448       22.517     1406.751     1186.675      507.020        1.333        0.155      152.825       21.604        0.020      326.203       -9.089      864.271
01/02/2015  06:31:00     -147.606       21.325       -9.033       44.426       39.472       26.227     1973.651     1558.025      687.831        1.327        0.211      149.139       25.520        0.029      326.122       -9.220      864.264
01/02/2015  06:32:00     -132.792        8.552      -16.918       38.743       30.969       25.483     1501.035      959.076      649.398        1.055        0.155      133.067       17.563        0.017      326.134       -9.200      864.260
01/02/2015  06:33:00     -161.626        8.708      -18.739       57.689       40.475       25.965     3328.039     1638.195      674.181        1.609        0.282      161.861       23.883        0.022      326.148       -9.179      864.261
01/02/2015  06:34:00     -148.681        7.334      -13.772       57.751       50.974       27.019     3335.153     2598.302      730.023        1.451        0.333      148.862       23.342        0.025      326.237       -9.034      864.262
01/02/2015  06:35:00     -105.836        4.158      -14.693       39.554       42.794       24.784     1564.516     1831.352      614.243        0.772        0.201      105.918       20.329        0.037      326.238       -9.033      864.266
01/02/2015  06:36:00     -132.118      -26.766       -5.955       39.446       37.739       21.747     1555.980     1424.260      472.945        1.083        0.173      134.802       20.181        0.022      326.219       -9.063      864.279
01/02/2015  06:37:00     -105.490      -30.434       -8.336       44.579       40.173       18.445     1987.244     1613.858      340.223        0.803        0.197      109.793       13.357        0.015      326.272       -8.979      864.291
01/02/2015  06:38:00      -61.323      -32.292        2.159       27.472       36.275       16.070      754.705     1315.892      258.244        0.357        0.116       69.306       11.241        0.026      326.372       -8.816      864.289
01/02/2015  06:39:00      -78.964      -37.211        1.299       24.427       26.778       16.313      596.692      717.053      266.118        0.460        0.079       87.292       13.231        0.023      326.387       -8.793      864.286
01/02/2015  06:40:00      -74.916      -39.283        4.942       27.766       34.394       16.726      770.974     1182.968      279.766        0.471        0.112       84.590       14.685        0.030      326.405       -8.764      864.297
01/02/2015  06:41:00      -67.043      -29.998       -6.247       36.716       30.449       13.489     1348.065      927.142      181.942        0.394        0.123       73.448       16.993        0.054      326.463       -8.668      864.306
01/02/2015  06:42:00      -53.486      -31.279       -0.424       32.840       28.759       15.549     1078.496      827.074      241.772        0.299        0.107       61.961       18.097        0.085      326.480       -8.643      864.328
01/02/2015  06:43:00      -73.526      -35.300       -4.394       26.022       21.646       11.613      677.128      468.547      134.851        0.398        0.064       81.561       10.269        0.016      326.567       -8.499      864.369
01/02/2015  06:44:00      -56.219       -8.737        0.973       15.788       21.274       11.593      249.275      452.583      134.397        0.204        0.042       56.894        9.070        0.025      326.556       -8.518      864.396
01/02/2015  06:45:00      -49.082      -19.853       -0.764       16.035       12.675       10.166      257.111      160.662      103.343        0.166        0.026       52.945        6.320        0.014      326.619       -8.417      864.406
01/02/2015  06:46:00      -26.165        3.016       -0.319       14.949       14.375       10.145      223.480      206.636      102.913        0.061        0.027       26.338        8.852        0.113      326.561       -8.510      864.413
01/02/2015  06:47:00        2.979       -5.775        5.599       12.229       12.842        8.561      149.540      164.923       73.287        0.023        0.019        6.498        6.296        0.939      326.588       -8.466      864.422
01/02/2015  06:48:00       -7.864      -19.859       10.606       15.363       15.604       11.629      236.025      243.474      135.225        0.059        0.031       21.359        8.926        0.175      326.617       -8.420      864.427
01/02/2015  06:49:00       -6.659        1.564       14.675        7.075        7.748        7.719       50.053       60.028       59.576        0.022        0.008        6.840        4.758        0.484      326.584       -8.473      864.434
01/02/2015  06:50:00      -19.448      -18.895        0.898       13.508       11.062        9.986      182.464      122.371       99.718        0.057        0.020       27.116        9.835        0.132      326.654       -8.361      864.433
01/02/2015  06:51:00      -25.723      -28.507        3.636       25.420       21.296       10.879      646.154      453.508      118.360        0.135        0.061       38.397       10.193        0.070      326.670       -8.334      864.428
01/02/2015  06:52:00      -24.174      -23.702        3.531        9.933       10.816        7.598       98.660      116.989       57.727        0.072        0.014       33.855        5.282        0.024      326.717       -8.256      864.430
01/02/2015  06:53:00       -4.664      -15.798       11.899       10.065       12.906        8.689      101.301      166.561       75.492        0.038        0.017       16.472        4.110        0.062      326.664       -8.343      864.430
01/02/2015  06:54:00      -38.783       -3.906       -5.254       23.575        7.118        7.251      555.772       50.669       52.574        0.110        0.033       38.979        5.857        0.023      326.655       -8.358      864.443
01/02/2015  06:55:00      -55.008      -44.135       -1.106       34.203       22.991       19.432     1169.821      528.570      377.622        0.353        0.104       70.526       13.609        0.037      326.543       -8.539      864.462
01/02/2015  06:56:00      -80.322      -40.317       -7.142       33.270       28.653       19.315     1106.913      821.013      373.085        0.521        0.115       89.873       13.547        0.023      326.485       -8.633      864.486
01/02/2015  06:57:00      -78.955      -45.896       -4.300       23.993       16.665       16.830      575.649      277.737      283.244        0.475        0.057       91.326       11.750        0.017      326.497       -8.614      864.517
01/02/2015  06:58:00      -72.564      -46.658       -4.759       30.436       21.675       14.256      926.338      469.794      203.243        0.453        0.080       86.270       11.704        0.018      326.523       -8.571      864.547
01/02/2015  06:59:00      -55.013      -49.718       -3.935       29.357       22.544       18.097      861.837      508.248      327.486        0.361        0.085       74.151       17.890        0.058      326.506       -8.598      864.576
01/02/2015  07:00:00     -104.837      -61.143      -10.667       17.239       25.740       13.902      297.180      662.534      193.263        0.800        0.058      121.364       12.162        0.010      326.456       -8.682      864.593
01/02/2015  07:01:00      -79.007      -16.960       -6.839       24.335       16.847       13.842      592.208      283.831      191.594        0.382        0.053       80.807        6.164        0.006      326.422       -8.735      864.617
01/02/2015  07:02:00      -25.693      -20.312        0.787       14.857       14.569        9.064      220.716      212.267       82.149        0.079        0.026       32.752        5.500        0.028      326.435       -8.716      864.648
01/02/2015  07:03:00      -45.814      -15.731       -1.546       13.132       18.137        9.581      172.439      328.941       91.797        0.147        0.030       48.439        5.349        0.012      326.494       -8.618      864.672
01/02/2015  07:04:00      -48.385      -26.304       -7.511       22.108       20.589       11.484      488.782      423.915      131.882        0.207        0.052       55.073       10.804        0.038      326.523       -8.572      864.693
01/02/2015  07:05:00      -22.466      -15.061        9.111       16.950       15.732       13.153      287.286      247.503      173.000        0.076        0.035       27.047       11.489        0.180      326.536       -8.550      864.703
01/02/2015  07:06:00      -48.441      -21.155       -1.850       14.776        9.511       10.235      218.323       90.465      104.765        0.161        0.021       52.859        9.333        0.031      326.487       -8.629      864.714
01/02/2015  07:07:00      -47.146      -27.350       -2.240       25.427       11.431       10.716      646.538      130.672      114.834        0.193        0.045       54.505       11.572        0.045      326.506       -8.600      864.719
01/02/2015  07:08:00      -69.522      -24.500       -8.158       13.685       15.038        9.826      187.266      226.145       96.544        0.300        0.025       73.713        7.058        0.009      326.489       -8.627      864.723
01/02/2015  07:09:00      -73.828      -36.349       -5.008       17.406       17.172        9.904      302.981      294.877       98.091        0.375        0.035       82.291        8.781        0.011      326.461       -8.671      864.725
01/02/2015  07:10:00      -47.997      -26.229        4.630       21.243       14.995       14.012      451.285      224.841      196.343        0.194        0.044       54.696       13.175        0.058      326.433       -8.719      864.725
01/02/2015  07:11:00      -34.331      -17.373        1.923       17.959       17.466        9.631      322.524      305.077       92.748        0.110        0.036       38.477        8.708        0.051      326.441       -8.704      864.732
01/02/2015  07:12:00      -41.083       -6.119       -3.429       23.391       13.182       10.525      547.144      173.763      110.766        0.128        0.042       41.536       12.559        0.091      326.387       -8.792      864.740
01/02/2015  07:13:00      -60.527      -10.826       -5.181       14.079       11.016       10.342      198.226      121.346      106.963        0.212        0.021       61.488        7.758        0.016      326.346       -8.860      864.747
01/02/2015  07:14:00      -65.583       -9.054       -9.460       18.078        9.319       12.677      326.802       86.845      160.714        0.252        0.029       66.205        5.657        0.007      326.406       -8.763      864.757
01/02/2015  07:15:00      -53.038       -7.519       -3.706       20.042       11.513        9.255      401.683      132.558       85.649        0.175        0.031       53.568        9.607        0.032      326.376       -8.810      864.754
01/02/2015  07:16:00      -56.849      -13.959       -9.400       10.567        8.539        8.293      111.653       72.916       68.776        0.188        0.013       58.538        6.519        0.012      326.380       -8.803      864.764
01/02/2015  07:17:00      -49.556      -22.495       -9.095       13.888       13.183       10.395      192.873      173.796      108.060        0.176        0.024       54.422        2.755        0.003      326.341       -8.867      864.785
01/02/2015  07:18:00      -59.806       -3.997       -0.771       29.053       13.231       11.937      844.085      175.052      142.489        0.238        0.058       59.940       14.423        0.058      326.375       -8.810      864.801
01/02/2015  07:19:00      -76.685      -25.028       -4.817       15.624       11.897        9.357      244.113      141.545       87.547        0.350        0.024       80.666        5.499        0.005      326.370       -8.820      864.804
01/02/2015  07:20:00      -81.779      -16.273      -10.657       13.065       14.158        9.126      170.694      200.447       83.279        0.376        0.023       83.383        2.930        0.001      326.319       -8.902      864.806
01/02/2015  07:21:00      -77.264      -12.946      -10.110       19.924       19.254       11.243      396.982      370.727      126.413        0.357        0.045       78.341        9.849        0.016      326.238       -9.034      864.812
01/02/2015  07:22:00      -74.159       -4.903       -7.039       12.247       12.679       11.470      149.991      160.762      131.553        0.301        0.022       74.321        8.019        0.012      326.253       -9.010      864.823
01/02/2015  07:23:00      -60.911       -5.266       -5.636       15.026        8.210       10.259      225.783       67.407      105.249        0.208        0.020       61.139       10.284        0.028      326.284       -8.957      864.833
01/02/2015  07:24:00      -28.829      -23.264       -4.250       14.318       11.763        6.138      205.005      138.357       37.671        0.089        0.019       37.044        3.317        0.008      326.340       -8.867      864.847
01/02/2015  07:25:00       -6.825      -23.014       -4.513       10.278        8.861        7.090      105.641       78.515       50.264        0.042        0.012       24.005        4.170        0.030      326.453       -8.686      864.851
01/02/2015  07:26:00       -7.825       -1.792       -0.778        9.857       14.191        5.066       97.163      201.377       25.668        0.019        0.016        8.028        7.102        0.783      326.475       -8.649      864.857
01/02/2015  07:27:00        1.000        6.905        6.457       24.440        9.414        5.408      597.298       88.627       29.242        0.040        0.036        6.977        8.564        1.507      326.460       -8.675      864.864
01/02/2015  07:28:00       23.231       14.221        7.725       11.147       11.229       11.181      124.257      126.084      125.023        0.059        0.019       27.238        5.051        0.034      326.453       -8.684      864.877
01/02/2015  07:29:00       38.359        3.263        0.766       15.208       14.769       12.579      231.286      218.119      158.242        0.105        0.030       38.497       10.459        0.074      326.486       -8.630      864.891
01/02/2015  07:30:00        9.061       11.980       15.234       10.423        9.289       10.094      108.632       86.292      101.893        0.038        0.015       15.021        6.088        0.164      326.408       -8.758      864.904
01/02/2015  07:31:00       17.841       18.320       24.810       14.254       13.953       13.202      203.190      194.674      174.295        0.092        0.029       25.572        8.855        0.120      326.458       -8.677      864.912
01/02/2015  07:32:00        2.176       23.117       33.539       12.278       15.078        8.645      150.747      227.345       74.740        0.106        0.023       23.219        8.324        0.129      326.433       -8.717      864.920
01/02/2015  07:33:00        4.354       16.041       33.579       19.280       22.935       12.559      371.735      526.030      157.722        0.123        0.053       16.621        6.147        0.137      326.439       -8.707      864.943
01/02/2015  07:34:00       -0.846       -0.592       30.507       11.156       23.825       18.686      124.452      567.636      349.158        0.099        0.052        1.033       12.612      149.163      326.598       -8.452      864.965
01/02/2015  07:35:00        5.561       11.054       37.112       15.167       31.546       14.127      230.050      995.120      199.570        0.148        0.071       12.374       16.080        1.689      326.622       -8.411      864.988
01/02/2015  07:36:00       -1.989       21.501       41.261       16.008       30.322       15.928      256.267      919.425      253.712        0.180        0.071       21.592       16.899        0.612      326.584       -8.473      864.999
01/02/2015  07:37:00        4.872        5.737       23.442       16.157       19.657       20.996      261.041      386.414      440.825        0.085        0.054        7.527       16.898        5.040      326.651       -8.363      865.011
01/02/2015  07:38:00        1.105       17.589       35.376       12.979       13.914        9.168      168.451      193.607       84.057        0.100        0.022       17.624        9.104        0.267      326.623       -8.409      865.017
01/02/2015  07:39:00        7.250       18.371       34.498       19.183       15.984       15.663      367.987      255.483      245.324        0.122        0.043       19.750       13.419        0.462      326.660       -8.350      865.031
01/02/2015  07:40:00       10.738       17.733       33.982       15.953       19.539       13.362      254.504      381.778      178.539        0.120        0.041       20.731       11.923        0.331      326.647       -8.371      865.037
01/02/2015  07:41:00       11.659       31.736       33.891       20.078       15.980        8.122      403.140      255.355       65.971        0.151        0.036       33.810        5.833        0.030      326.609       -8.432      865.040
01/02/2015  07:42:00       23.724       36.726       41.944       24.243       19.449       12.215      587.713      378.273      149.197        0.239        0.056       43.723        9.279        0.045      326.556       -8.519      865.041
01/02/2015  07:43:00       21.792       36.193       31.939       21.800       17.106       16.808      475.225      292.619      282.501        0.193        0.053       42.247       14.152        0.112      326.526       -8.567      865.046
01/02/2015  07:44:00       21.759        8.778       19.307       22.905       11.286       14.420      524.655      127.367      207.937        0.089        0.043       23.463       11.613        0.245      326.559       -8.513      865.050
01/02/2015  07:45:00        9.470       21.930       31.639       15.033       21.291       11.372      225.995      453.325      129.329        0.119        0.040       23.888       11.902        0.248      326.669       -8.335      865.054
01/02/2015  07:46:00        2.466       25.840       35.837       11.346       15.404       10.310      128.730      237.291      106.304        0.122        0.024       25.958        7.077        0.074      326.642       -8.378      865.046
01/02/2015  07:47:00        2.305       26.205       37.429       13.960       16.114       14.160      194.878      259.674      200.512        0.137        0.033       26.306       12.938        0.242      326.706       -8.274      865.044
01/02/2015  07:48:00       -7.424       14.305       35.528        8.916       17.675       13.391       79.487      312.417      179.316        0.105        0.029       16.116       12.574        0.609      326.798       -8.127      865.037
01/02/2015  07:49:00       -2.180       16.005       33.862       14.031       20.227       10.728      196.866      409.132      115.092        0.106        0.036       16.153        7.508        0.216      326.790       -8.139      865.041
01/02/2015  07:50:00       -2.113       21.013       39.045       12.242       15.908       12.567      149.863      253.064      157.931        0.127        0.028       21.119        8.699        0.170      326.814       -8.100      865.045
01/02/2015  07:51:00        5.377       29.157       28.209       13.466       15.239       15.783      181.344      232.221      249.112        0.117        0.033       29.649       11.115        0.141      326.777       -8.160      865.071
01/02/2015  07:52:00       18.706       31.585       13.510       25.972       19.170       19.351      674.553      367.503      374.449        0.147        0.071       36.708       17.903        0.238      326.741       -8.218      865.101
01/02/2015  07:53:00        6.521       16.896       20.250       14.921       17.557       17.486      222.631      308.244      305.753        0.079        0.042       18.110       10.697        0.349      326.795       -8.131      865.124
01/02/2015  07:54:00       14.414       17.655       22.049       20.079       18.567       14.356      403.184      344.724      206.098        0.098        0.048       22.792        8.296        0.132      326.804       -8.115      865.148
01/02/2015  07:55:00       59.915       28.051        8.135       23.770       18.658       21.512      565.027      348.133      462.770        0.291        0.069       66.156        6.586        0.010      326.628       -8.404      865.155
01/02/2015  07:56:00       63.289       52.059        5.393       27.387       23.381       27.798      750.025      546.657      772.729        0.441        0.103       81.949       18.094        0.049      326.602       -8.443      865.170
01/02/2015  07:57:00       53.339       35.426       27.357       23.461       29.148       20.258      550.440      849.609      410.393        0.333        0.091       64.031       10.054        0.025      326.628       -8.402      865.171
01/02/2015  07:58:00       27.564       26.587       26.761       30.591       32.370       19.014      935.796     1047.811      361.543        0.226        0.117       38.296       11.007        0.083      326.737       -8.226      865.171
01/02/2015  07:59:00       88.428       53.712       12.683       17.931       18.063       19.426      321.531      326.259      377.389        0.594        0.051      103.462        9.765        0.009      326.596       -8.452      865.174
01/02/2015  08:00:00       62.036       29.152       19.527       27.850       18.719       19.680      775.640      350.391      387.309        0.330        0.076       68.544       14.061        0.042      326.674       -8.326      865.174
01/02/2015  08:01:00       25.694       20.800       22.727       24.324       27.803       18.848      591.639      773.013      355.266        0.166        0.086       33.058        7.435        0.051      326.754       -8.197      865.188
01/02/2015  08:02:00        9.959       -5.191       12.509       15.717       20.668       11.399      247.033      427.178      129.932        0.054        0.040       11.231        9.500        0.716      326.956       -7.869      865.193
01/02/2015  08:03:00        1.515       -4.633       14.925        9.690       16.215       16.356       93.893      262.931      267.529        0.044        0.031        4.874       14.074        8.337      327.026       -7.755      865.208
01/02/2015  08:04:00       -0.929       -0.419       28.652       15.513       16.773        8.967      240.647      281.348       80.407        0.071        0.030        1.019       10.147       99.135      327.141       -7.569      865.218
01/02/2015  08:05:00       -7.161       12.802       32.605       13.946       18.833       11.146      194.484      354.690      124.232        0.098        0.034       14.669       10.535        0.516      327.124       -7.597      865.215
01/02/2015  08:06:00        4.968       20.194       23.685        9.720       14.151        6.540       94.479      200.263       42.773        0.067        0.017       20.796        4.253        0.042      327.039       -7.735      865.218
01/02/2015  08:07:00        0.657      -28.919       12.883       17.477       19.876       14.613      305.458      395.044      213.535        0.096        0.046       28.927        5.947        0.042      327.133       -7.582      865.225
01/02/2015  08:08:00       -0.299       -1.607       20.597       15.191       16.977       14.469      230.758      288.215      209.366        0.058        0.036        1.635       13.895       72.235      327.316       -7.284      865.239
01/02/2015  08:09:00       -9.550       13.027       38.851       10.737       20.168       16.096      115.289      406.764      259.088        0.128        0.039       16.153       16.205        1.006      327.384       -7.176      865.264
01/02/2015  08:10:00       -1.566        1.830       25.480       12.523       14.131       12.717      156.817      199.693      161.715        0.059        0.026        2.409        9.370       15.133      327.358       -7.217      865.293
01/02/2015  08:11:00       -4.944       -2.958       24.123       11.146       14.551        9.204      124.234      211.729       84.711        0.052        0.021        5.761        8.585        2.220      327.449       -7.069      865.323
01/02/2015  08:12:00      -18.131      -16.874        3.722       13.901       18.405       11.673      193.229      338.754      136.252        0.065        0.033       24.768       11.565        0.218      327.114       -7.613      865.353
01/02/2015  08:13:00        8.392      -14.428       14.280       18.593       15.115       13.507      345.693      228.450      182.442        0.062        0.038       16.691       10.800        0.419      327.246       -7.399      865.366
01/02/2015  08:14:00        2.784        0.685       13.734        9.659        5.853       10.630       93.298       34.262      113.003        0.022        0.012        2.867        5.785        4.071      327.492       -6.999      865.379
01/02/2015  08:15:00        5.551       16.804       -6.439        7.915       19.502        9.644       62.649      380.346       93.011        0.045        0.027       17.697        6.421        0.132      327.179       -7.508      865.390
01/02/2015  08:16:00       -6.916       24.897        0.670       13.165       15.336       14.371      173.316      235.201      206.532        0.064        0.031       25.840       11.478        0.197      327.248       -7.396      865.399
01/02/2015  08:17:00        1.301       35.024        6.718       14.660       19.348       12.444      214.902      374.339      154.848        0.101        0.037       35.048       10.031        0.082      327.310       -7.295      865.389
01/02/2015  08:18:00       20.023       24.926       14.258       18.179       18.002       21.316      330.469      324.082      454.363        0.117        0.055       31.973       14.354        0.202      327.236       -7.415      865.376
01/02/2015  08:19:00        6.865       22.047        8.566       17.010       11.378       13.918      289.354      129.464      193.704        0.061        0.031       23.091        8.443        0.134      327.136       -7.577      865.370
01/02/2015  08:20:00       -3.135       29.393       -2.150       12.018       19.116       14.576      144.430      365.436      212.469        0.080        0.036       29.560        8.952        0.092      327.318       -7.282      865.384
01/02/2015  08:21:00        1.361       -1.641       12.856       13.935        8.205        9.300      194.185       67.325       86.484        0.026        0.017        2.132        3.751        3.096      327.631       -6.773      865.397
01/02/2015  08:22:00       27.088       32.747       -2.826       15.989       17.520       25.144      255.650      306.968      632.244        0.150        0.060       42.498       10.982        0.067      327.204       -7.469      865.396
01/02/2015  08:23:00      -13.152       -8.135       -1.699        8.658        9.604        8.770       74.967       92.240       76.906        0.024        0.012       15.465        6.908        0.200      327.178       -7.509      865.395
01/02/2015  08:24:00      -12.141        9.965        7.402       18.055       20.013       13.332      325.985      400.509      177.747        0.060        0.045       15.707        9.074        0.334      327.466       -7.041      865.390
01/02/2015  08:25:00       11.914       19.876       -1.919       15.261       13.829       17.845      232.910      191.246      318.450        0.064        0.037       23.173        6.834        0.087      327.423       -7.111      865.388
01/02/2015  08:26:00       13.917       17.531       -2.136       25.303       14.055       16.018      640.229      197.532      256.583        0.080        0.055       22.383        5.324        0.057      327.496       -6.993      865.401
01/02/2015  08:27:00       69.168       37.172        9.925       25.901       19.891       25.143      670.870      395.669      632.177        0.398        0.085       78.524        7.106        0.008      327.293       -7.322      865.403
01/02/2015  08:28:00       53.662       41.974       28.446       20.554       19.644       22.279      422.479      385.885      496.346        0.338        0.065       68.128       11.966        0.031      327.354       -7.224      865.407
01/02/2015  08:29:00       79.684       47.656        9.587       17.533       16.942       19.134      307.397      287.045      366.126        0.484        0.048       92.848       13.925        0.022      327.150       -7.556      865.414
01/02/2015  08:30:00       39.193       40.241       28.143       25.209       23.353       20.296      635.492      545.343      411.918        0.277        0.080       56.173       16.165        0.083      327.472       -7.031      865.421
01/02/2015  08:31:00       52.192       44.213       15.011       20.459       21.074       25.021      418.581      444.114      626.043        0.320        0.074       68.402       14.780        0.047      327.431       -7.099      865.431
01/02/2015  08:32:00       20.558       26.762       15.012       28.640       23.504       21.397      820.269      552.455      457.811        0.160        0.092       33.746       15.952        0.223      327.600       -6.825      865.443
01/02/2015  08:33:00       56.017       37.850        1.453       25.517       29.114       19.538      651.105      847.633      381.717        0.323        0.094       67.605       13.725        0.041      327.447       -7.073      865.448
01/02/2015  08:34:00       76.578       56.193       21.428       24.103       16.591       24.651      580.952      275.247      607.658        0.547        0.073       94.984       15.365        0.026      327.323       -7.274      865.458
01/02/2015  08:35:00       39.630       23.744        5.798       34.363       28.474       23.118     1180.813      810.787      534.460        0.235        0.126       46.199       23.647        0.262      327.459       -7.052      865.463
01/02/2015  08:36:00       36.095       13.489       12.549       31.228       22.949       25.762      975.166      526.646      663.672        0.190        0.108       38.533       23.153        0.361      327.688       -6.680      865.473
01/02/2015  08:37:00       43.043       46.484       13.734       25.689       15.580       19.707      659.944      242.747      388.366        0.275        0.065       63.352        9.634        0.023      327.513       -6.966      865.477
01/02/2015  08:38:00       63.395       43.194        7.576       26.561       18.967       13.104      705.463      359.745      171.723        0.359        0.062       76.711       11.785        0.024      327.477       -7.024      865.479
01/02/2015  08:39:00       78.871       94.904       17.223       29.996       20.887       32.009      899.787      436.266     1024.550        0.894        0.118      123.399       20.280        0.027      327.452       -7.064      865.479
01/02/2015  08:40:00      105.979       78.489        7.813       26.688       27.732       31.471      712.246      769.066      990.414        0.996        0.124      131.878       18.608        0.020      327.513       -6.965      865.465
01/02/2015  08:41:00       69.719       53.787       12.327       42.385       40.436       25.011     1796.529     1635.038      625.575        0.598        0.203       88.056       13.187        0.022      327.511       -6.969      865.470
01/02/2015  08:42:00       80.671       45.501        4.013       38.607       25.595       25.874     1490.494      655.102      669.464        0.570        0.141       92.618       16.893        0.033      327.563       -6.884      865.465
01/02/2015  08:43:00       47.015       66.944       57.050       40.649       35.946       35.400     1652.354     1292.084     1253.178        0.707        0.210       81.804       22.388        0.075      327.778       -6.533      865.445
01/02/2015  08:44:00       58.661       50.587       58.675       44.540       27.458       20.972     1983.843      753.922      439.820        0.631        0.159       77.460       17.288        0.050      327.683       -6.689      865.439
01/02/2015  08:45:00       60.308       56.917       51.794       53.342       49.204       34.203     2845.370     2421.065     1169.844        0.800        0.322       82.925       34.282        0.171      327.679       -6.695      865.432
01/02/2015  08:46:00       47.611       60.251       31.448       39.722       17.563       31.090     1577.871      308.476      966.576        0.487        0.143       76.792       30.437        0.157      327.531       -6.935      865.438
01/02/2015  08:47:00       73.497       80.837       57.557       43.877       23.059       28.198     1925.167      531.715      795.108        0.925        0.163      109.254       26.273        0.058      327.578       -6.858      865.434
01/02/2015  08:48:00       87.410       54.000       10.913       19.812       16.845       21.714      392.521      283.767      471.497        0.591        0.057      102.745       14.336        0.019      327.403       -7.144      865.437
01/02/2015  08:49:00       67.972       57.679       29.519       31.820       37.210       29.116     1012.512     1384.588      847.716        0.603        0.162       89.147       20.683        0.054      327.654       -6.736      865.433
01/02/2015  08:50:00       37.870       44.286       44.888       29.148       27.938       26.766      849.633      780.522      716.414        0.388        0.117       58.270       17.692        0.092      327.750       -6.578      865.428
01/02/2015  08:51:00       79.665       61.724       59.277       37.261       40.258       36.848     1388.369     1620.740     1357.795        0.902        0.218      100.778       23.067        0.052      327.621       -6.789      865.425
01/02/2015  08:52:00       99.787       72.946       23.072       25.368       21.808       18.874      643.560      475.583      356.239        0.864        0.074      123.607        9.985        0.007      327.564       -6.882      865.431
01/02/2015  08:53:00       24.569       66.271       73.308       45.976       35.787       31.843     2113.755     1280.721     1013.966        0.739        0.220       70.678       30.588        0.187      328.043       -6.101      865.434
01/02/2015  08:54:00       66.311       43.807       31.832       39.198       42.484       36.045     1536.505     1804.918     1299.266        0.598        0.232       79.475       32.553        0.168      327.803       -6.492      865.454
01/02/2015  08:55:00       63.979       49.268       55.444       43.317       32.197       34.526     1876.345     1036.652     1192.059        0.685        0.205       80.750       19.973        0.061      327.881       -6.366      865.456
01/02/2015  08:56:00       40.069       76.077       75.217       34.271       34.495       20.644     1174.527     1189.929      426.166        0.792        0.140       85.984       13.953        0.026      327.973       -6.217      865.461
01/02/2015  08:57:00       28.312       21.215       37.925       30.142       56.247       33.241      908.560     3163.678     1104.973        0.393        0.259       35.378       38.570        1.189      328.011       -6.155      865.464
01/02/2015  08:58:00       47.390       16.487       23.545       44.686       45.488       35.087     1996.850     2069.157     1231.126        0.418        0.265       50.176       25.812        0.265      327.978       -6.208      865.451
01/02/2015  08:59:00       92.186       93.577       42.409       29.278       37.297       37.367      857.173     1391.029     1396.310        1.135        0.182      131.358       21.300        0.026      327.871       -6.383      865.443
01/02/2015  09:00:00       81.868       75.709       36.379       45.039       29.183       48.421     2028.508      851.653     2344.596        0.949        0.261      111.509       33.567        0.091      327.899       -6.338      865.444
01/02/2015  09:01:00      100.323       83.110       52.630       41.927       36.955       29.819     1757.876     1365.690      889.166        1.188        0.201      130.276       22.037        0.029      327.939       -6.273      865.432
01/02/2015  09:02:00      113.838       75.315       36.814       38.102       22.632       31.942     1451.760      512.200     1020.299        1.148        0.149      136.497       23.754        0.030      327.840       -6.433      865.444
01/02/2015  09:03:00       90.784       51.316       12.176       31.033       28.781       28.985      963.034      828.321      840.138        0.683        0.132      104.283       11.320        0.012      327.991       -6.188      865.445
01/02/2015  09:04:00      113.552       79.189       21.262       40.486       32.430       37.108     1639.125     1051.731     1377.006        1.184        0.203      138.438       22.321        0.026      327.986       -6.196      865.427
01/02/2015  09:05:00       88.449       57.867       40.548       53.068       36.589       42.249     2816.215     1338.764     1785.004        0.938        0.297      105.697       36.702        0.121      328.166       -5.902      865.409
01/02/2015  09:06:00       88.751       78.107       52.835       45.271       47.075       37.120     2049.477     2216.012     1377.914        1.121        0.282      118.226       29.532        0.062      327.965       -6.229      865.405
01/02/2015  09:07:00       32.395       31.702       35.986       38.434       28.402       23.752     1477.157      806.700      564.177        0.310        0.142       45.326       14.651        0.104      328.257       -5.754      865.411
01/02/2015  09:08:00       13.040       25.993       62.652       32.327       43.552       35.025     1045.061     1896.769     1226.779        0.447        0.208       29.080       21.503        0.547      328.399       -5.523      865.411
01/02/2015  09:09:00       59.124      -30.010       22.840       34.938       60.901       38.484     1220.653     3708.918     1481.051        0.566        0.321       66.305       46.506        0.492      328.069       -6.061      865.424
01/02/2015  09:10:00       38.186       39.429       54.086       29.310       38.886       28.890      859.058     1512.130      834.603        0.457        0.160       54.889       29.476        0.288      328.376       -5.558      865.422
01/02/2015  09:11:00       24.893       70.075       70.738       41.545       37.053       28.668     1725.960     1372.916      821.836        0.723        0.196       74.366       29.986        0.163      328.294       -5.694      865.423
01/02/2015  09:12:00       51.666       68.097       62.768       50.358       49.092       40.719     2535.915     2410.003     1658.048        0.892        0.330       85.479       31.864        0.139      328.266       -5.739      865.424
01/02/2015  09:13:00      119.949       74.213        5.293       38.184       38.519       31.743     1458.002     1483.677     1007.645        1.194        0.197      141.051       21.254        0.023      328.218       -5.817      865.426
01/02/2015  09:14:00       81.938       83.157       24.722       37.267       37.264       38.645     1388.814     1388.577     1493.426        0.925        0.214      116.743       24.971        0.046      328.328       -5.639      865.422
01/02/2015  09:15:00       12.043       53.944       73.212       35.304       48.390       38.012     1246.364     2341.560     1444.931        0.672        0.252       55.272       35.685        0.417      328.683       -5.060      865.424
01/02/2015  09:16:00       41.489       91.812       98.079       44.041       38.925       27.232     1939.608     1515.127      741.593        1.198        0.210      100.751       22.860        0.051      328.361       -5.584      865.426
01/02/2015  09:17:00       78.360       80.029       52.606       33.558       31.628       35.714     1126.111     1000.334     1275.523        0.936        0.170      112.005       22.102        0.039      328.241       -5.780      865.444
01/02/2015  09:18:00       44.209       54.193       78.318       30.764       54.755       39.618      946.394     2998.159     1569.601        0.827        0.276       69.938       38.590        0.304      328.233       -5.793      865.441
01/02/2015  09:19:00        6.181       53.501       67.554       21.442       56.235       37.402      459.741     3162.329     1398.920        0.624        0.251       53.857       39.105        0.527      328.611       -5.177      865.444
01/02/2015  09:20:00       47.640       49.512       58.980       40.407       68.993       43.558     1632.719     4759.994     1897.341        0.824        0.415       68.710       45.123        0.431      328.496       -5.365      865.451
01/02/2015  09:21:00       27.727        1.167       26.076       34.183       38.471       28.046     1168.456     1479.991      786.579        0.244        0.172       27.752       27.678        0.995      328.754       -4.943      865.465
01/02/2015  09:22:00        8.320       30.527       52.782       31.785       39.475       28.563     1010.282     1558.279      815.863        0.359        0.169       31.641       23.586        0.556      328.941       -4.638      865.458
01/02/2015  09:23:00       30.133      -23.733       43.763       34.160       79.401       36.502     1166.928     6304.493     1332.398        0.609        0.440       38.357       41.269        1.158      328.609       -5.180      865.457
01/02/2015  09:24:00       67.481       72.046       61.330       43.088       29.103       37.114     1856.543      846.977     1377.471        0.879        0.204       98.713       24.678        0.062      328.456       -5.431      865.465
01/02/2015  09:25:00       72.779       99.416       67.794       53.805       41.016       43.170     2895.011     1682.327     1863.667        1.311        0.322      123.209       39.875        0.105      328.273       -5.729      865.464
01/02/2015  09:26:00       84.125       73.441       64.832       42.169       45.036       45.720     1778.223     2028.235     2090.361        1.128        0.295      111.672       35.915        0.103      328.274       -5.725      865.466
01/02/2015  09:27:00       97.609       87.088       54.258       25.908       24.940       31.658      671.248      622.026     1002.222        1.118        0.115      130.812       20.379        0.024      328.135       -5.953      865.469
01/02/2015  09:28:00       83.779       71.874       27.177       46.046       29.328       33.033     2120.224      860.146     1091.159        0.850        0.204      110.384       26.662        0.058      328.358       -5.591      865.464
01/02/2015  09:29:00       41.074       42.440       35.093       55.539       49.493       31.234     3084.636     2449.518      975.534        0.561        0.325       59.061       14.734        0.062      328.718       -5.003      865.460
01/02/2015  09:30:00       16.871       -0.642       18.553       32.722       46.211       33.448     1070.724     2135.426     1118.793        0.248        0.216       16.883       20.997        1.547      328.904       -4.700      865.470
01/02/2015  09:31:00        6.404       13.424       39.697       38.393       44.946       27.004     1474.021     2020.128      729.234        0.301        0.211       14.873       21.900        2.168      329.091       -4.394      865.468
01/02/2015  09:32:00       65.251      -67.695        9.490       52.760       53.458       30.901     2783.576     2857.716      954.850        0.776        0.330       94.023       39.113        0.173      328.570       -5.244      865.482
01/02/2015  09:33:00       40.795       54.878       66.506       54.408       63.513       35.419     2960.179     4033.880     1254.493        0.867        0.412       68.380       39.823        0.339      328.695       -5.040      865.490
01/02/2015  09:34:00       56.203      -36.551       -2.213       31.930       17.663       21.110     1019.498      311.995      445.633        0.314        0.089       67.043       10.944        0.027      328.380       -5.553      865.492
01/02/2015  09:35:00       40.499       43.863       32.982       22.775       21.879       16.974      518.681      478.681      288.117        0.297        0.064       59.700       14.108        0.056      328.502       -5.355      865.475
01/02/2015  09:36:00       81.711       54.756       30.414       26.293       24.199       29.961      691.342      585.580      897.643        0.639        0.109       98.361       16.556        0.028      328.558       -5.263      865.479
01/02/2015  09:37:00       10.405       19.286       30.481       42.793       40.889       23.142     1831.273     1671.935      535.552        0.272        0.202       21.913       18.658        0.725      329.094       -4.389      865.479
01/02/2015  09:38:00       11.529       13.970       32.510       37.366       42.202       39.341     1396.223     1781.050     1547.733        0.305        0.236       18.113       27.405        2.289      329.172       -4.261      865.471
01/02/2015  09:39:00       27.482       11.340       52.555       47.309       66.224       47.358     2238.145     4385.592     2242.796        0.625        0.443       29.729       44.585        2.249      329.080       -4.412      865.479
01/02/2015  09:40:00       18.401      -35.497       40.274       19.417       65.752       35.104      377.030     4323.296     1232.302        0.458        0.297       39.983       43.022        1.158      328.651       -5.111      865.493
01/02/2015  09:41:00        2.575        1.868       43.318       30.827       63.539       49.161      950.309     4037.226     2416.765        0.464        0.370        3.181       29.990       88.882      328.937       -4.646      865.504
01/02/2015  09:42:00       67.241       90.262       76.304       42.805       33.733       32.049     1832.259     1137.904     1027.155        1.124        0.200      112.555       25.852        0.053      328.689       -5.049      865.520
01/02/2015  09:43:00       86.558       69.304       12.951       24.746       22.239       29.213      612.360      494.577      853.406        0.721        0.098      110.885       18.338        0.027      328.424       -5.481      865.535
01/02/2015  09:44:00       13.622       22.702       -1.857       16.072       19.578       10.630      258.318      383.287      112.997        0.073        0.038       26.475        7.000        0.070      328.638       -5.133      865.535
01/02/2015  09:45:00       17.709        5.460       29.652       31.633       58.635       28.276     1000.628     3438.106      799.536        0.323        0.262       18.531       19.796        1.141      329.130       -4.330      865.540
01/02/2015  09:46:00       13.256      -33.008       10.268       42.629       56.157       29.025     1817.248     3153.629      842.438        0.359        0.291       35.570       13.898        0.153      329.264       -4.112      865.546
01/02/2015  09:47:00       66.393      -48.687        5.627       45.046       42.040       35.376     2029.114     1767.352     1251.460        0.593        0.252       82.332       23.329        0.080      328.929       -4.659      865.557
01/02/2015  09:48:00       38.927       12.554       48.521       44.372       39.786       30.613     1968.919     1582.965      937.126        0.426        0.224       40.902       26.924        0.433      329.134       -4.323      865.551
01/02/2015  09:49:00       59.838        1.906       12.260       38.397       29.335       34.694     1474.365      860.541     1203.649        0.364        0.177       59.868       25.880        0.187      328.713       -5.011      865.557
01/02/2015  09:50:00      -10.153       -6.517        6.937       21.505       17.394       17.005      462.485      302.553      289.162        0.062        0.053       12.064       13.319        1.219      328.918       -4.676      865.554
01/02/2015  09:51:00       23.699       56.941       12.917       34.004       20.601       28.843     1156.259      424.409      831.933        0.319        0.121       61.676       17.773        0.083      328.985       -4.567      865.546
01/02/2015  09:52:00       53.164       72.862      -12.604       41.466       32.372       29.720     1719.463     1047.945      883.253        0.597        0.183       90.195        8.208        0.008      329.120       -4.347      865.553
01/02/2015  09:53:00      133.116       87.711       16.353       42.800       34.560       39.382     1831.811     1194.404     1550.919        1.513        0.229      159.415       27.865        0.031      328.875       -4.747      865.563
01/02/2015  09:54:00       76.451      105.351       53.817       59.681       44.455       48.834     3561.853     1976.278     2384.776        1.388        0.396      130.167       39.900        0.094      329.014       -4.519      865.549
01/02/2015  09:55:00       48.837       74.121       32.392       45.597       42.333       41.212     2079.072     1792.072     1698.447        0.725        0.278       88.764       33.853        0.145      329.201       -4.214      865.538
01/02/2015  09:56:00       94.903       75.566       12.199       32.494       36.494       41.656     1055.885     1331.841     1735.244        0.949        0.206      121.313       29.704        0.060      328.930       -4.655      865.529
01/02/2015  09:57:00       84.198       89.333       -2.937       53.003       42.123       34.582     2809.317     1774.314     1195.899        1.043        0.289      122.759       28.284        0.053      328.894       -4.716      865.521
01/02/2015  09:58:00      153.988      113.342       13.678       42.714       33.701       37.906     1824.518     1135.730     1436.845        2.057        0.220      191.203       22.034        0.013      328.943       -4.635      865.531
01/02/2015  09:59:00      126.439      106.321        2.969       42.908       35.715       32.990     1841.131     1275.580     1088.349        1.575        0.210      165.200       14.725        0.008      328.640       -5.131      865.531
01/02/2015  10:00:00      117.225       89.020       14.658       39.770       31.395       36.461     1581.626      985.635     1329.429        1.289        0.195      147.195       19.283        0.017      328.864       -4.766      865.516
01/02/2015  10:01:00      121.465       87.099       20.295       35.944       38.304       41.678     1291.988     1467.204     1737.036        1.362        0.225      149.466       28.771        0.037      328.687       -5.054      865.520
01/02/2015  10:02:00      111.187       92.521        8.954       37.302       28.513       27.800     1391.448      812.964      772.843        1.199        0.149      144.646       13.499        0.009      328.694       -5.042      865.526
01/02/2015  10:03:00       92.769       68.562       -3.702       42.317       29.605       37.736     1790.749      876.451     1423.974        0.871        0.205      115.356       17.018        0.022      328.972       -4.587      865.532
01/02/2015  10:04:00       95.487       61.090        0.389       43.690       43.342       34.762     1908.786     1878.523     1208.392        0.892        0.250      113.356       15.777        0.019      329.040       -4.477      865.542
01/02/2015  10:05:00       95.903       56.452        9.745       59.824       41.209       38.499     3578.894     1698.202     1482.177        0.962        0.338      111.284       16.588        0.022      329.066       -4.435      865.542
01/02/2015  10:06:00        8.946       71.401       -4.189       30.392       59.103       26.149      923.678     3493.125      683.779        0.515        0.255       71.959       26.911        0.140      329.089       -4.396      865.551
01/02/2015  10:07:00       96.118       54.591        5.125       44.556       30.339       26.418     1985.216      920.472      697.890        0.792        0.180      110.539       24.310        0.048      329.070       -4.429      865.575
01/02/2015  10:08:00       64.042       61.175        1.463       32.541       23.165       24.210     1058.913      536.619      586.146        0.501        0.109       88.565       11.732        0.018      329.040       -4.476      865.600
01/02/2015  10:09:00        5.170       17.307       -8.299       31.609       40.505       16.666      999.130     1640.644      277.766        0.166        0.146       18.063       11.633        0.415      329.475       -3.767      865.598
01/02/2015  10:10:00       -3.155      -21.059       25.833       29.581       43.165       17.984      875.009     1863.253      323.410        0.209        0.153       21.294       22.955        1.162      329.276       -4.092      865.592
01/02/2015  10:11:00       23.177       47.841       23.958       30.555       42.753       39.968      933.608     1827.857     1597.460        0.388        0.218       53.159       28.946        0.296      329.463       -3.785      865.578
01/02/2015  10:12:00       15.598       82.090       92.931       27.421       38.830       19.809      751.919     1507.801      392.399        0.913        0.133       83.559       21.870        0.069      329.365       -3.945      865.566
01/02/2015  10:13:00       58.020       58.950       48.415       47.360       50.091       47.122     2242.943     2509.085     2220.452        0.808        0.349       82.713       41.062        0.246      329.212       -4.199      865.566
01/02/2015  10:14:00       95.657       72.926       38.411       61.293       35.968       42.851     3756.802     1293.728     1836.229        1.141        0.344      120.285       37.958        0.100      329.248       -4.136      865.572
01/02/2015  10:15:00       43.298       97.473       80.942       60.706       27.592       31.459     3685.233      761.339      989.642        1.168        0.272      106.657       35.273        0.109      329.408       -3.877      865.575
01/02/2015  10:16:00       70.250       79.339       45.056       62.347       33.840       33.495     3887.170     1145.162     1121.901        0.971        0.308      105.970       36.876        0.121      329.298       -4.055      865.575
01/02/2015  10:17:00        9.440       27.458       54.399       34.479       51.445       37.876     1188.792     2646.587     1434.559        0.454        0.263       29.036       35.984        1.536      329.722       -3.362      865.579
01/02/2015  10:18:00       32.552      111.166       90.415       43.958       31.601       33.882     1932.294      998.639     1147.972        1.283        0.204      115.834       30.939        0.071      329.440       -3.822      865.585
01/02/2015  10:19:00       68.934       58.126       49.784       42.998       31.101       39.851     1848.816      967.299     1588.065        0.751        0.220       90.169       34.094        0.143      329.278       -4.088      865.597
01/02/2015  10:20:00       97.104       73.021       38.711       37.512       32.907       32.944     1407.134     1082.846     1085.283        0.992        0.179      121.496       17.277        0.020      329.325       -4.011      865.590
01/02/2015  10:21:00       46.598        9.973       -2.703       48.154       84.108       31.322     2318.772     7074.163      981.074        0.632        0.519       47.653       26.638        0.312      329.314       -4.030      865.584
01/02/2015  10:22:00       59.712       18.380       46.012       50.125       52.312       44.722     2512.485     2736.499     2000.096        0.663        0.362       62.477       40.701        0.424      329.548       -3.646      865.583
01/02/2015  10:23:00       77.356       55.692       34.615       24.942       38.683       32.573      622.093     1496.380     1060.994        0.673        0.159       95.318       15.821        0.028      329.240       -4.151      865.583
01/02/2015  10:24:00       89.957      119.043       77.196       43.477       30.868       38.709     1890.233      952.842     1498.410        1.628        0.217      149.210       28.537        0.037      329.352       -3.968      865.571
01/02/2015  10:25:00      112.560       87.290       49.992       23.816       18.585       24.073      567.208      345.411      579.510        1.214        0.075      142.441       11.299        0.006      329.158       -4.284      865.553
01/02/2015  10:26:00       39.426       11.166       34.061       40.513       60.798       34.296     1641.343     3696.350     1176.222        0.468        0.326       40.977       27.720        0.458      329.674       -3.440      865.548
01/02/2015  10:27:00       48.733       44.905       43.083       49.303       61.888       36.570     2430.826     3830.093     1337.337        0.692        0.380       66.267       43.463        0.430      329.733       -3.344      865.526
01/02/2015  10:28:00       11.374      -36.816       16.827       30.348       61.426       43.081      920.998     3773.155     1855.950        0.416        0.328       38.533       40.216        1.089      329.747       -3.322      865.526
01/02/2015  10:29:00       27.477      -68.731       -7.682       33.512       33.845       31.098     1123.052     1145.488      967.057        0.439        0.162       74.020       22.167        0.090      329.589       -3.580      865.506
01/02/2015  10:30:00       22.705      -31.851       11.539       36.238       77.293       38.416     1313.166     5974.263     1475.763        0.521        0.438       39.116       45.042        1.326      329.919       -3.040      865.479
01/02/2015  10:31:00       22.013       17.644       62.415       43.731       40.657       32.164     1912.398     1653.026     1034.533        0.464        0.230       28.212       13.264        0.221      330.186       -2.602      865.462
01/02/2015  10:32:00       52.524      -52.903       17.042       50.046       63.957       41.560     2504.570     4090.551     1727.244        0.708        0.416       74.548       47.029        0.398      329.995       -2.914      865.433
01/02/2015  10:33:00       50.252     -108.605      -14.759       49.084       53.870       37.182     2409.242     2901.979     1382.503        1.061        0.335      119.667       36.356        0.092      329.851       -3.150      865.416
01/02/2015  10:34:00       43.039      -67.352        5.116       62.365       65.721       39.578     3889.338     4319.191     1566.422        0.809        0.489       79.929       38.633        0.234      329.910       -3.055      865.391
01/02/2015  10:35:00       -3.310      -19.200       37.596       43.794       61.601       31.889     1917.923     3794.729     1016.940        0.426        0.336       19.483       22.210        1.299      330.161       -2.643      865.379
01/02/2015  10:36:00       74.661      -91.673        6.407       72.425       77.231       48.761     5245.329     5964.669     2377.595        1.380        0.679      118.229       43.549        0.136      329.810       -3.218      865.363
01/02/2015  10:37:00      -40.532      -41.129       16.442       54.025       36.455       28.584     2918.748     1328.967      817.048        0.433        0.253       57.745       20.733        0.129      329.908       -3.058      865.357
01/02/2015  10:38:00       25.357      -48.074       30.018       58.210      104.383       64.629     3388.462    10895.772     4176.916        1.115        0.923       54.352       73.825        1.845      330.133       -2.690      865.341
01/02/2015  10:39:00       11.361      -91.302       19.458       60.801      102.230       61.203     3696.798    10450.931     3745.797        1.337        0.895       92.006       70.143        0.581      329.994       -2.916      865.322
01/02/2015  10:40:00       43.440      -19.032       32.205       54.446       88.083       56.767     2964.388     7758.618     3222.472        0.861        0.697       47.426       69.185        2.128      329.966       -2.963      865.309
01/02/2015  10:41:00      -22.142      -70.602        3.756       42.406       50.287       25.935     1798.231     2528.757      672.643        0.524        0.250       73.993       23.976        0.105      329.890       -3.087      865.299
01/02/2015  10:42:00      -35.948      -44.393        0.981       30.549       32.690       26.678      933.227     1068.657      711.742        0.299        0.136       57.122       22.599        0.157      330.033       -2.852      865.277
01/02/2015  10:43:00      -59.852      -11.330       13.077       35.682       35.382       21.445     1273.218     1251.879      459.905        0.343        0.149       60.915       18.022        0.088      330.028       -2.861      865.261
01/02/2015  10:44:00      -66.094      -42.121       -4.910       30.825       27.651       19.161      950.206      764.566      367.128        0.412        0.104       78.374       15.997        0.042      329.765       -3.292      865.224
01/02/2015  10:45:00      -67.161       16.184       10.912       34.098       29.178       20.699     1162.640      851.359      428.448        0.367        0.122       69.083       19.035        0.076      329.800       -3.234      865.196
01/02/2015  10:46:00      -30.093       22.910       -2.217       31.606       25.886       21.268      998.926      670.098      452.322        0.178        0.106       37.822       10.648        0.079      330.261       -2.480      865.167
01/02/2015  10:47:00        5.054      -22.071       23.326       30.481       39.135       31.967      929.072     1531.541     1021.875        0.227        0.174       22.642       20.217        0.797      330.461       -2.151      865.143
01/02/2015  10:48:00        0.433       27.208       39.281       31.401       34.148       28.777      986.011     1166.067      828.143        0.263        0.149       27.212       11.876        0.190      330.658       -1.829      865.120
01/02/2015  10:49:00       60.788      -80.207       11.529       58.388       78.498       45.843     3409.107     6161.910     2101.584        1.096        0.584      100.640       44.495        0.195      330.374       -2.294      865.089
01/02/2015  10:50:00       -3.030     -105.439        0.054       88.484       60.912       41.585     7829.470     3710.229     1729.340        1.220        0.663      105.483       27.787        0.069      330.140       -2.679      865.086
01/02/2015  10:51:00        5.433        4.447       33.661       43.167       31.394       27.490     1863.394      985.578      755.725        0.239        0.180        7.021       28.365       16.321      330.246       -2.504      865.080
01/02/2015  10:52:00      -21.881       -5.680       33.519       24.356       36.735       25.599      593.233     1349.464      655.304        0.212        0.130       22.606       22.742        1.012      330.606       -1.913      865.055
01/02/2015  10:53:00       17.113        7.321       58.254       51.091       68.222       42.553     2610.321     4654.221     1810.724        0.641        0.454       18.613       37.279        4.011      330.526       -2.044      865.043
01/02/2015  10:54:00       88.670      -34.459       19.086       55.430       89.463       57.780     3072.478     8003.615     3338.474        1.191        0.721       95.131       63.180        0.441      330.309       -2.400      865.011
01/02/2015  10:55:00       22.513       22.051       72.133       42.981       68.887       34.404     1847.386     4745.374     1183.637        0.698        0.389       31.513       38.988        1.531      330.480       -2.119      864.977
01/02/2015  10:56:00       15.637      -79.326       12.097       51.327       69.649       44.060     2634.503     4850.980     1941.260        0.805        0.471       80.853       32.750        0.164      330.471       -2.134      864.957
01/02/2015  10:57:00      -72.051      -54.227        0.077       42.618       36.841       19.510     1816.305     1357.276      380.628        0.584        0.178       90.177        5.958        0.004      330.008       -2.893      864.949
01/02/2015  10:58:00      -19.325      -10.317        5.818       26.562       31.284       23.604      705.537      978.670      557.163        0.138        0.112       21.907       18.918        0.746      330.555       -1.996      864.935
01/02/2015  10:59:00      -57.200      -38.925        5.317       44.576       28.788       20.805     1986.986      828.738      432.862        0.403        0.162       69.188       13.495        0.038      330.257       -2.487      864.927
01/02/2015  11:00:00      -83.748      -49.536        6.098       43.678       35.472       19.272     1907.732     1258.277      371.428        0.652        0.177       97.301       18.827        0.037      330.104       -2.736      864.913
01/02/2015  11:01:00      -32.611       -9.892        7.099       18.519       17.016       14.873      342.955      289.533      221.196        0.103        0.043       34.078       11.654        0.117      330.434       -2.195      864.896
01/02/2015  11:02:00       -1.864       -9.833        4.920       17.155       16.429       15.951      294.285      269.920      254.430        0.047        0.041       10.008        8.153        0.664      330.613       -1.900      864.867
01/02/2015  11:03:00      -57.517       -6.216      -12.235       33.560       15.139       12.712     1126.257      229.186      161.597        0.251        0.076       57.852       10.384        0.032      330.207       -2.568      864.839
01/02/2015  11:04:00      -21.435      -37.081       13.249       60.546       39.086       40.761     3665.820     1527.731     1661.469        0.443        0.343       42.831       19.834        0.214      330.736       -1.699      864.813
01/02/2015  11:05:00      -22.039      -18.375       32.502       31.553       52.279       34.293      995.612     2733.059     1176.004        0.339        0.245       28.695       25.999        0.821      330.998       -1.269      864.789
01/02/2015  11:06:00      -22.476      -12.834        9.826       22.777       31.471       23.374      518.792      990.412      546.322        0.141        0.103       25.882       18.679        0.521      330.755       -1.669      864.782
01/02/2015  11:07:00      -40.119       21.685       26.998       37.491       34.455       30.737     1405.569     1187.115      944.756        0.317        0.177       45.605       28.112        0.380      330.820       -1.563      864.755
01/02/2015  11:08:00      -52.930      -45.236        4.956       40.514       44.238       22.950     1641.368     1957.014      526.705        0.450        0.206       69.627       19.368        0.077      330.601       -1.920      864.740
01/02/2015  11:09:00     -123.632      -42.274      -10.137       32.803       52.370       19.248     1076.048     2742.598      370.479        1.068        0.209      130.660       16.562        0.016      330.079       -2.777      864.720
01/02/2015  11:10:00      -90.643      -49.675        1.551       39.783       37.780       23.431     1582.714     1427.343      549.029        0.712        0.178      103.362       25.379        0.060      330.196       -2.585      864.707
01/02/2015  11:11:00     -117.566      -41.185       -7.844       23.407       24.949       21.520      547.893      622.464      463.097        0.861        0.082      124.571       10.246        0.007      330.136       -2.685      864.685
01/02/2015  11:12:00     -126.751       14.371      -17.614       25.785       30.754       23.168      664.880      945.795      536.733        0.936        0.107      127.563       10.279        0.006      330.311       -2.397      864.687
01/02/2015  11:13:00      -60.573       -4.115      -11.089       33.073       29.102       15.587     1093.796      846.901      242.951        0.300        0.109       60.712        5.883        0.009      330.393       -2.262      864.671
01/02/2015  11:14:00      -66.203      -36.714       -7.045       30.142       22.476       20.134      908.530      505.153      405.390        0.380        0.091       75.702       19.574        0.067      330.453       -2.165      864.665
01/02/2015  11:15:00      -54.309      -47.598        7.609       39.126       34.536       24.482     1530.816     1192.745      599.352        0.430        0.166       72.215       25.225        0.122      330.515       -2.064      864.645
01/02/2015  11:16:00      -38.349      -34.535        9.512       54.047       29.069       29.308     2921.066      845.008      858.941        0.369        0.231       51.607       31.839        0.381      330.604       -1.916      864.636
01/02/2015  11:17:00      -97.757      -30.910       -6.197       23.278       35.573       18.309      541.867     1265.440      335.212        0.635        0.107      102.527       13.409        0.017      330.349       -2.335      864.617
01/02/2015  11:18:00      -16.576      -17.368        6.160       34.707       19.504       15.758     1204.568      380.410      248.316        0.122        0.092       24.008        9.613        0.160      330.823       -1.558      864.598
01/02/2015  11:19:00      -35.595       -6.263       -1.507       24.913       34.686       18.404      620.647     1203.145      338.699        0.174        0.108       36.141       16.010        0.196      330.678       -1.795      864.584
01/02/2015  11:20:00      -33.232       -7.980       -1.500       24.351       19.231       16.909      592.982      369.836      285.902        0.121        0.062       34.177        8.336        0.059      330.685       -1.784      864.556
01/02/2015  11:21:00      -66.672      -22.392       -2.048       28.670       20.471       15.161      821.944      419.056      229.862        0.321        0.074       70.332       16.450        0.055      330.447       -2.176      864.522
01/02/2015  11:22:00      -24.045        2.152        2.163       42.826       23.693       19.016     1834.065      561.357      361.603        0.167        0.138       24.141       17.562        0.529      330.641       -1.856      864.505
01/02/2015  11:23:00      -37.796       17.267       -0.094       60.387       40.685       22.414     3646.575     1655.270      502.373        0.376        0.290       41.553       21.195        0.260      330.722       -1.722      864.466
01/02/2015  11:24:00       48.339       52.683        9.763       32.667       28.025       24.318     1067.139      785.382      591.388        0.383        0.122       71.499       11.304        0.025      331.207       -0.926      864.441
01/02/2015  11:25:00       27.151       60.325       71.704       42.683       73.578       49.398     1821.798     5413.651     2440.173        0.959        0.484       66.153       53.458        0.653      331.160       -1.004      864.410
01/02/2015  11:26:00       27.322       91.178      100.483       65.962       53.102       39.472     4351.047     2819.797     1558.037        1.394        0.436       95.184       36.214        0.145      331.003       -1.263      864.381
01/02/2015  11:27:00      141.252      119.211       59.282       64.348       47.154       54.538     4140.656     2223.479     2974.395        2.351        0.467      184.833       38.032        0.042      330.736       -1.702      864.361
01/02/2015  11:28:00      106.946       59.329       23.939       65.402       46.532       44.206     4277.375     2165.197     1954.187        1.196        0.420      122.301       28.474        0.054      330.803       -1.591      864.331
01/02/2015  11:29:00        7.468       58.699       63.922       32.032       46.937       31.471     1026.059     2203.075      990.433        0.590        0.211       59.172       21.346        0.130      331.219       -0.907      864.308
01/02/2015  11:30:00       44.633      106.191       76.189       44.303       32.401       34.804     1962.797     1049.821     1211.351        1.165        0.211      115.190       26.343        0.052      330.924       -1.391      864.288
01/02/2015  11:31:00       64.281       50.528      -11.711       43.356       49.779       30.485     1879.739     2477.983      929.309        0.605        0.264       81.763       26.967        0.109      330.846       -1.520      864.287
01/02/2015  11:32:00       18.786       -4.014       12.297       48.224       58.194       30.148     2325.553     3386.497      908.892        0.357        0.331       19.210       26.650        1.925      331.103       -1.097      864.296
01/02/2015  11:33:00       38.335      -28.703        9.815       58.678       76.016       29.175     3443.109     5778.378      851.157        0.623        0.504       47.890       35.806        0.559      331.274       -0.816      864.297
01/02/2015  11:34:00       70.101       73.150       69.759       70.330       59.834       51.575     4946.362     3580.049     2659.973        1.316        0.559      101.317       33.809        0.111      331.115       -1.078      864.308
01/02/2015  11:35:00      101.759       95.726        3.326       43.505       37.231       31.636     1892.707     1386.162     1000.863        1.190        0.214      139.708       17.232        0.015      330.747       -1.683      864.322
01/02/2015  11:36:00      102.598       69.998        5.050       43.131       29.504       28.492     1860.308      870.506      811.767        0.950        0.177      124.202        7.530        0.004      330.754       -1.671      864.322
01/02/2015  11:37:00       69.231       65.053        3.809       30.944       35.584       32.502      957.535     1266.187     1056.351        0.616        0.164       94.998       21.318        0.050      330.731       -1.708      864.324
01/02/2015  11:38:00        7.608       36.837       11.258       22.347       23.321       20.107      499.388      543.849      404.279        0.149        0.072       37.615       16.571        0.194      330.985       -1.291      864.305
01/02/2015  11:39:00       46.738       28.475       43.128       46.637       62.103       34.417     2175.053     3856.829     1184.519        0.603        0.361       54.729       19.110        0.122      331.212       -0.917      864.275
01/02/2015  11:40:00       10.963       43.393       63.587       40.645       64.395       36.708     1652.019     4146.779     1347.482        0.659        0.357       44.756       34.399        0.591      331.447       -0.530      864.248
01/02/2015  11:41:00       14.233       61.093       29.779       37.813       59.644       33.452     1429.809     3557.447     1119.026        0.546        0.305       62.729       36.273        0.334      331.714       -0.093      864.220
01/02/2015  11:42:00        0.930       57.587       48.678       41.249       46.435       29.282     1701.484     2156.210      857.449        0.520        0.236       57.594       17.027        0.087      331.585       -0.303      864.206
01/02/2015  11:43:00       21.711       39.170       29.049       25.621       31.145       28.317      656.449      970.028      801.876        0.264        0.121       44.785       15.586        0.121      331.366       -0.666      864.165
01/02/2015  11:44:00       26.997       13.460       39.749       58.050       39.150       25.891     3369.808     1532.756      670.350        0.403        0.279       30.166       26.358        0.763      331.615       -0.255      864.138
01/02/2015  11:45:00       50.839       56.578       37.491       49.697       33.948       38.262     2469.809     1152.478     1464.014        0.614        0.254       76.064       17.971        0.056      331.440       -0.544      864.108
01/02/2015  11:46:00       18.936       43.246       31.414       45.859       39.871       34.220     2103.092     1589.680     1171.028        0.404        0.243       47.210       24.720        0.274      331.570       -0.330      864.094
01/02/2015  11:47:00       28.871       57.210       64.160       45.337       41.781       60.423     2055.433     1745.631     3650.975        0.784        0.373       64.082       35.883        0.314      331.451       -0.524      864.053
01/02/2015  11:48:00       80.260      116.849       93.876       54.310       38.721       47.689     2949.614     1499.305     2274.283        1.781        0.336      141.758       34.779        0.060      330.985       -1.292      864.040
01/02/2015  11:49:00      110.594       72.241       57.773       66.487       61.927       38.068     4420.455     3834.987     1449.167        1.524        0.485      132.098       37.365        0.080      330.986       -1.290      864.030
01/02/2015  11:50:00       89.872       41.948       41.709       53.191       38.827       39.264     2829.313     1507.511     1541.695        0.873        0.294       99.179       13.839        0.019      330.987       -1.289      864.017
01/02/2015  11:51:00       58.505       11.614       18.885       38.626       32.788       25.956     1491.978     1075.066      673.695        0.358        0.162       59.646       23.061        0.149      331.136       -1.044      864.015
01/02/2015  11:52:00       49.266       94.394        0.494       46.949       64.444       36.826     2204.243     4153.020     1356.138        0.952        0.386      106.478       40.829        0.147      331.051       -1.183      863.999
01/02/2015  11:53:00       30.230      115.844       -9.008       39.235       43.087       27.434     1539.421     1856.455      752.602        0.928        0.207      119.723       26.008        0.047      331.148       -1.024      863.991
01/02/2015  11:54:00       84.391       74.968       14.285       41.179       34.843       40.674     1695.704     1214.031     1654.343        0.875        0.228      112.880       21.290        0.036      331.223       -0.901      863.983
01/02/2015  11:55:00       21.611       50.233       12.684       33.850       38.215       30.115     1145.789     1460.351      906.888        0.333        0.176       54.684       21.713        0.158      331.545       -0.371      863.977
01/02/2015  11:56:00       50.949       57.211       37.188       47.656       39.659       39.148     2271.056     1572.814     1532.568        0.631        0.269       76.609       16.470        0.046      331.439       -0.546      863.975
01/02/2015  11:57:00       39.064      -75.679        4.855       64.991       95.411       37.359     4223.809     9103.287     1395.664        1.100        0.736       85.167       39.461        0.215      331.385       -0.635      863.958
01/02/2015  11:58:00       67.530      -18.353       23.774       65.111       64.631       43.001     4239.381     4177.200     1849.068        0.786        0.513       69.979       37.980        0.295      331.205       -0.931      863.967
01/02/2015  11:59:00      124.643       79.712       40.090       39.172       32.034       34.970     1534.413     1026.160     1222.882        1.364        0.189      147.953       26.571        0.032      331.092       -1.115      863.964
01/02/2015  12:00:00       88.563       42.866       -2.670       27.435       23.047       23.702      752.673      531.158      561.762        0.577        0.092       98.391        7.158        0.005      330.999       -1.269      863.974
01/02/2015  12:01:00       35.253       33.643       24.883       29.626       22.423       19.571      877.721      502.782      383.014        0.238        0.088       48.730       16.148        0.110      331.324       -0.734      863.961
01/02/2015  12:02:00       56.409       38.286       20.485       41.439       31.672       22.331     1717.197     1003.104      498.678        0.414        0.161       68.175       16.717        0.060      331.532       -0.392      863.941
01/02/2015  12:03:00      136.658       97.105       29.895       77.408       54.343       62.134     5992.030     2953.145     3860.596        2.090        0.640      167.645       34.477        0.042      331.326       -0.733      863.923
01/02/2015  12:04:00       94.955       91.459       39.196       56.478       45.400       48.808     3189.771     2061.128     2382.198        1.327        0.382      131.837       32.996        0.063      331.398       -0.612      863.904
01/02/2015  12:05:00       83.784       78.799       55.924       60.344       54.354       48.994     3641.368     2954.357     2400.373        1.267        0.450      115.017       22.731        0.039      331.849        0.129      863.886
01/02/2015  12:06:00      115.542       85.471       17.624       55.852       45.237       48.495     3119.404     2046.353     2351.753        1.424        0.376      143.719       25.839        0.032      331.386       -0.633      863.873
01/02/2015  12:07:00       34.883       49.403       14.232       62.424       48.847       39.602     3896.817     2386.002     1568.337        0.585        0.393       60.477       37.813        0.391      331.643       -0.209      863.846
01/02/2015  12:08:00       47.983      118.577      110.729       55.207       46.823       43.612     3047.830     2192.349     1902.011        1.788        0.357      127.918       37.924        0.088      331.493       -0.457      863.814
01/02/2015  12:09:00      104.026      126.066       97.056       63.926       45.462       47.320     4086.475     2066.826     2239.163        2.226        0.420      163.444       34.796        0.045      331.293       -0.786      863.788
01/02/2015  12:10:00       50.727       90.845       84.260       57.642       42.921       32.627     3322.602     1842.189     1064.544        1.208        0.311      104.048       22.141        0.045      331.375       -0.650      863.768
01/02/2015  12:11:00       23.747        9.448       43.479       41.339       57.184       29.718     1708.894     3269.956      883.133        0.420        0.293       25.558       31.419        1.511      331.661       -0.180      863.769
01/02/2015  12:12:00       28.530       36.820       59.052       43.713       34.091       35.351     1910.848     1162.171     1249.664        0.499        0.216       46.580       28.462        0.373      331.739       -0.051      863.759
01/02/2015  12:13:00       18.985       50.927       62.006       41.115       45.945       39.021     1690.471     2110.928     1522.671        0.606        0.266       54.351       37.061        0.465      331.700       -0.114      863.750
01/02/2015  12:14:00       31.605       74.496       60.548       41.584       36.727       35.703     1729.257     1348.890     1274.721        0.728        0.218       80.923       30.979        0.147      331.703       -0.112      863.739
01/02/2015  12:15:00       37.879        3.958       27.031       24.840       29.701       24.681      617.048      882.156      609.130        0.214        0.105       38.085       22.618        0.353      331.594       -0.289      863.712
01/02/2015  12:16:00       72.400       54.671       31.299       81.491       34.392       29.124     6640.730     1182.824      848.199        0.894        0.434       90.723       34.383        0.144      331.505       -0.437      863.692
01/02/2015  12:17:00      144.237      101.062       24.359       53.335       44.735       38.690     2844.626     2001.226     1496.898        1.898        0.317      176.119       25.072        0.020      331.519       -0.414      863.680
01/02/2015  12:18:00      126.316       71.242       -0.242       51.176       39.133       29.266     2618.984     1531.428      856.500        1.302        0.250      145.021       28.096        0.038      331.489       -0.463      863.664
01/02/2015  12:19:00       99.342       69.949       49.537       48.899       39.368       39.678     2391.129     1549.850     1574.326        1.136        0.276      121.498       28.071        0.053      331.623       -0.243      863.653
01/02/2015  12:20:00       72.205       47.975       21.722       38.044       37.629       25.705     1447.369     1415.927      660.756        0.575        0.176       86.690       18.806        0.047      331.355       -0.683      863.650
01/02/2015  12:21:00       98.381       75.044       41.542       31.744       27.519       41.465     1007.667      757.316     1719.348        1.026        0.174      123.735       23.962        0.038      331.415       -0.584      863.636
01/02/2015  12:22:00      134.781       90.607       18.936       77.587       69.988       37.911     6019.701     4898.289     1437.265        1.954        0.618      162.405        9.013        0.003      331.656       -0.189      863.611
01/02/2015  12:23:00      130.599       83.680        2.295       71.201       46.696       32.368     5069.588     2180.535     1047.678        1.618        0.415      155.108       18.804        0.015      331.424       -0.571      863.599
01/02/2015  12:24:00      137.519       74.178        4.556       72.246       60.302       42.329     5219.472     3636.354     1791.754        1.754        0.532      156.249       28.446        0.033      331.573       -0.327      863.584
01/02/2015  12:25:00      -16.279       61.805      104.005       29.492       76.559       76.167      869.772     5861.317     5801.381        1.371        0.627       63.912       70.034        1.201      331.959        0.310      863.568
01/02/2015  12:26:00       88.555      160.758      126.687       75.539       48.605       64.230     5706.093     2362.453     4125.555        3.096        0.610      183.535       60.835        0.110      331.453       -0.526      863.548
01/02/2015  12:27:00       85.166       99.020       96.298       65.577       72.344       56.840     4300.402     5233.666     3230.813        1.955        0.638      130.607       55.606        0.181      331.477       -0.483      863.553
01/02/2015  12:28:00      101.366      103.415       75.619       53.254       43.570       45.123     2835.980     1898.302     2036.113        1.673        0.339      144.809       18.062        0.016      331.603       -0.276      863.553
01/02/2015  12:29:00       43.750       -3.705       41.845       46.148       61.569       44.674     2129.634     3790.756     1995.788        0.580        0.396       43.907       42.148        0.921      331.874        0.171      863.526
01/02/2015  12:30:00       83.673      -43.770       20.352       54.972       97.278       53.453     3021.906     9463.048     2857.174        1.233        0.767       94.430       61.393        0.423      332.050        0.461      863.490
01/02/2015  12:31:00       12.791      -32.559       39.451       45.160       62.913       36.141     2039.419     3958.102     1306.193        0.504        0.365       34.981       30.107        0.741      332.265        0.814      863.483
01/02/2015  12:32:00       48.997     -110.046       -3.111       56.647       85.603       36.419     3208.897     7327.956     1326.336        1.319        0.593      120.461       38.700        0.103      331.781        0.018      863.467
01/02/2015  12:33:00       26.288      -48.847       26.734       30.982       83.740       37.383      959.875     7012.358     1397.495        0.658        0.468       55.472       22.570        0.166      331.903        0.218      863.443
01/02/2015  12:34:00       87.491       50.471       54.455       43.496       44.674       34.098     1891.860     1995.764     1162.690        0.911        0.253      101.005       15.260        0.023      331.766       -0.007      863.431
01/02/2015  12:35:00       56.739       23.320        6.550       25.863       23.610       30.222      668.894      557.429      913.352        0.297        0.107       61.344        8.795        0.021      331.488       -0.465      863.431
01/02/2015  12:36:00       14.965       28.063       20.303       19.852       24.290       29.856      394.084      589.996      891.402        0.165        0.094       31.804       21.179        0.443      331.806        0.058      863.407
01/02/2015  12:37:00       10.548       41.085       58.925       31.756       24.634       19.876     1008.422      606.845      395.049        0.364        0.101       42.418       18.643        0.193      332.179        0.674      863.407
01/02/2015  12:38:00       -4.589       32.252       64.398       18.314       25.928       17.620      335.395      672.246      310.469        0.326        0.066       32.577       14.620        0.201      332.317        0.901      863.410
01/02/2015  12:39:00       83.464       76.254       40.531       60.259       36.193       39.728     3631.104     1309.958     1578.320        1.047        0.326      113.053       33.407        0.087      331.887        0.193      863.419
01/02/2015  12:40:00       78.740       42.899       44.224       68.626       57.811       45.709     4709.581     3342.128     2089.318        1.007        0.507       89.668       29.288        0.107      332.216        0.734      863.418
01/02/2015  12:41:00      122.803       67.827       26.084       75.735       37.280       41.649     5735.759     1389.824     1734.606        1.461        0.443      140.289       32.076        0.052      331.845        0.122      863.429
01/02/2015  12:42:00      131.289       85.427       27.362       54.512       40.095       38.658     2971.515     1607.610     1494.471        1.568        0.304      156.635       28.580        0.033      331.683       -0.146      863.420
01/02/2015  12:43:00      116.144       65.803       17.691       57.975       43.881       45.171     3361.044     1925.532     2040.388        1.273        0.366      133.490       29.440        0.049      331.661       -0.180      863.408
01/02/2015  12:44:00       -7.998       38.087       -9.518       24.754       21.716       25.424      612.744      471.587      646.383        0.167        0.087       38.918       18.844        0.234      331.777        0.012      863.392
01/02/2015  12:45:00       18.045       34.352       18.844       27.591       19.369       22.124      761.263      375.157      489.483        0.174        0.081       38.803       15.072        0.151      332.126        0.586      863.385
01/02/2015  12:46:00      -12.069       61.080       82.849       24.807       34.090       26.533      615.377     1162.122      704.026        0.661        0.124       62.261       20.484        0.108      332.303        0.878      863.363
01/02/2015  12:47:00       21.748       16.036       45.093       28.058       31.481       20.655      787.259      991.066      426.623        0.248        0.110       27.021       20.285        0.564      332.345        0.947      863.348
01/02/2015  12:48:00       85.755       81.774       56.695       60.321       31.445       36.680     3638.651      988.788     1345.392        1.161        0.299      118.495       26.183        0.049      332.115        0.569      863.332
01/02/2015  12:49:00       59.012       38.743       44.370       29.435       38.219       32.448      866.411     1460.712     1052.867        0.517        0.169       70.594       16.367        0.054      332.255        0.800      863.336
01/02/2015  12:50:00       48.554       58.848       37.453       52.574       37.479       32.324     2764.065     1404.672     1044.834        0.622        0.261       76.292       16.347        0.046      332.246        0.784      863.339
01/02/2015  12:51:00       20.006      -26.776       30.801       42.581       71.529       43.429     1813.148     5116.460     1886.063        0.544        0.441       33.425       42.788        1.639      332.580        1.335      863.343
01/02/2015  12:52:00      121.578       78.431       41.565       75.512       43.382       60.351     5702.115     1882.003     3642.263        1.694        0.561      144.681       44.904        0.096      332.077        0.505      863.370
01/02/2015  12:53:00       83.562       59.081       30.289       45.543       41.487       36.703     2074.152     1721.206     1347.120        0.827        0.257      102.339       23.434        0.052      331.989        0.360      863.381
01/02/2015  12:54:00       72.256       35.078      -12.886       33.059       26.288       19.816     1092.884      691.034      392.659        0.440        0.109       80.321        9.049        0.013      331.822        0.084      863.381
01/02/2015  12:55:00       57.964       40.416       13.644       27.218       16.614       32.234      740.819      276.016     1039.023        0.362        0.103       70.664       17.084        0.058      331.918        0.242      863.353
01/02/2015  12:56:00      108.207       60.581       15.959       45.127       48.197       42.556     2036.434     2322.984     1811.034        1.090        0.309      124.011       14.504        0.014      332.251        0.793      863.342
01/02/2015  12:57:00      116.039       62.605       20.175       62.848       52.917       43.831     3949.901     2800.185     1921.120        1.323        0.434      131.850       28.866        0.048      332.269        0.821      863.345
01/02/2015  12:58:00       27.763       31.755       13.318       41.927       26.752       22.143     1757.883      715.679      490.325        0.246        0.148       42.180       11.695        0.077      332.385        1.013      863.330
01/02/2015  12:59:00      -13.670       -6.057        7.921       22.570       32.654       18.029      509.411     1066.302      325.055        0.109        0.095       14.952       11.484        0.590      332.618        1.397      863.296
01/02/2015  13:00:00       22.562      -18.088       39.177       35.965       68.651       32.327     1293.495     4712.936     1045.056        0.471        0.353       28.917       37.212        1.656      332.473        1.159      863.281
01/02/2015  13:01:00      108.570       94.236       78.768       67.262       65.362       45.245     4524.141     4272.164     2047.117        1.886        0.542      143.763       43.997        0.094      332.014        0.400      863.264
01/02/2015  13:02:00       87.671       11.975       44.350       81.659       76.578       45.685     6668.271     5864.192     2087.088        1.221        0.731       88.485       44.632        0.254      332.380        1.004      863.234
01/02/2015  13:03:00       56.478      -30.982       38.020       50.329       64.755       53.937     2532.962     4193.243     2909.243        0.761        0.482       64.418       49.130        0.582      332.359        0.972      863.221
01/02/2015  13:04:00       56.706       54.424       71.606       52.157       57.081       42.558     2720.362     3258.187     1811.157        0.955        0.389       78.597       38.900        0.245      332.266        0.818      863.204
01/02/2015  13:05:00       22.378        4.177       30.049       21.149       35.324       23.419      447.264     1247.780      548.437        0.183        0.112       22.764       23.304        1.048      332.381        1.007      863.189
01/02/2015  13:06:00       19.244       43.345       45.357       27.813       24.959       34.664      773.586      622.950     1201.621        0.345        0.130       47.425       22.412        0.223      332.296        0.867      863.158
01/02/2015  13:07:00       39.038        7.295       14.223       40.663       75.958       37.017     1653.498     5769.659     1370.230        0.528        0.440       39.713       45.375        1.305      332.295        0.865      863.141
01/02/2015  13:08:00       26.060      -46.579       24.459       48.299       63.483       43.744     2332.842     4030.038     1913.555        0.586        0.414       53.374       33.525        0.395      332.528        1.249      863.121
01/02/2015  13:09:00       36.973      -43.195       41.847       45.779       61.743       48.772     2095.759     3812.233     2378.690        0.663        0.414       56.858       47.166        0.688      332.868        1.811      863.090
01/02/2015  13:10:00       70.784      -86.442        4.008       49.522       94.250       46.875     2452.467     8883.123     2197.244        1.301        0.677      111.725       54.641        0.239      332.588        1.347      863.057
01/02/2015  13:11:00        8.063       38.782       81.251       39.898       52.955       26.878     1591.823     2804.183      722.433        0.664        0.256       39.612       19.835        0.251      332.865        1.805      863.031
01/02/2015  13:12:00       -4.815      -30.326       25.372       34.390       58.169       32.438     1182.682     3383.646     1052.243        0.360        0.281       30.706       13.053        0.181      332.847        1.775      863.004
01/02/2015  13:13:00       22.197       39.715       60.073       66.889       91.468       61.807     4474.077     8366.314     3820.085        1.117        0.833       45.497       53.746        1.395      332.825        1.738      862.981
01/02/2015  13:14:00      128.058       85.713       49.153       65.694       47.548       45.321     4315.730     2260.860     2053.972        1.739        0.432      154.096       31.951        0.043      332.320        0.906      862.985
01/02/2015  13:15:00      107.467       63.520       28.999       57.278       35.538       47.742     3280.740     1262.951     2279.324        1.162        0.341      124.836       36.900        0.087      332.348        0.953      862.992
01/02/2015  13:16:00       42.989       69.086       67.551       35.036       46.796       56.252     1227.489     2189.827     3164.255        0.888        0.329       81.369       41.256        0.257      332.472        1.158      862.998
01/02/2015  13:17:00      105.542       71.783       59.227       51.782       47.552       46.323     2681.337     2261.207     2145.809        1.344        0.354      127.640       28.039        0.048      332.454        1.126      862.995
01/02/2015  13:18:00       66.118       11.366       49.662       62.795       86.862       51.816     3943.184     7545.064     2684.918        1.057        0.709       67.088       63.206        0.888      332.428        1.083      863.009
01/02/2015  13:19:00      127.925     -118.137       -8.597       48.860       52.094       35.460     2387.299     2713.821     1257.382        1.838        0.318      174.130       29.354        0.028      332.380        1.005      862.997
01/02/2015  13:20:00       77.416      -56.582       12.226       42.356       84.602       43.315     1794.009     7157.478     1876.213        1.008        0.541       95.890       49.533        0.267      332.648        1.447      862.976
01/02/2015  13:21:00       28.429       21.956       64.582       63.634       65.731       54.921     4049.315     4320.516     3016.307        0.842        0.569       35.920       58.064        2.613      332.784        1.672      862.955
01/02/2015  13:22:00       58.381       67.639       77.074       64.129       79.786       55.025     4112.501     6365.884     3027.790        1.371        0.675       89.349       60.646        0.461      332.546        1.279      862.969
01/02/2015  13:23:00      105.560      -70.626        7.760       73.928       62.450       37.862     5465.315     3899.988     1433.556        1.349        0.540      127.007       36.463        0.082      332.564        1.307      862.992
01/02/2015  13:24:00       64.131       -9.404       29.464       47.546       52.483       40.079     2260.619     2754.513     1606.365        0.584        0.331       64.817       36.128        0.311      332.440        1.104      863.023
01/02/2015  13:25:00       13.449      -56.541        1.896       31.802       40.088       28.959     1011.396     1607.071      838.613        0.342        0.173       58.119       19.643        0.114      332.731        1.582      863.033
01/02/2015  13:26:00      109.742       61.018        7.911       37.016       28.474       28.587     1370.196      810.785      817.194        0.941        0.150      125.565       12.556        0.010      332.600        1.368      863.039
01/02/2015  13:27:00       59.350       18.779       -5.657       34.625       22.219       15.307     1198.883      493.663      234.294        0.292        0.096       62.250       13.104        0.044      332.444        1.110      863.049
01/02/2015  13:28:00       11.459       -3.684       19.875       23.674       47.315       28.849      560.456     2238.719      832.249        0.208        0.182       12.036       17.580        2.133      332.967        1.975      863.033
01/02/2015  13:29:00       98.851     -112.004        7.934       65.590      109.674       59.524     4302.021    12028.416     3543.064        2.112        0.994      149.387       74.586        0.249      332.814        1.721      863.008
01/02/2015  13:30:00      108.488     -105.959       -8.476       67.236       91.599       56.122     4520.642     8390.320     3149.652        1.956        0.803      151.647       59.095        0.152      332.557        1.295      862.996
01/02/2015  13:31:00       30.635       70.210       81.849       62.164       51.375       42.615     3864.399     2639.346     1816.011        1.044        0.416       76.603       42.706        0.311      332.749        1.615      863.010
01/02/2015  13:32:00       98.210        6.613       21.218       88.663      116.142       42.012     7861.148    13489.034     1765.019        1.662        1.156       98.432       51.065        0.269      332.650        1.449      863.012
01/02/2015  13:33:00      139.575     -131.293      -34.299       29.791       33.413       19.082      887.528     1116.434      364.114        2.013        0.118      191.622       15.699        0.007      332.364        0.978      863.035
01/02/2015  13:34:00       76.314      -81.775      -11.497       32.536       34.085       27.634     1058.614     1161.779      763.653        0.781        0.149      111.852       17.139        0.023      332.512        1.223      863.042
01/02/2015  13:35:00       59.465      -99.198      -16.838       39.310       33.100       25.215     1545.250     1095.619      635.777        0.847        0.164      115.656       16.217        0.020      332.614        1.390      863.031
01/02/2015  13:36:00       49.825      -17.516        8.188       28.864       23.236       22.974      833.138      539.929      527.800        0.238        0.095       52.815       14.998        0.081      332.823        1.737      863.024
01/02/2015  13:37:00       32.006      -37.058       13.893       61.329       76.307       34.265     3761.204     5822.823     1174.085        0.667        0.538       48.966       39.846        0.662      333.001        2.031      863.010
01/02/2015  13:38:00       83.657     -129.902      -29.012       51.697       56.240       33.865     2672.563     3162.898     1146.829        1.585        0.349      154.509       37.869        0.060      332.528        1.249      863.003
01/02/2015  13:39:00       62.917      -39.437       -4.709       42.195       26.745       26.250     1780.410      715.316      689.080        0.436        0.159       74.255       14.713        0.039      332.501        1.205      863.012
01/02/2015  13:40:00       31.823       -6.250       37.980       36.162       48.081       35.142     1307.689     2311.802     1234.993        0.367        0.243       32.431       36.707        1.281      332.859        1.796      863.009
01/02/2015  13:41:00       46.570      -37.777       21.394       45.881       30.435       36.644     2105.093      926.300     1342.816        0.421        0.219       59.966       29.018        0.234      333.004        2.035      863.012
01/02/2015  13:42:00       29.077       -6.531       18.871       46.979       33.686       29.648     2207.024     1134.732      878.982        0.273        0.211       29.801       26.905        0.815      332.800        1.699      863.019
01/02/2015  13:43:00       72.525      -98.205      -11.864       60.416       61.655       32.848     3650.144     3801.282     1078.962        1.179        0.427      122.082       36.139        0.088      332.707        1.544      863.009
01/02/2015  13:44:00       64.656      -64.571       -6.323       48.369       52.766       34.679     2339.523     2784.270     1202.653        0.736        0.316       91.378       36.358        0.158      332.745        1.609      862.982
01/02/2015  13:45:00       57.737     -108.757      -13.082       45.952       45.429       33.565     2111.559     2063.801     1126.641        1.032        0.265      123.132       28.806        0.055      332.736        1.592      862.963
01/02/2015  13:46:00       50.632     -114.384      -18.021       53.392       37.719       31.330     2850.754     1422.744      981.553        1.061        0.263      125.089       25.158        0.040      332.756        1.625      862.952
01/02/2015  13:47:00       73.611      -58.421       -5.146       30.669       27.850       21.527      940.560      775.613      463.399        0.552        0.109       93.976        7.497        0.006      332.856        1.791      862.948
01/02/2015  13:48:00       27.370      -33.046       16.350       37.450       47.326       25.426     1402.479     2239.777      646.495        0.320        0.214       42.909       13.225        0.095      333.020        2.061      862.951
01/02/2015  13:49:00       91.134      -66.247       10.244       40.438       63.814       45.404     1635.268     4072.213     2061.485        1.028        0.388      112.668       39.394        0.122      332.843        1.769      862.949
01/02/2015  13:50:00       32.236     -125.963       -7.843       53.869       62.609       37.751     2901.851     3919.866     1425.110        1.261        0.412      130.022       35.862        0.076      332.977        1.990      862.938
01/02/2015  13:51:00      -13.855       52.533       37.446       36.105       39.807       59.921     1303.569     1584.628     3590.534        0.541        0.324       54.329       31.044        0.326      333.142        2.263      862.949
01/02/2015  13:52:00       41.605       66.676       71.141       59.543       42.739       42.482     3545.376     1826.645     1804.731        0.921        0.359       78.591       35.454        0.204      332.962        1.967      862.966
01/02/2015  13:53:00       92.267       79.862       81.373       52.633       43.031       47.602     2770.204     1851.690     2265.949        1.420        0.344      122.029       36.241        0.088      332.809        1.714      862.980
01/02/2015  13:54:00       78.834       44.993       51.890       43.500       80.649       41.489     1892.259     6504.275     1721.377        1.052        0.506       90.769       44.579        0.241      332.796        1.692      862.972
01/02/2015  13:55:00       86.484      -27.392        3.852       54.652       59.360       31.185     2986.831     3523.656      972.504        0.786        0.374       90.718       28.824        0.101      332.814        1.722      862.978
01/02/2015  13:56:00       -4.029       28.192        0.034       42.927       57.142       31.694     1842.768     3265.243     1004.521        0.346        0.306       28.478       28.929        1.032      332.965        1.971      862.966
01/02/2015  13:57:00       -6.770      -58.544        4.318       30.261       66.221       29.994      915.743     4385.236      899.635        0.484        0.310       58.934       23.256        0.156      333.089        2.176      862.963
01/02/2015  13:58:00       33.343       21.744       27.524       31.830       34.503       26.828     1013.154     1190.450      719.746        0.263        0.146       39.806       22.112        0.309      333.123        2.233      862.967
01/02/2015  13:59:00       31.460       54.379       -1.261       17.987       14.887       22.921      323.543      221.613      525.381        0.251        0.054       62.824       13.186        0.044      332.802        1.700      862.971
01/02/2015  14:00:00       46.062       53.275        2.222       25.842       22.458       26.751      667.794      504.348      715.641        0.343        0.094       70.427       19.773        0.079      332.903        1.868      862.975
01/02/2015  14:01:00       27.833       32.323        7.498       24.462       27.876       25.509      598.392      777.070      650.699        0.195        0.101       42.655       18.586        0.190      333.085        2.170      862.982
01/02/2015  14:02:00        3.876       -0.548       35.776       33.228       57.751       52.978     1104.091     3335.179     2806.673        0.427        0.362        3.915       41.934      114.737      333.239        2.424      862.985
01/02/2015  14:03:00       -7.180      -35.032       21.025       38.954       33.871       31.653     1517.398     1147.214     1001.917        0.269        0.183       35.760       27.554        0.594      333.271        2.477      862.979
01/02/2015  14:04:00      -12.011      -20.554       -1.541       29.890       22.507       27.371      893.424      506.551      749.186        0.136        0.107       23.805       16.750        0.495      333.550        2.938      862.970
01/02/2015  14:05:00      -19.259      -57.576        2.980       83.131       41.567       30.649     6910.840     1727.783      939.377        0.663        0.479       60.712       25.257        0.173      333.121        2.229      862.973
01/02/2015  14:06:00       31.043       -7.115       19.936       40.348       37.697       30.958     1627.965     1421.095      958.428        0.271        0.200       31.848       31.265        0.964      333.223        2.398      862.990
01/02/2015  14:07:00       42.634      -23.540       25.358       62.257       72.439       38.559     3875.989     5247.411     1486.771        0.681        0.531       48.701       46.961        0.930      333.258        2.455      863.003
01/02/2015  14:08:00       69.837     -101.539      -10.564       37.170       44.264       26.807     1381.646     1959.278      718.590        0.968        0.203      123.237       13.693        0.012      333.072        2.147      863.005
01/02/2015  14:09:00       11.645      -21.034       27.428       38.790       42.870       28.283     1504.668     1837.822      799.942        0.274        0.207       24.043       26.152        1.183      333.496        2.849      862.986
01/02/2015  14:10:00       19.767      -74.285       -2.732       38.650       44.804       33.547     1493.850     2007.373     1125.434        0.527        0.231       76.870       22.912        0.089      333.296        2.518      862.975
01/02/2015  14:11:00       26.618      -63.282       -9.654       35.046       54.335       22.276     1228.237     2952.301      496.235        0.474        0.234       68.652       20.462        0.089      333.101        2.195      862.964
01/02/2015  14:12:00       23.729       -2.670        5.133       34.213       50.197       31.455     1170.555     2519.749      989.406        0.264        0.234       23.879       34.158        2.046      333.076        2.154      862.950
01/02/2015  14:13:00       17.952       37.395       30.433       17.103       24.911       13.562      292.516      620.547      183.924        0.187        0.055       41.480        7.997        0.037      333.187        2.338      862.932
01/02/2015  14:14:00        2.914       30.937       51.843       26.667       28.226       18.145      711.113      796.725      329.256        0.274        0.092       31.074       13.446        0.187      333.383        2.662      862.917
01/02/2015  14:15:00       -6.089       37.844       26.350       25.448       24.803       35.544      647.576      615.198     1263.388        0.234        0.126       38.331       17.761        0.215      333.261        2.461      862.895
01/02/2015  14:16:00      -30.620      -21.092       -2.536       33.974       24.373       16.242     1154.254      594.056      263.806        0.170        0.101       37.181        7.817        0.044      333.429        2.737      862.884
01/02/2015  14:17:00        1.947      -82.950      -14.295       48.301       51.799       37.292     2332.980     2683.181     1390.716        0.675        0.320       82.973       21.816        0.069      333.236        2.420      862.860
01/02/2015  14:18:00      -35.167      -40.032       -2.152       71.534       43.874       24.438     5117.112     1924.967      597.213        0.524        0.382       53.285       17.330        0.106      333.360        2.623      862.843
01/02/2015  14:19:00     -108.903      -22.645       -4.027       42.070       35.732       25.301     1769.871     1276.744      640.135        0.804        0.184      111.232       20.926        0.035      333.283        2.497      862.842
01/02/2015  14:20:00      -65.777       15.351       -4.015       43.838       18.746       17.954     1921.743      351.426      322.337        0.359        0.130       67.545       18.609        0.076      333.118        2.223      862.846
01/02/2015  14:21:00        5.284      -19.598        4.099       42.170       47.664       24.132     1778.267     2271.904      582.343        0.253        0.232       20.298       27.467        1.831      333.294        2.513      862.843
01/02/2015  14:22:00       -6.244       -9.333       18.292       14.393       24.736       10.590      207.163      611.855      112.143        0.070        0.047       11.229        8.051        0.514      333.865        3.460      862.835
01/02/2015  14:23:00       22.899       21.012       23.579       23.217       30.045       27.151      539.037      902.682      737.167        0.185        0.109       31.078       23.725        0.583      333.491        2.841      862.828
01/02/2015  14:24:00       20.395       37.846       10.494       40.268       36.847       29.175     1621.546     1357.711      851.206        0.289        0.192       42.991       21.714        0.255      333.349        2.606      862.825
01/02/2015  14:25:00     -116.180        7.776      -17.144       34.451       41.566       26.692     1186.840     1727.764      712.481        0.874        0.181      116.440       21.162        0.033      333.300        2.525      862.818
01/02/2015  14:26:00      -26.747      -15.010        3.109       42.103       30.951       20.633     1772.697      957.936      425.709        0.205        0.158       30.671       23.398        0.582      333.515        2.879      862.810
01/02/2015  14:27:00       -5.006       20.586       40.239       52.749       43.905       39.811     2782.504     1927.636     1584.931        0.418        0.315       21.186       33.145        2.448      333.444        2.763      862.812
01/02/2015  14:28:00       41.990      -21.539       21.816       35.065       40.944       24.021     1229.521     1676.404      577.017        0.309        0.174       47.193       18.825        0.159      333.421        2.725      862.823
01/02/2015  14:29:00       55.166       71.052       47.304       60.499       35.547       36.993     3660.132     1263.562     1368.462        0.831        0.315       89.953       37.742        0.176      333.278        2.488      862.832
01/02/2015  14:30:00       16.176       16.115       23.865       37.605       44.866       27.486     1414.141     2012.974      755.460        0.264        0.209       22.833       19.163        0.704      333.504        2.864      862.823
01/02/2015  14:31:00       21.717      -18.628       44.327       38.239       41.441       33.204     1462.249     1717.335     1102.492        0.353        0.214       28.612       25.797        0.813      333.700        3.186      862.827
01/02/2015  14:32:00       27.227       17.605       51.135       55.368       74.058       44.380     3065.569     5484.530     1969.559        0.709        0.526       32.423       56.661        3.054      333.506        2.864      862.834
01/02/2015  14:33:00      118.746      -74.305      -16.470       44.199       56.400       33.782     1953.509     3180.981     1141.193        1.308        0.314      140.078       32.307        0.053      333.245        2.433      862.829
01/02/2015  14:34:00        8.979       22.290       43.714       34.376       38.699       30.069     1181.735     1497.627      904.134        0.304        0.179       24.031       31.811        1.752      333.482        2.825      862.815
01/02/2015  14:35:00       82.759      -86.343       -9.375       70.454       60.881       43.287     4963.765     3706.513     1873.731        1.247        0.527      119.600       37.058        0.096      333.216        2.385      862.799
01/02/2015  14:36:00        3.638      -54.581        3.422       36.582       37.108       38.628     1338.247     1377.022     1492.123        0.360        0.210       54.702       16.612        0.092      333.497        2.850      862.793
01/02/2015  14:37:00       53.629     -109.135      -11.131       45.245       47.535       35.897     2047.124     2259.550     1288.595        1.025        0.280      121.599       36.057        0.088      333.412        2.709      862.785
01/02/2015  14:38:00       54.905     -105.490      -19.566       55.806       65.379       41.336     3114.311     4274.445     1708.659        1.181        0.455      118.923       42.089        0.125      333.401        2.692      862.782
01/02/2015  14:39:00        7.936       19.535       34.406       21.016       27.884       17.275      441.673      777.530      298.416        0.157        0.076       21.086       13.739        0.425      333.683        3.158      862.804
01/02/2015  14:40:00        5.928      -14.613       11.719       28.318       26.804       28.706      801.907      718.442      824.057        0.136        0.117       15.770       17.679        1.257      333.609        3.036      862.818
01/02/2015  14:41:00       11.460      -18.607       23.442       25.155       34.010       23.253      632.762     1156.700      540.721        0.168        0.117       21.853       18.700        0.732      333.786        3.329      862.840
01/02/2015  14:42:00       54.795      -22.730       37.605       66.208       71.630       45.244     4383.442     5130.858     2047.052        0.825        0.578       59.323       51.647        0.758      333.506        2.865      862.850
01/02/2015  14:43:00       52.001       10.179       47.103       61.398       58.060       42.306     3769.770     3370.959     1789.830        0.698        0.447       52.988       22.964        0.188      333.431        2.740      862.863
01/02/2015  14:44:00       92.160      -81.060        3.721       57.079       63.054       40.688     3258.040     3975.784     1655.545        1.198        0.444      122.736       48.734        0.158      333.344        2.597      862.880
01/02/2015  14:45:00       53.871      -20.380       13.811       59.660       51.304       43.431     3559.310     2632.088     1886.255        0.579        0.404       57.597       32.804        0.324      333.322        2.560      862.897
01/02/2015  14:46:00       14.433      -76.628       -2.602       40.546       51.667       40.535     1643.953     2669.529     1643.113        0.602        0.298       77.975       38.741        0.247      333.682        3.158      862.902
01/02/2015  14:47:00       80.006     -121.842      -18.787       56.758       37.295       29.325     3221.502     1390.903      859.963        1.353        0.274      145.761       23.044        0.025      333.344        2.599      862.900
01/02/2015  14:48:00      -13.449      -33.585       30.782       45.458       62.431       38.938     2066.434     3897.632     1516.149        0.487        0.374       36.178       36.129        0.997      333.590        3.004      862.891
01/02/2015  14:49:00       56.899     -109.923       -1.410       84.835       57.287       42.013     7196.921     3281.839     1765.097        1.378        0.612      123.776       48.238        0.152      333.507        2.866      862.882
01/02/2015  14:50:00       44.645      -56.308       20.196       43.756       65.129       45.807     1914.583     4241.765     2098.251        0.691        0.413       71.859       47.104        0.430      333.622        3.057      862.875
01/02/2015  14:51:00       33.085      -29.688       31.869       49.109       42.762       34.171     2411.700     1828.588     1167.630        0.420        0.270       44.453       25.936        0.340      333.680        3.154      862.883
01/02/2015  14:52:00       75.312       31.067       24.220       49.573       44.046       38.787     2457.439     1940.070     1504.470        0.656        0.295       81.468       37.928        0.217      333.399        2.688      862.898
01/02/2015  14:53:00       67.601      -16.006       35.004       55.734      104.121       34.602     3106.229    10841.130     1197.317        1.059        0.757       69.470       43.947        0.400      333.259        2.456      862.905
01/02/2015  14:54:00       27.659      -62.531       16.208       33.197       74.753       28.871     1102.054     5588.058      833.560        0.623        0.376       68.375       20.465        0.090      333.351        2.609      862.909
01/02/2015  14:55:00       63.272       72.319       -0.376       32.401       39.906       28.695     1049.851     1592.474      823.404        0.635        0.173       96.090       23.117        0.058      333.324        2.565      862.894
01/02/2015  14:56:00       35.552       75.140       -7.077       30.547       36.163       30.193      933.099     1307.790      911.632        0.506        0.158       83.126       24.962        0.090      333.280        2.491      862.896
01/02/2015  14:57:00      113.505       93.232       51.927       49.242       32.119       41.893     2424.779     1031.647     1754.992        1.474        0.261      146.887       23.325        0.025      333.286        2.500      862.882
01/02/2015  14:58:00       82.234       98.669       77.394       44.958       31.635       33.245     2021.218     1000.790     1105.217        1.331        0.206      128.445       23.959        0.035      333.386        2.668      862.882
01/02/2015  14:59:00       28.431       87.083       97.516       47.305       38.805       29.144     2237.783     1505.806      849.399        1.125        0.230       91.606       21.146        0.053      333.534        2.911      862.885
01/02/2015  15:00:00       85.448       68.643       66.683       53.782       46.525       35.805     2892.521     2164.545     1281.995        1.140        0.317      109.605       28.825        0.069      333.427        2.732      862.893
01/02/2015  15:01:00      -16.226      -17.352       19.518       23.181       39.186       29.330      537.360     1535.507      860.223        0.194        0.147       23.756       26.277        1.224      333.805        3.359      862.911
01/02/2015  15:02:00       56.667      -22.916       32.824       59.270       70.477       48.606     3512.989     4967.004     2362.559        0.783        0.542       61.125       49.521        0.656      333.673        3.142      862.935
01/02/2015  15:03:00       63.734      -22.768       15.046       56.958       55.735       44.936     3244.186     3106.340     2019.208        0.659        0.418       67.679       50.101        0.548      333.494        2.845      862.958
01/02/2015  15:04:00       21.763       -0.347       31.542       47.941       46.186       38.745     2298.365     2133.191     1501.206        0.370        0.297       21.765       43.661        4.024      333.604        3.029      862.999
01/02/2015  15:05:00       -5.401       21.845       50.771       18.069       29.726       17.942      326.484      883.636      321.908        0.231        0.077       22.503       18.319        0.663      333.656        3.112      863.022
01/02/2015  15:06:00       -2.869       -3.984        9.327       27.525       23.641       15.669      757.602      558.876      245.523        0.084        0.078        4.910       15.295        9.705      333.591        3.004      863.033
01/02/2015  15:07:00       -5.329       10.388        9.712       13.744       10.833       13.892      188.901      117.363      192.995        0.036        0.025       11.675        6.214        0.283      333.798        3.349      863.038
01/02/2015  15:08:00       -1.021        7.027       23.686       15.236       17.928       13.325      232.126      321.423      177.558        0.067        0.037        7.101       13.268        3.491      334.032        3.738      863.041
01/02/2015  15:09:00      -49.379       23.519       -9.865       53.955       31.719       17.611     2911.126     1006.108      310.138        0.366        0.211       54.694       17.793        0.106      333.677        3.148      863.045
01/02/2015  15:10:00      -38.113       -5.162       -1.756       56.238       20.297       13.608     3162.673      411.983      185.167        0.262        0.188       38.461       14.883        0.150      333.784        3.325      863.042
01/02/2015  15:11:00       -0.821       15.033       40.584       11.648       17.372       13.916      135.677      301.790      193.663        0.125        0.032       15.055       10.277        0.466      333.988        3.663      863.040
01/02/2015  15:12:00       25.473       47.966       55.813       42.365       38.577       34.996     1794.809     1488.174     1224.726        0.529        0.225       54.310       29.246        0.290      333.674        3.144      863.033
01/02/2015  15:13:00      126.694       93.466       51.581       35.530       30.705       33.562     1262.385      942.806     1126.387        1.539        0.167      157.440       25.423        0.026      333.369        2.638      863.014
01/02/2015  15:14:00       56.514       19.529       41.215       51.870       65.563       40.182     2690.525     4298.563     1614.627        0.694        0.430       59.793       44.943        0.565      333.588        3.001      862.990
01/02/2015  15:15:00       56.960      -84.931       13.498       56.747       65.928       37.150     3220.190     4346.449     1380.146        0.979        0.447      102.263       35.659        0.122      333.624        3.060      862.971
01/02/2015  15:16:00       19.743        1.192       19.489       42.316       35.264       30.227     1790.611     1243.559      913.649        0.236        0.197       19.779       26.149        1.748      333.656        3.114      862.954
01/02/2015  15:17:00        3.927       -4.333       36.545       39.176       54.004       30.761     1534.757     2916.434      946.244        0.338        0.270        5.848       23.970       16.802      333.710        3.203      862.943
01/02/2015  15:18:00       26.566       43.757       50.455       36.342       30.303       18.961     1320.742      918.300      359.529        0.388        0.130       51.190       17.023        0.111      333.651        3.104      862.942
01/02/2015  15:19:00       56.732       57.852       23.642       30.504       22.541       32.029      930.468      508.078     1025.885        0.479        0.123       81.027       21.182        0.068      333.532        2.907      862.931
01/02/2015  15:20:00       16.178      -27.718       19.903       29.971       33.100       26.359      898.270     1095.629      694.806        0.206        0.134       32.094       21.776        0.460      333.707        3.198      862.928
01/02/2015  15:21:00       56.529      -82.994        0.718       29.566       48.562       31.750      874.132     2358.306     1008.057        0.716        0.212      100.417       28.745        0.082      333.617        3.049      862.920
01/02/2015  15:22:00       91.074      -34.883       -0.966       27.933       26.866       29.487      780.246      721.769      869.474        0.594        0.119       97.526       21.412        0.048      333.513        2.877      862.930
01/02/2015  15:23:00       14.707       -4.592        6.987       21.734       14.461       16.596      472.365      209.125      275.423        0.062        0.048       15.408       11.009        0.511      333.593        3.010      862.941
01/02/2015  15:24:00       16.575        4.461        2.424       18.234       23.756       18.444      332.475      564.368      340.186        0.077        0.062       17.165       10.859        0.400      333.546        2.930      862.929
01/02/2015  15:25:00       31.961       39.437       28.606       25.993       18.684       17.269      675.649      349.097      298.203        0.236        0.066       50.762       10.918        0.046      333.590        3.004      862.931
01/02/2015  15:26:00       30.508       37.734       36.291       29.635       27.895       25.086      878.233      778.126      629.306        0.298        0.114       48.524       17.526        0.130      333.602        3.022      862.933
01/02/2015  15:27:00       36.491       45.475       24.995       18.575       22.155       19.603      345.048      490.863      384.286        0.262        0.061       58.306       13.513        0.054      333.498        2.851      862.933
01/02/2015  15:28:00       65.652       44.090       26.777       40.590       20.072       16.009     1647.526      402.876      256.284        0.464        0.115       79.083        8.260        0.011      333.441        2.757      862.942
01/02/2015  15:29:00       75.604       29.540       31.850       33.487       36.957       26.100     1121.347     1365.784      681.184        0.538        0.158       81.170       20.113        0.061      333.422        2.727      862.948
01/02/2015  15:30:00       43.997       23.895       26.392       32.209       35.993       18.649     1037.437     1295.509      347.786        0.294        0.134       50.067       15.363        0.094      333.568        2.966      862.965
01/02/2015  15:31:00       76.976       76.425        1.726       34.741       24.895       24.992     1206.926      619.777      624.576        0.711        0.123      108.472        9.640        0.008      333.453        2.777      862.978
01/02/2015  15:32:00       47.450       69.495        8.479       32.447       26.550       30.275     1052.820      704.892      916.564        0.491        0.134       84.149       21.767        0.067      333.473        2.811      862.991
01/02/2015  15:33:00       39.105       32.554       37.257       28.721       26.316       24.541      824.917      692.534      602.267        0.305        0.106       50.881       19.983        0.154      333.501        2.856      863.007
01/02/2015  15:34:00       35.022       -4.547       20.054       27.665       32.113       28.947      765.351     1031.225      837.948        0.214        0.132       35.316       27.143        0.591      333.626        3.065      863.011
01/02/2015  15:35:00       31.625       45.439       54.819       39.429       45.515       33.355     1554.647     2071.644     1112.553        0.540        0.237       55.361       33.081        0.357      333.578        2.985      863.013
01/02/2015  15:36:00       93.908       48.780       12.717       41.470       39.858       29.339     1719.723     1588.662      860.756        0.776        0.208      105.822       22.273        0.044      333.490        2.837      863.011
01/02/2015  15:37:00       69.075       25.476       18.855       27.660       21.301       27.892      765.057      453.746      777.975        0.389        0.100       73.623       13.231        0.032      333.526        2.900      863.012
01/02/2015  15:38:00       24.361      -25.842        3.008       38.118       30.920       16.545     1452.976      956.049      273.742        0.198        0.134       35.515       13.704        0.149      333.518        2.885      863.010
01/02/2015  15:39:00      -31.438      -47.893       -5.936       19.843       38.250       17.874      393.750     1463.085      319.469        0.275        0.109       57.290       20.877        0.133      333.525        2.896      863.023
01/02/2015  15:40:00       -1.521        8.717       20.941        9.348       10.501        8.696       87.384      110.272       75.627        0.039        0.014        8.849        5.427        0.376      333.835        3.410      863.037
01/02/2015  15:41:00       43.461       37.701        7.317       43.709       35.678       17.623     1910.438     1272.927      310.562        0.343        0.175       57.534       17.061        0.088      333.559        2.952      863.059
01/02/2015  15:42:00       67.669       30.509        8.501       26.900       26.006       20.663      723.602      676.296      426.941        0.370        0.091       74.228       15.584        0.044      333.486        2.830      863.079
01/02/2015  15:43:00       64.004       36.323        8.537       20.208       21.728       20.170      408.380      472.110      406.829        0.339        0.064       73.592        7.555        0.011      333.472        2.808      863.091
01/02/2015  15:44:00       90.757       49.732       19.802       29.442       21.320       25.674      866.818      454.557      659.144        0.654        0.099      103.490       18.334        0.031      333.523        2.893      863.087
01/02/2015  15:45:00       62.185       51.858       18.868       32.995       33.703       31.583     1088.686     1135.912      997.471        0.507        0.161       80.971       19.394        0.057      333.572        2.975      863.080
01/02/2015  15:46:00       16.225       28.012       31.867       31.047       35.344       16.634      963.932     1249.217      276.699        0.228        0.124       32.372       14.636        0.204      333.660        3.120      863.073
01/02/2015  15:47:00       41.021      -71.500       -0.615       38.162       30.901       21.552     1456.334      954.874      464.495        0.483        0.144       82.432       19.367        0.055      333.603        3.025      863.072
01/02/2015  15:48:00       34.233      -20.104       13.826       16.953       16.419       14.514      287.401      269.579      210.643        0.127        0.038       39.700        5.008        0.016      333.562        2.958      863.071
01/02/2015  15:49:00       16.226       -1.194       -1.654       10.962        9.671       17.686      120.175       93.534      312.784        0.040        0.026       16.270       10.443        0.412      333.616        3.047      863.067
01/02/2015  15:50:00       18.594        6.295       -6.957       15.818       17.340       12.136      250.211      300.678      147.283        0.057        0.035       19.631       11.460        0.341      333.588        3.001      863.060
01/02/2015  15:51:00       25.283        9.108        7.337       21.057        8.803       14.475      443.384       77.492      209.528        0.075        0.037       26.873        4.429        0.027      333.646        3.098      863.061
01/02/2015  15:52:00       13.255       12.946       10.835        8.825        6.780        7.060       77.882       45.973       49.843        0.032        0.009       18.528        4.284        0.053      333.691        3.172      863.065
01/02/2015  15:53:00        4.491       28.327       -1.636        7.791        9.239        7.770       60.698       85.363       60.366        0.052        0.010       28.681        3.541        0.015      333.684        3.161      863.079
01/02/2015  15:54:00        3.869       15.206        2.795       11.404       11.113        7.140      130.054      123.490       50.981        0.028        0.015       15.691        2.940        0.035      333.707        3.199      863.087
01/02/2015  15:55:00       42.332       30.960        3.407       17.643       16.961       17.132      311.288      287.677      293.508        0.183        0.045       52.446        4.377        0.007      333.539        2.921      863.093
01/02/2015  15:56:00       73.010       42.667       -0.370       31.507       27.261       21.269      992.687      743.171      452.378        0.467        0.109       84.563       11.256        0.018      333.527        2.899      863.101
01/02/2015  15:57:00       78.324       43.520        5.898       35.871       23.154       17.620     1286.734      536.104      310.454        0.510        0.107       89.603        6.606        0.005      333.472        2.807      863.100
01/02/2015  15:58:00       58.913       41.519        3.989       25.067       19.833       11.538      628.366      393.331      133.125        0.318        0.058       72.073        8.337        0.013      333.498        2.852      863.108
01/02/2015  15:59:00       37.435       52.772       -0.449       27.691       19.042       16.357      766.791      362.579      267.548        0.279        0.070       64.701       15.586        0.058      333.529        2.904      863.106
01/02/2015  16:00:00       36.054       37.624        1.821       12.062       11.781       11.730      145.486      138.794      137.597        0.157        0.021       52.110        3.621        0.005      333.562        2.957      863.103
01/02/2015  16:01:00       34.218       31.022       -9.539        5.658        6.547        7.943       32.012       42.864       63.097        0.118        0.007       46.186        3.774        0.007      333.531        2.905      863.086
01/02/2015  16:02:00       21.468       34.965       43.226       25.271       17.563       21.670      638.624      308.456      469.606        0.248        0.071       41.030       14.553        0.126      333.566        2.965      863.069
01/02/2015  16:03:00       29.424       29.950       47.385       31.820       23.093       21.534     1012.503      533.279      463.702        0.301        0.100       41.985       17.339        0.171      333.589        3.002      863.046
01/02/2015  16:04:00       49.496       35.600       31.916       45.318       30.983       26.725     2053.734      959.928      714.252        0.423        0.186       60.969       21.650        0.126      333.573        2.976      863.031
01/02/2015  16:05:00       50.119       35.162       27.759       35.200       20.768       20.842     1239.067      431.309      434.383        0.331        0.105       61.223       19.315        0.100      333.518        2.883      863.018
01/02/2015  16:06:00       -7.207        4.968       16.878       11.972       23.888       10.587      143.327      570.617      112.094        0.059        0.041        8.753        4.788        0.299      333.744        3.261      863.010
01/02/2015  16:07:00       56.165      -77.778       -0.508       50.893       36.622       20.869     2590.084     1341.139      435.509        0.678        0.218       95.937       24.894        0.067      333.628        3.068      863.009
01/02/2015  16:08:00       56.029      -70.663      -10.628       23.921       23.936       13.890      572.204      572.939      192.918        0.479        0.067       90.180        4.591        0.003      333.653        3.108      863.011
01/02/2015  16:09:00       51.942      -48.059        1.515       36.249       26.937       31.671     1313.957      725.590     1003.068        0.403        0.152       70.765       23.832        0.113      333.644        3.094      863.014
01/02/2015  16:10:00       27.648       15.139       47.922       30.308       42.158       34.408      918.568     1777.266     1183.893        0.358        0.194       31.522       34.097        1.170      333.550        2.938      863.016
01/02/2015  16:11:00       24.071       19.279       43.879       39.526       35.176       29.892     1562.287     1237.381      893.550        0.328        0.185       30.840       24.887        0.651      333.600        3.022      863.028
01/02/2015  16:12:00       34.359       21.032       46.309       38.944       69.228       46.007     1516.658     4792.562     2116.660        0.609        0.421       40.285       54.441        1.826      333.543        2.926      863.040
01/02/2015  16:13:00       65.773      -72.174       -2.398       25.855       41.997       21.186      668.478     1763.746      448.834        0.621        0.144       97.648       18.321        0.035      333.601        3.022      863.052
01/02/2015  16:14:00       67.644      -63.445       -5.367       28.357       25.934       20.716      804.092      672.594      429.156        0.527        0.095       92.741       15.782        0.029      333.612        3.041      863.061
01/02/2015  16:15:00       13.505       27.863       21.969       21.580       28.799       21.375      465.692      829.383      456.871        0.160        0.088       30.963       20.280        0.429      333.534        2.912      863.069
01/02/2015  16:16:00       36.401       32.781       34.182       25.481       22.672       17.713      649.281      514.029      313.760        0.252        0.074       48.986       12.282        0.063      333.525        2.897      863.056
01/02/2015  16:17:00        4.922       41.454       54.418       21.985       27.565       25.019      483.320      759.848      625.950        0.329        0.093       41.745       18.491        0.196      333.600        3.021      863.043
01/02/2015  16:18:00       -0.718       13.466       36.344       16.434       31.847       19.410      270.077     1014.249      376.748        0.158        0.083       13.485       20.602        2.334      333.629        3.069      863.029
01/02/2015  16:19:00        1.945        4.001       33.669       16.477       15.141       12.402      271.490      229.245      153.816        0.090        0.033        4.449       11.299        6.451      333.665        3.130      863.016
01/02/2015  16:20:00       -5.556        2.777       15.441       16.125       12.622       11.727      260.007      159.327      137.516        0.042        0.028        6.211        7.962        1.643      333.625        3.063      863.007
01/02/2015  16:21:00       19.478       19.818       15.925       19.064       21.180       13.668      363.429      448.588      186.817        0.101        0.050       27.787        9.099        0.107      333.505        2.865      863.000
01/02/2015  16:22:00        7.830       30.983       44.566       21.411       27.348       19.687      458.429      747.935      387.586        0.230        0.080       31.957       18.403        0.332      333.490        2.837      862.998
01/02/2015  16:23:00       34.647       20.396       27.912       27.414       25.070       23.572      751.539      628.492      555.641        0.217        0.097       40.204       16.554        0.170      333.475        2.813      862.995
01/02/2015  16:24:00       46.670       32.440       37.028       32.914       27.537       23.851     1083.359      758.305      568.893        0.351        0.121       56.837       20.748        0.133      333.451        2.775      862.993
01/02/2015  16:25:00       91.630       34.524       28.413       48.720       31.566       31.545     2373.593      996.398      995.084        0.738        0.218       97.918       23.154        0.056      333.503        2.859      862.980
01/02/2015  16:26:00       36.352       46.781       54.382       40.595       36.245       31.492     1647.950     1313.680      991.742        0.521        0.198       59.245       31.731        0.287      333.523        2.893      862.973
01/02/2015  16:27:00       19.311       56.358       62.770       29.868       30.284       25.882      892.069      917.106      669.875        0.498        0.124       59.575       21.932        0.136      333.517        2.882      862.984
01/02/2015  16:28:00        9.080       30.081       50.241       19.174       25.056       12.833      367.632      627.818      164.675        0.234        0.058       31.422       10.066        0.103      333.486        2.832      862.999
01/02/2015  16:29:00        4.550       39.756       57.956       28.315       27.724       19.711      801.757      768.616      388.512        0.346        0.098       40.015       18.131        0.205      333.464        2.795      863.009
01/02/2015  16:30:00       61.117       51.063       49.786       34.798       27.538       30.247     1210.922      758.331      914.900        0.585        0.144       79.641       20.181        0.064      333.496        2.848      863.031
01/02/2015  16:31:00       10.819        1.539       43.881       23.344       48.996       28.309      544.961     2400.563      801.401        0.290        0.187       10.928       34.521        9.978      333.496        2.848      863.046
01/02/2015  16:32:00       26.473       -4.903       32.818       26.182       53.923       27.838      685.490     2907.658      774.937        0.308        0.218       26.923       31.943        1.408      333.488        2.835      863.042
01/02/2015  16:33:00       50.548        3.353       36.314       58.474       56.270       43.864     3419.152     3166.314     1924.037        0.620        0.425       50.659       51.357        1.028      333.429        2.738      863.052
01/02/2015  16:34:00      134.156     -149.045      -22.672       47.395       44.061       24.673     2246.264     1941.328      608.734        2.276        0.240      200.530       25.059        0.016      333.474        2.809      863.047
01/02/2015  16:35:00       89.361     -108.863      -18.486       55.382       50.140       26.203     3067.139     2514.032      686.597        1.322        0.313      140.842       22.106        0.025      333.458        2.785      863.049
01/02/2015  16:36:00       95.876      -87.665      -31.434       48.632       43.745       27.431     2365.112     1913.667      752.476        1.145        0.252      129.913       26.152        0.041      333.426        2.731      863.067
01/02/2015  16:37:00       78.421      -86.463      -17.920       34.362       45.327       21.298     1180.727     2054.500      453.584        0.882        0.184      116.730       12.253        0.011      333.462        2.792      863.094
01/02/2015  16:38:00       61.863      -70.001      -11.948       41.914       41.767       34.965     1756.758     1744.465     1222.557        0.680        0.236       93.420       26.415        0.080      333.573        2.976      863.115
01/02/2015  16:39:00      100.137     -139.839      -28.898       34.957       30.122       18.732     1222.020      907.343      350.873        1.645        0.124      171.995        8.189        0.002      333.551        2.940      863.122
01/02/2015  16:40:00       53.947      -47.435        5.455       50.082       55.522       30.610     2508.228     3082.724      936.978        0.586        0.326       71.836       38.733        0.291      333.382        2.659      863.126
01/02/2015  16:41:00        6.630      -21.889       23.048       27.383       48.598       30.841      749.838     2361.732      951.169        0.256        0.203       22.871       30.228        1.747      333.316        2.550      863.119
01/02/2015  16:42:00      -31.177       -4.805       18.224       23.744       15.860       30.917      563.759      251.526      955.836        0.155        0.089       31.545       18.757        0.354      333.390        2.671      863.103
01/02/2015  16:43:00       -4.176       -0.297       -4.544       15.038       25.994       17.515      226.144      675.664      306.783        0.062        0.060        4.187        6.872        2.694      333.346        2.599      863.106
01/02/2015  16:44:00       -1.125      -27.468       15.058       21.149       22.690       28.335      447.287      514.841      802.873        0.137        0.088       27.491       15.795        0.330      333.305        2.532      863.105
01/02/2015  16:45:00       38.204      -12.445       27.823       49.373       47.311       38.707     2437.693     2238.301     1498.253        0.428        0.309       40.180       37.785        0.884      333.234        2.415      863.094
01/02/2015  16:46:00       -1.349      -10.218       37.412       26.008       38.809       30.264      676.401     1506.149      915.900        0.230        0.155       10.306       25.426        6.086      333.197        2.353      863.089
01/02/2015  16:47:00       39.731      -17.516       41.237       60.850       53.672       40.603     3702.684     2880.679     1648.630        0.591        0.412       43.421       41.041        0.893      333.177        2.320      863.077
01/02/2015  16:48:00        6.718      -41.343       16.992       36.082       45.754       43.737     1301.884     2093.449     1912.902        0.367        0.265       41.886       25.376        0.367      333.218        2.387      863.069
01/02/2015  16:49:00      107.147      -75.220        4.082       48.217       52.685       49.885     2324.902     2775.718     2488.517        1.237        0.379      130.914       38.828        0.088      333.206        2.369      863.057
01/02/2015  16:50:00       -7.473       57.997       89.225       29.355       39.396       28.954      861.702     1552.044      838.330        0.732        0.163       58.476       27.732        0.225      333.175        2.316      863.059
01/02/2015  16:51:00       17.483      -62.171       16.210       45.714       56.445       35.052     2089.726     3186.092     1228.632        0.547        0.325       64.582       40.748        0.398      333.315        2.550      863.057
01/02/2015  16:52:00        6.195        2.438       45.321       35.321       60.525       42.881     1247.589     3663.297     1838.819        0.442        0.337        6.657       45.765       47.262      333.156        2.286      863.041
01/02/2015  16:53:00       62.679      -50.520        8.646       64.873       58.003       43.058     4208.452     3364.369     1854.029        0.799        0.471       80.505       50.118        0.388      333.143        2.264      863.036
01/02/2015  16:54:00       82.512      -61.499        8.394       55.443       59.996       36.877     3073.933     3599.508     1359.949        0.935        0.402      102.909       41.413        0.162      333.147        2.271      863.036
01/02/2015  16:55:00       10.130      -10.515       47.339       31.355       55.618       37.016      983.108     3093.373     1370.205        0.395        0.272       14.601       40.810        7.812      333.080        2.161      863.024
01/02/2015  16:56:00       10.646       -2.855       21.378       29.669       31.392       22.991      880.263      985.486      528.595        0.149        0.120       11.022       13.598        1.522      333.053        2.117      863.008
01/02/2015  16:57:00       39.156      -26.266       21.988       47.256       50.723       32.604     2233.132     2572.844     1063.042        0.429        0.293       47.150       38.307        0.660      333.101        2.197      862.994
01/02/2015  16:58:00        8.270      -31.707       12.819       40.549       37.213       28.845     1644.253     1384.791      832.033        0.255        0.193       32.768       28.093        0.735      333.144        2.265      862.970
01/02/2015  16:59:00      -16.589      -37.240        3.817       17.314       28.269       16.943      299.780      799.148      287.052        0.153        0.069       40.767       16.654        0.167      333.182        2.329      862.957
01/02/2015  17:00:00      -13.976      -15.246        9.771       17.231       30.064       17.186      296.915      903.845      295.342        0.101        0.075       20.683       12.801        0.383      333.100        2.194      862.948
01/02/2015  17:01:00      -18.917        7.157       18.165       10.266       21.705       18.286      105.392      471.098      334.362        0.082        0.046       20.225       13.851        0.469      333.092        2.182      862.945
01/02/2015  17:02:00       -3.115        4.089       18.076       12.772       18.656       21.821      163.123      348.055      476.148        0.067        0.049        5.140       15.572        9.178      332.978        1.991      862.952
01/02/2015  17:03:00        3.287       29.876       37.770       15.065       24.309       10.265      226.942      590.950      105.362        0.163        0.046       30.056       10.014        0.111      333.011        2.046      862.954
01/02/2015  17:04:00       17.692       -6.014       25.841       26.769       31.697       23.349      716.581     1004.729      545.168        0.164        0.113       18.686       24.113        1.665      333.070        2.145      862.977
01/02/2015  17:05:00        3.533       15.552       22.091       25.521       17.431       14.134      651.347      303.846      199.775        0.095        0.058       15.948       13.485        0.715      333.035        2.087      863.011
01/02/2015  17:06:00       -3.817       13.676       34.854        9.863       14.563       11.134       97.275      212.076      123.974        0.092        0.022       14.199       11.008        0.601      332.985        2.005      863.034
01/02/2015  17:07:00       10.205        9.793       27.459       13.467       16.248        9.831      181.368      264.005       96.652        0.075        0.027       14.144        6.498        0.211      332.927        1.909      863.060
01/02/2015  17:08:00      -15.005       -6.461        8.286       25.695       25.603       22.523      660.237      655.491      507.305        0.108        0.091       16.337       16.688        1.043      332.978        1.993      863.078
01/02/2015  17:09:00       -6.995      -18.275        5.868       16.489       15.401       12.281      271.888      237.187      150.821        0.054        0.033       19.568        6.895        0.124      333.053        2.117      863.092
01/02/2015  17:10:00      -24.303        1.269       -1.558       17.674       10.014       11.539      312.373      100.274      133.160        0.057        0.027       24.336        4.283        0.031      332.995        2.021      863.093
01/02/2015  17:11:00      -20.914       33.916       -7.639       33.569       19.992       15.789     1126.860      399.672      249.297        0.171        0.089       39.846       11.419        0.082      332.992        2.015      863.101
01/02/2015  17:12:00      -74.224      -13.294       -7.932       18.603       23.167       12.705      346.074      536.729      161.417        0.340        0.052       75.405        8.243        0.012      332.718        1.564      863.118
01/02/2015  17:13:00      -93.488      -19.413       -4.066       33.185       22.720       16.434     1101.247      516.201      270.079        0.551        0.094       95.482       10.939        0.013      332.396        1.031      863.144
01/02/2015  17:14:00      -40.186       -9.418        1.050       33.373       31.676       22.713     1113.780     1003.338      515.888        0.217        0.132       41.275       17.679        0.183      332.310        0.890      863.172
01/02/2015  17:15:00     -100.158       43.528       -0.552       52.961       34.520       28.169     2804.819     1191.663      793.504        0.836        0.239      109.207       22.330        0.042      332.362        0.974      863.210
01/02/2015  17:16:00      -88.900       29.050      -13.294       26.780       30.624       15.524      717.172      937.825      240.997        0.541        0.095       93.526       11.127        0.014      332.389        1.021      863.252
01/02/2015  17:17:00      -52.843       10.246       -2.694       55.626       26.934       19.869     3094.238      725.430      394.780        0.356        0.211       53.828       16.266        0.091      332.268        0.818      863.273
01/02/2015  17:18:00      -84.781       30.358      -13.204       33.898       27.263       19.453     1149.081      743.272      378.419        0.528        0.114       90.052       14.336        0.025      332.242        0.778      863.294
01/02/2015  17:19:00      -64.920       11.013       -4.269       45.891       36.118       21.831     2106.017     1304.538      476.577        0.412        0.194       65.848       14.989        0.052      332.174        0.666      863.308
01/02/2015  17:20:00      -75.800       21.649      -14.293       40.848       34.483       20.223     1668.545     1189.095      408.982        0.484        0.163       78.831        8.208        0.011      332.172        0.662      863.318
01/02/2015  17:21:00      -72.591       28.446        5.197       47.396       38.533       33.162     2246.407     1484.779     1099.711        0.547        0.242       77.966       19.564        0.063      332.179        0.675      863.341
01/02/2015  17:22:00     -112.631       63.451       -3.946       45.970       31.973       23.098     2113.266     1022.266      533.519        1.020        0.183      129.274       16.888        0.017      332.219        0.740      863.361
01/02/2015  17:23:00      -99.181       25.401       -5.045       32.685       34.023       16.913     1068.280     1157.563      286.063        0.651        0.126      102.382       11.478        0.013      332.344        0.944      863.401
01/02/2015  17:24:00     -102.695       16.593      -13.081       29.484       28.527       17.087      869.326      813.803      291.970        0.648        0.099      104.027       13.105        0.016      332.214        0.731      863.443
01/02/2015  17:25:00     -105.788       37.189      -14.133       27.715       20.448       17.010      768.130      418.109      289.325        0.712        0.074      112.134       14.160        0.016      332.263        0.814      863.489
01/02/2015  17:26:00      -92.774       14.432       -9.541       15.548       24.136       14.254      241.739      582.525      203.179        0.497        0.051       93.890        8.555        0.008      332.267        0.819      863.529
01/02/2015  17:27:00      -92.928       -7.160      -12.442       16.328       18.524       10.248      266.590      343.153      105.017        0.478        0.036       93.203        5.314        0.003      332.126        0.587      863.564
01/02/2015  17:28:00     -104.897      -29.987      -13.307       15.444       22.833       16.700      238.517      521.338      278.889        0.656        0.052      109.099        7.380        0.005      331.989        0.358      863.583
01/02/2015  17:29:00      -95.755      -34.016       -6.838       21.225       29.381       15.126      450.521      863.247      228.802        0.596        0.077      101.617        7.761        0.006      332.047        0.456      863.596
01/02/2015  17:30:00      -74.476      -45.363       -6.146       36.031       25.780       17.781     1298.243      664.585      316.164        0.496        0.114       87.204       15.703        0.032      332.042        0.447      863.587
01/02/2015  17:31:00      -75.248      -52.369       -9.676       21.727       21.418       15.489      472.063      458.720      239.922        0.483        0.059       91.678       14.280        0.024      331.976        0.338      863.565
01/02/2015  17:32:00     -112.074      -31.309      -11.540       21.076       22.069       11.413      444.197      487.046      130.255        0.737        0.053      116.366        4.095        0.001      331.952        0.299      863.535
01/02/2015  17:33:00     -104.164      -29.024       -9.194       22.248       15.803       13.989      494.970      249.744      195.690        0.636        0.047      108.132       12.532        0.013      331.990        0.360      863.519
01/02/2015  17:34:00      -85.402      -26.252       -8.237       17.384       16.719       13.150      302.190      279.526      172.934        0.440        0.038       89.346       10.839        0.015      331.992        0.365      863.530
01/02/2015  17:35:00      -95.628      -18.868       -8.309       20.738       23.784       15.718      430.044      565.696      247.060        0.541        0.062       97.471       10.027        0.011      332.002        0.381      863.548
01/02/2015  17:36:00      -59.842       13.786       -9.126       44.426       36.828       23.901     1973.651     1356.273      571.253        0.388        0.195       61.410       19.098        0.097      332.038        0.441      863.566
01/02/2015  17:37:00      -48.957       27.266      -10.054       32.956       35.351       23.831     1086.122     1249.708      567.916        0.307        0.145       56.038       16.611        0.088      332.144        0.616      863.586
01/02/2015  17:38:00      -58.767       25.065       -6.555       35.617       36.572       23.197     1268.538     1337.494      538.088        0.363        0.157       63.889        9.702        0.023      332.077        0.505      863.612
01/02/2015  17:39:00      -99.331       21.648       -4.798       42.875       27.535       18.396     1838.237      758.169      338.396        0.665        0.147      101.662       17.304        0.029      332.070        0.494      863.621
01/02/2015  17:40:00     -134.501       54.435      -11.067       60.365       34.765       30.334     3643.946     1208.589      920.146        1.347        0.289      145.099       21.771        0.023      331.980        0.345      863.637
01/02/2015  17:41:00     -147.514       48.156      -11.380       45.185       31.955       22.540     2041.680     1021.121      508.038        1.389        0.179      155.175       14.313        0.009      331.992        0.364      863.647
01/02/2015  17:42:00     -150.811       56.264      -17.174       43.130       33.706       25.245     1860.163     1136.121      637.331        1.492        0.182      160.965       19.714        0.015      331.967        0.322      863.645
01/02/2015  17:43:00     -152.354       51.866      -17.192       41.143       30.036       23.553     1692.707      902.155      554.764        1.467        0.157      160.941       17.816        0.012      331.883        0.185      863.639
01/02/2015  17:44:00     -157.604       53.990      -16.250       42.516       25.454       17.965     1807.581      647.911      322.729        1.540        0.139      166.595       10.718        0.004      331.828        0.095      863.621
01/02/2015  17:45:00     -117.869       17.256      -14.684       46.805       36.983       16.825     2190.666     1367.767      283.083        0.912        0.192      119.126       10.687        0.008      331.840        0.115      863.614
01/02/2015  17:46:00     -120.127        6.999      -11.047       41.077       29.286       17.357     1687.353      857.653      301.265        0.872        0.142      120.331       18.049        0.022      331.896        0.207      863.590
01/02/2015  17:47:00     -137.034       23.152       -5.002       34.602       28.132       18.638     1197.285      791.423      347.373        1.084        0.117      138.976       14.210        0.010      331.815        0.073      863.578
01/02/2015  17:48:00     -150.801       26.346      -11.033       27.992       26.951       19.606      783.538      726.331      384.406        1.273        0.095      153.085       12.820        0.007      331.820        0.082      863.576
01/02/2015  17:49:00     -158.428       51.997      -15.509       39.103       32.534       18.336     1529.056     1058.483      336.223        1.548        0.146      166.742        6.830        0.002      331.801        0.051      863.578
01/02/2015  17:50:00     -168.814       53.301      -13.002       33.989       23.944       20.709     1155.251      573.311      428.844        1.683        0.108      177.029       12.489        0.005      331.817        0.078      863.585
01/02/2015  17:51:00     -170.388       47.393      -13.711       24.309       23.280       14.397      590.908      541.939      207.266        1.640        0.067      176.856        8.189        0.002      331.927        0.258      863.612
01/02/2015  17:52:00     -146.454       31.478      -12.172       29.040       21.484       13.040      843.310      461.577      170.034        1.203        0.074      149.798        9.180        0.004      331.847        0.127      863.621
01/02/2015  17:53:00     -135.357       23.390       -9.745       45.000       26.262       23.991     2025.036      689.703      575.567        1.113        0.165      137.363       23.657        0.030      331.815        0.074      863.640
01/02/2015  17:54:00     -158.791       41.207      -15.171       38.336       26.717       24.336     1469.655      713.787      592.239        1.496        0.139      164.051       19.697        0.014      331.797        0.045      863.658
01/02/2015  17:55:00     -141.538       39.645      -12.606       36.459       24.669       16.175     1329.279      608.573      261.620        1.198        0.110      146.985       11.896        0.007      331.784        0.023      863.669
01/02/2015  17:56:00     -129.431       16.761      -11.891       38.300       28.726       18.017     1466.926      825.185      324.620        0.990        0.131      130.512       12.520        0.009      331.744       -0.044      863.678
01/02/2015  17:57:00      -59.570      -12.443        0.503       44.185       27.653       21.249     1952.309      764.671      451.519        0.344        0.158       60.855       25.020        0.169      331.678       -0.150      863.677
01/02/2015  17:58:00      -53.929       -6.328        0.156       41.945       23.731       20.063     1759.349      563.171      402.541        0.284        0.136       54.299       19.843        0.134      331.606       -0.269      863.672
01/02/2015  17:59:00     -107.269       -6.743       -5.826       34.484       24.320       20.354     1189.164      591.460      414.304        0.689        0.110      107.481       20.506        0.036      331.584       -0.306      863.687
01/02/2015  18:00:00     -132.965      -15.134      -12.606       34.851       21.368       19.272     1214.580      456.570      371.406        1.005        0.102      133.824       20.423        0.023      331.641       -0.212      863.721
01/02/2015  18:01:00     -138.063      -12.483      -11.004       32.145       25.055       19.982     1033.324      627.769      399.277        1.070        0.103      138.626       16.253        0.014      331.592       -0.293      863.768
01/02/2015  18:02:00      -94.750      -12.205       -4.885       36.944       32.106       27.705     1364.851     1030.816      767.589        0.616        0.158       95.533       20.966        0.048      331.524       -0.405      863.813
01/02/2015  18:03:00      -64.023      -12.803       -2.087       45.823       32.402       23.663     2099.754     1049.910      559.941        0.399        0.185       65.290       22.603        0.120      331.546       -0.369      863.840
01/02/2015  18:04:00     -106.105       12.089      -19.386       40.806       41.167       21.533     1665.110     1694.703      463.654        0.780        0.191      106.791       22.860        0.046      331.533       -0.391      863.853
01/02/2015  18:05:00      -96.384        9.897       -8.106       54.882       42.758       28.464     3011.998     1828.271      810.205        0.755        0.283       96.891       30.702        0.100      331.518       -0.415      863.853
01/02/2015  18:06:00      -91.387      -16.931       -9.333       56.837       28.150       21.228     3230.401      792.403      450.608        0.660        0.224       92.942       20.450        0.048      331.449       -0.529      863.854
01/02/2015  18:07:00     -102.714       -9.667       -1.372       54.709       33.725       24.756     2993.073     1137.364      612.880        0.769        0.237      103.167       27.798        0.073      331.359       -0.676      863.860
01/02/2015  18:08:00     -116.838      -36.334       -4.532       26.976       29.870       18.785      727.682      892.200      352.885        0.848        0.099      122.357       16.366        0.018      331.386       -0.633      863.874
01/02/2015  18:09:00     -117.750      -41.586       -7.823       23.490       18.810       14.006      551.800      353.818      196.160        0.838        0.055      124.878       12.397        0.010      331.505       -0.437      863.897
01/02/2015  18:10:00      -79.658      -49.585        1.424       47.435       21.913       19.139     2250.077      480.166      366.317        0.595        0.155       93.830       17.147        0.033      331.567       -0.335      863.910
01/02/2015  18:11:00      -88.006      -50.277       -5.470       33.560       26.139       18.139     1126.252      683.261      329.020        0.622        0.107      101.355       12.583        0.015      331.560       -0.346      863.926
01/02/2015  18:12:00      -89.022      -12.598       -0.988       26.327       20.211       14.273      693.092      408.467      203.725        0.469        0.065       89.909       12.930        0.021      331.563       -0.341      863.917
01/02/2015  18:13:00      -76.509      -37.108       -1.257       14.967       13.904       11.040      224.010      193.323      121.879        0.389        0.027       85.033        5.830        0.005      331.660       -0.181      863.908
01/02/2015  18:14:00      -45.798      -28.962        6.418       31.800       21.323       15.824     1011.233      454.665      250.409        0.235        0.086       54.187       10.465        0.037      331.547       -0.368      863.878
01/02/2015  18:15:00      -19.835      -16.773        2.680       24.967       22.556       15.402      623.372      508.752      237.236        0.103        0.068       25.976        7.854        0.091      331.544       -0.373      863.858
01/02/2015  18:16:00      -14.080      -23.330        3.744       13.953       14.488       10.561      194.700      209.916      111.539        0.064        0.026       27.250       10.101        0.137      331.564       -0.340      863.849
01/02/2015  18:17:00      -44.303       -5.597       -4.071       18.196       17.604        8.032      331.096      309.895       64.509        0.136        0.035       44.656        7.602        0.029      331.583       -0.309      863.864
01/02/2015  18:18:00      -52.187       11.306       -3.923       15.197       11.085        8.744      230.934      122.887       76.452        0.165        0.022       53.397        5.428        0.010      331.613       -0.258      863.861
01/02/2015  18:19:00      -70.426        4.774      -14.433       10.896        9.252        7.288      118.732       85.596       53.121        0.272        0.013       70.588        3.450        0.002      331.599       -0.282      863.856
01/02/2015  18:20:00      -85.339      -16.756      -19.329        6.618        7.984        6.631       43.797       63.752       43.976        0.404        0.008       86.969        4.217        0.002      331.574       -0.323      863.849
01/02/2015  18:21:00      -77.186      -17.686      -12.703       11.542       16.568        8.324      133.221      274.505       69.296        0.345        0.024       79.186        2.037        0.001      331.598       -0.284      863.838
01/02/2015  18:22:00      -73.949      -21.140       -6.443       11.963       15.717        8.864      143.117      247.011       78.578        0.321        0.023       76.911        4.900        0.004      331.523       -0.407      863.850
01/02/2015  18:23:00      -68.251       -5.110       -6.277       10.853       10.681        7.238      117.793      114.084       52.384        0.250        0.014       68.442        4.346        0.004      331.542       -0.378      863.847
01/02/2015  18:24:00      -68.874       -4.191      -11.309        7.689        7.659        7.482       59.126       58.663       55.975        0.253        0.009       69.001        5.167        0.006      331.522       -0.409      863.845
01/02/2015  18:25:00      -55.267        0.938       -9.752       10.705        9.204        7.562      114.598       84.722       57.183        0.170        0.013       55.275        2.241        0.002      331.558       -0.350      863.840
01/02/2015  18:26:00      -69.627        4.663       -8.771        6.244        6.320        7.028       38.994       39.939       49.396        0.254        0.006       69.783        3.457        0.002      331.475       -0.488      863.834
01/02/2015  18:27:00      -66.655        6.235       -9.210        7.269        5.581        5.905       52.835       31.144       34.870        0.234        0.006       66.946        1.378        0.000      331.486       -0.467      863.837
01/02/2015  18:28:00      -49.499        7.115       -5.431        8.736        8.636        7.757       76.314       74.579       60.176        0.137        0.011       50.008        3.952        0.006      331.538       -0.382      863.843
01/02/2015  18:29:00      -14.882       17.377       -2.687       19.113        7.380        7.549      365.296       54.466       56.992        0.050        0.024       22.879        9.888        0.187      331.628       -0.235      863.848
01/02/2015  18:30:00        6.385       12.847        3.267        6.089        4.532        4.687       37.078       20.537       21.971        0.015        0.004       14.346        2.701        0.035      331.688       -0.135      863.854
01/02/2015  18:31:00       19.990       13.189        2.667        5.053        4.137        4.139       25.533       17.117       17.134        0.032        0.003       23.949        3.445        0.021      331.759       -0.017      863.868
01/02/2015  18:32:00       33.726       13.117        4.198        7.303        7.741        5.598       53.339       59.922       31.338        0.074        0.007       36.187        5.864        0.026      331.813        0.068      863.893
01/02/2015  18:33:00       26.439        5.010        4.157        5.887        7.358        8.730       34.661       54.139       76.221        0.045        0.008       26.909        3.249        0.015      331.775        0.009      863.908
01/02/2015  18:34:00       51.940        4.180       11.117       25.171       32.367       17.986      633.571     1047.614      323.496        0.242        0.100       52.108       12.925        0.062      331.844        0.122      863.923
01/02/2015  18:35:00       38.260       18.846       16.503       17.715       15.481        9.709      313.818      239.649       94.266        0.137        0.032       42.650        5.764        0.018      331.736       -0.055      863.939
01/02/2015  18:36:00       41.801       15.400       10.347       15.350       13.306       12.158      235.619      177.040      147.823        0.133        0.028       44.547        8.604        0.037      331.857        0.142      863.972
01/02/2015  18:37:00       48.363       27.432       21.344       24.342       22.093       16.486      592.528      488.092      271.781        0.245        0.068       55.601       13.700        0.061      331.745       -0.041      863.998
01/02/2015  18:38:00       48.185       40.734       31.582       36.475       23.218       24.119     1330.397      539.092      581.728        0.371        0.123       63.095       14.645        0.054      331.821        0.084      864.017
01/02/2015  18:39:00       59.482       46.597       27.557       31.920       24.396       21.006     1018.873      595.141      441.270        0.426        0.103       75.561       16.637        0.048      331.829        0.094      864.021
01/02/2015  18:40:00       50.539       49.412       33.140       31.773       17.409       18.847     1009.511      303.061      355.227        0.388        0.083       70.681       17.886        0.064      331.806        0.060      864.028
01/02/2015  18:41:00       53.269       46.634       36.142       23.762       17.107       20.255      564.637      292.662      410.273        0.379        0.063       70.798       17.969        0.064      331.718       -0.087      864.042
01/02/2015  18:42:00       63.634       32.672       13.305       23.188       18.957       15.649      537.694      359.383      244.896        0.322        0.057       71.531       10.627        0.022      331.629       -0.232      864.045
01/02/2015  18:43:00       47.302        8.451       11.459       23.495       18.461       15.864      552.032      340.797      251.674        0.179        0.057       48.051       10.565        0.048      331.620       -0.247      864.040
01/02/2015  18:44:00       26.037       13.941       21.638       33.317       17.050       15.102     1110.032      290.706      228.079        0.148        0.081       29.534       11.863        0.161      331.530       -0.395      864.045
01/02/2015  18:45:00       19.609       24.122       33.999       29.088       22.517       16.200      846.094      506.996      262.448        0.187        0.081       31.087       17.947        0.333      331.593       -0.291      864.072
01/02/2015  18:46:00       -8.228       17.658       23.201       14.485       14.507        9.710      209.827      210.444       94.290        0.072        0.026       19.481        9.804        0.253      331.554       -0.355      864.091
01/02/2015  18:47:00      -21.010        8.014       10.149        8.712       11.924       10.851       75.894      142.192      117.744        0.047        0.017       22.487        8.919        0.157      331.340       -0.707      864.107
01/02/2015  18:48:00      -28.279      -21.820      -10.712       15.674        5.744        8.698      245.672       32.992       75.653        0.087        0.018       35.719        8.106        0.052      331.269       -0.824      864.124
01/02/2015  18:49:00      -22.082      -18.805       -8.043       11.137        7.806        5.390      124.023       60.930       29.057        0.056        0.011       29.004        2.579        0.008      331.301       -0.772      864.140
01/02/2015  18:50:00      -29.200      -10.455       -5.949       17.183        6.679        4.613      295.240       44.602       21.280        0.068        0.018       31.015        4.574        0.022      331.404       -0.602      864.143
01/02/2015  18:51:00      -21.135       -1.532      -12.023       15.512       10.749        8.411      240.636      115.545       70.753        0.051        0.021       21.191        5.832        0.076      331.526       -0.403      864.144
01/02/2015  18:52:00        7.425        6.420       30.442       32.610       23.074       19.093     1063.400      532.395      364.538        0.149        0.098        9.816       13.500        1.891      331.545       -0.371      864.144
01/02/2015  18:53:00      -13.710        2.269       14.536       24.128       13.433       21.492      582.150      180.443      461.895        0.081        0.061       13.896       20.447        2.165      331.415       -0.584      864.148
01/02/2015  18:54:00       -8.899        8.354       -1.661        7.981       10.180        6.843       63.698      103.642       46.832        0.018        0.011       12.206        3.328        0.074      331.305       -0.766      864.162
01/02/2015  18:55:00      -31.328       33.690       14.549       19.755       21.232       23.805      390.241      450.817      566.678        0.187        0.070       46.005        9.729        0.045      331.410       -0.592      864.167
01/02/2015  18:56:00      -38.220        1.096       -3.005       13.664       10.986        7.896      186.712      120.696       62.352        0.092        0.018       38.235        6.119        0.026      331.307       -0.761      864.175
01/02/2015  18:57:00      -64.514       -0.267       -7.279       11.962        8.825        7.582      143.084       77.886       57.492        0.225        0.014       64.515        2.835        0.002      331.303       -0.770      864.173
01/02/2015  18:58:00      -86.063      -23.789      -11.322       13.529       16.690       10.312      183.038      278.559      106.343        0.433        0.028       89.290        1.769        0.000      331.197       -0.942      864.163
01/02/2015  18:59:00      -61.141      -15.273       -2.373       28.043       21.190       15.612      786.431      449.006      243.737        0.273        0.074       63.020       13.313        0.045      331.036       -1.208      864.156
01/02/2015  19:00:00      -45.831      -38.019       -0.837       21.951       14.648       17.793      481.851      214.552      316.594        0.228        0.051       59.547       14.686        0.061      331.011       -1.247      864.151
01/02/2015  19:01:00       -6.312       -7.928        4.800       12.991       14.059        8.695      168.771      197.651       75.595        0.028        0.022       10.133        3.812        0.142      331.011       -1.249      864.142
01/02/2015  19:02:00       -9.212        9.578        1.390        6.555       10.379        5.262       42.963      107.714       27.692        0.018        0.009       13.289        5.279        0.158      331.104       -1.097      864.129
01/02/2015  19:03:00       -8.505       12.617       -0.754        8.894        7.490        6.538       79.097       56.102       42.741        0.020        0.009       15.216        6.031        0.157      331.182       -0.968      864.117
01/02/2015  19:04:00      -33.059       14.789        2.751        8.518        9.322        5.426       72.553       86.901       29.443        0.075        0.009       36.216        3.883        0.011      331.227       -0.893      864.115
01/02/2015  19:05:00       -8.374       -2.165        0.715       14.573        7.885        6.918      212.385       62.166       47.860        0.020        0.016        8.649        7.559        0.764      331.233       -0.884      864.123
01/02/2015  19:06:00      -11.791      -10.682       -0.106        8.611       10.460        7.461       74.152      109.408       55.664        0.025        0.012       15.910        4.747        0.089      331.220       -0.906      864.144
01/02/2015  19:07:00      -42.331        4.657      -11.669        9.705        5.682        7.010       94.185       32.286       49.137        0.106        0.009       42.586        4.233        0.010      331.241       -0.868      864.162
01/02/2015  19:08:00      -32.464        7.656       -0.836        8.742        6.848        6.312       76.414       46.889       39.840        0.064        0.008       33.355        3.465        0.011      331.264       -0.831      864.193
01/02/2015  19:09:00      -46.475       -1.086       -7.377        8.298       12.110        7.857       68.863      146.644       61.739        0.125        0.014       46.488        6.854        0.022      331.240       -0.873      864.216
01/02/2015  19:10:00      -53.253       -9.271      -11.132        9.788        9.918        6.011       95.811       98.364       36.128        0.164        0.012       54.054        3.163        0.003      330.988       -1.286      864.229
01/02/2015  19:11:00      -67.827       -0.282      -11.330        8.883        7.254        8.110       78.916       52.614       65.778        0.246        0.010       67.828        2.718        0.002      330.964       -1.326      864.234
01/02/2015  19:12:00      -58.157        1.615      -11.877        9.888        7.191        7.444       97.769       51.715       55.409        0.187        0.010       58.179        4.648        0.006      330.865       -1.490      864.245
01/02/2015  19:13:00      -31.981       -5.978       -5.135        9.254        7.768        5.848       85.630       60.349       34.194        0.063        0.009       32.535        4.763        0.021      330.864       -1.490      864.269
01/02/2015  19:14:00      -32.612      -11.985       -6.772        8.555       10.192        7.567       73.192      103.870       57.259        0.074        0.012       34.745        5.314        0.023      330.869       -1.483      864.281
01/02/2015  19:15:00      -31.915       -6.764       -7.416        8.804        9.438        5.812       77.510       89.072       33.774        0.066        0.010       32.624        4.442        0.019      330.880       -1.465      864.298
01/02/2015  19:16:00      -28.002       -7.684       -2.922        8.683        6.337        6.510       75.402       40.159       42.386        0.050        0.008       29.037        3.626        0.016      330.889       -1.449      864.316
01/02/2015  19:17:00      -29.461       -4.287       -1.600       14.355        8.216        6.606      206.068       67.497       43.638        0.060        0.016       29.772        5.230        0.031      330.874       -1.473      864.326
01/02/2015  19:18:00      -27.573      -13.175       -7.481        9.374        9.253        6.394       87.879       85.619       40.888        0.060        0.011       30.559        4.002        0.017      330.860       -1.497      864.336
01/02/2015  19:19:00      -19.559      -16.508       -5.199       11.721        6.678        4.894      137.379       44.593       23.953        0.044        0.010       25.594        4.087        0.026      330.887       -1.451      864.344
01/02/2015  19:20:00      -16.534      -30.181       -6.123        9.663        7.076       10.910       93.373       50.066      119.030        0.074        0.013       34.413        3.551        0.011      330.903       -1.425      864.355
01/02/2015  19:21:00      -22.716      -11.571       -5.055       11.097        7.441        5.155      123.154       55.373       26.575        0.044        0.010       25.493        3.653        0.021      330.841       -1.529      864.354
01/02/2015  19:22:00      -22.980       -9.652       -6.497       14.197        7.857        6.089      201.567       61.730       37.078        0.048        0.015       24.925        5.080        0.042      330.812       -1.575      864.354
01/02/2015  19:23:00      -39.092      -17.745       -9.912       18.192       11.872        8.451      330.941      140.951       71.424        0.124        0.027       42.931        5.272        0.015      330.863       -1.491      864.352
01/02/2015  19:24:00      -49.687      -24.876      -12.432       10.770       12.864        7.657      115.994      165.481       58.627        0.179        0.017       55.566        2.890        0.003      330.670       -1.808      864.346
01/02/2015  19:25:00      -56.244      -26.204       -3.751       10.816       13.944        6.915      116.996      194.431       47.816        0.211        0.018       62.048        5.894        0.009      330.557       -1.994      864.337
01/02/2015  19:26:00      -82.109      -15.226      -11.774       18.447       20.211       12.517      340.308      408.491      156.666        0.401        0.045       83.509        8.478        0.010      330.539       -2.023      864.330
01/02/2015  19:27:00     -100.642        3.045      -15.452       17.368        9.090       12.029      301.634       82.623      144.705        0.545        0.026      100.688        7.934        0.006      330.529       -2.038      864.344
01/02/2015  19:28:00      -90.895       -7.998      -19.572       16.027       12.670       10.619      256.851      160.532      112.762        0.462        0.027       91.246        4.926        0.003      330.541       -2.021      864.355
01/02/2015  19:29:00      -98.517       -7.100      -13.213       18.356       12.055       12.123      336.926      145.320      146.965        0.528        0.031       98.772        8.293        0.007      330.597       -1.929      864.374
01/02/2015  19:30:00      -72.785      -12.139      -18.309       12.325       13.758       10.327      151.894      189.292      106.649        0.311        0.022       73.790        7.652        0.011      330.611       -1.907      864.396
01/02/2015  19:31:00      -71.258      -16.467      -15.194        8.501       11.307        8.152       72.259      127.837       66.452        0.292        0.013       73.136        3.602        0.002      330.605       -1.916      864.406
01/02/2015  19:32:00      -90.171       -8.241      -15.651       14.043       10.554       11.484      197.209      111.394      131.890        0.444        0.022       90.547        7.384        0.007      330.531       -2.036      864.410
01/02/2015  19:33:00     -113.845      -20.500      -21.705       13.162       15.497       11.881      173.245      240.162      141.167        0.720        0.028      115.676        4.205        0.001      330.549       -2.006      864.410
01/02/2015  19:34:00     -124.302      -21.000      -22.216       23.153       19.980       13.676      536.056      399.211      187.035        0.875        0.056      126.064        7.717        0.004      330.535       -2.030      864.415
01/02/2015  19:35:00     -103.968      -29.493      -23.779       18.363       19.676       15.405      337.205      387.128      237.323        0.660        0.048      108.070        6.631        0.004      330.525       -2.047      864.430
01/02/2015  19:36:00      -95.841      -35.884      -13.958       12.537       20.116       12.299      157.167      404.637      151.268        0.569        0.036      102.339        8.275        0.007      330.526       -2.044      864.447
01/02/2015  19:37:00      -93.740      -24.589      -11.961       28.040       27.621       20.777      786.260      762.924      431.698        0.576        0.099       96.911       17.544        0.033      330.514       -2.063      864.460
01/02/2015  19:38:00     -120.298      -12.059      -12.073       36.317       29.853       18.633     1318.918      891.222      347.185        0.866        0.128      120.901       17.852        0.022      330.431       -2.200      864.465
01/02/2015  19:39:00     -119.813      -23.324      -18.858       25.743       20.970       17.131      662.722      439.720      293.479        0.833        0.070      122.062       12.122        0.010      330.435       -2.194      864.477
01/02/2015  19:40:00     -125.910      -17.882      -15.652       28.666       18.533       16.611      821.730      343.475      275.942        0.893        0.072      127.173       14.485        0.013      330.477       -2.126      864.481
01/02/2015  19:41:00     -107.564      -42.899      -10.863       27.948       23.437       18.956      781.105      549.300      359.326        0.761        0.084      115.803       17.895        0.024      330.452       -2.165      864.494
01/02/2015  19:42:00      -94.656      -40.025      -17.363       30.465       29.720       14.322      928.121      883.252      205.121        0.644        0.101      102.770       13.779        0.018      330.452       -2.165      864.507
01/02/2015  19:43:00     -100.584        7.712      -15.076       32.858       26.298       20.350     1079.640      691.561      414.105        0.629        0.109      100.879       15.396        0.023      330.463       -2.148      864.513
01/02/2015  19:44:00      -78.510        0.273      -13.796       20.921       23.243       20.481      437.671      540.223      419.485        0.388        0.070       78.510       10.212        0.017      330.399       -2.254      864.508
01/02/2015  19:45:00      -86.886       -4.927      -16.988       28.311       28.782       20.051      801.541      828.409      402.060        0.495        0.102       87.026       16.685        0.037      330.399       -2.253      864.499
01/02/2015  19:46:00      -75.320       -0.358       -5.012       38.782       25.349       24.144     1504.079      642.569      582.937        0.421        0.136       75.321       21.938        0.085      330.330       -2.364      864.507
01/02/2015  19:47:00     -108.789      -29.705      -11.618       24.910       22.752       14.666      620.515      517.658      215.092        0.710        0.068      112.771        9.125        0.007      330.353       -2.329      864.496
01/02/2015  19:48:00      -89.592      -33.708       -7.693       29.273       22.517       16.287      856.881      507.010      265.265        0.543        0.081       95.724       12.959        0.018      330.330       -2.367      864.482
01/02/2015  19:49:00      -74.592      -15.536      -13.941       23.466       22.043       14.467      550.657      485.912      209.302        0.362        0.062       76.192       10.708        0.020      330.358       -2.320      864.477
01/02/2015  19:50:00      -59.332      -17.883      -10.561       22.053       19.259       13.961      486.324      370.916      194.922        0.250        0.053       61.968        9.816        0.025      330.424       -2.212      864.463
01/02/2015  19:51:00      -60.880      -21.672       -3.937       15.538       16.245       11.705      241.417      263.895      137.010        0.242        0.032       64.622        8.909        0.019      330.439       -2.187      864.470
01/02/2015  19:52:00      -50.819      -13.769      -13.759        9.836       15.298        9.275       96.739      234.042       86.028        0.169        0.021       52.652        5.929        0.013      330.530       -2.038      864.478
01/02/2015  19:53:00      -33.517       -9.619      -20.668       13.978       13.922       10.183      195.383      193.812      103.689        0.107        0.025       34.870        5.802        0.028      330.817       -1.568      864.479
01/02/2015  19:54:00      -34.200       -6.066      -11.312       14.597        8.752        8.009      213.077       76.600       64.142        0.084        0.018       34.734        5.154        0.022      330.774       -1.638      864.471
01/02/2015  19:55:00      -19.522       -3.641       -7.143       13.878       13.991        5.711      192.599      195.739       32.614        0.043        0.021       19.859        4.401        0.049      330.806       -1.585      864.466
01/02/2015  19:56:00        9.002       20.012        5.560        6.422        6.122        4.350       41.239       37.475       18.919        0.031        0.005       21.944        2.731        0.015      331.286       -0.796      864.451
01/02/2015  19:57:00       12.881       25.226        7.019        7.328        7.482        5.164       53.704       55.987       26.663        0.049        0.007       28.324        3.337        0.014      331.257       -0.845      864.433
01/02/2015  19:58:00        3.370       32.549       -1.473        8.832        5.282        4.430       78.002       27.901       19.623        0.060        0.006       32.723        3.940        0.014      331.345       -0.697      864.433
01/02/2015  19:59:00        2.424       39.690       -5.222        4.582        5.170        3.874       20.994       26.727       15.010        0.084        0.003       39.764        2.086        0.003      331.379       -0.642      864.436
01/02/2015  20:00:00       -1.578       41.632       -1.173       10.478        8.790        4.591      109.793       77.267       21.075        0.097        0.010       41.662        4.248        0.010      331.394       -0.618      864.437
01/02/2015  20:01:00      -24.877        7.344       -3.312       10.750       20.840        6.776      115.555      434.287       45.917        0.064        0.030       25.938        7.114        0.075      330.819       -1.564      864.431
01/02/2015  20:02:00      -22.109       -9.721      -10.180       15.604       11.664        8.317      243.479      136.049       69.173        0.057        0.022       24.152        2.817        0.014      330.863       -1.491      864.435
01/02/2015  20:03:00      -37.425      -25.744      -12.651        8.385        8.976        8.148       70.308       80.564       66.386        0.122        0.011       45.424        5.180        0.013      330.495       -2.097      864.430
01/02/2015  20:04:00      -50.313      -25.246      -17.025        6.686        9.822        7.882       44.704       96.462       62.132        0.183        0.010       56.292        2.587        0.002      330.495       -2.095      864.430
01/02/2015  20:05:00      -56.022      -28.430      -17.841       10.158       10.489        8.645      103.182      110.021       74.737        0.228        0.014       62.823        4.570        0.005      330.385       -2.277      864.434
01/02/2015  20:06:00      -60.956      -28.289      -14.910       13.172       11.608        7.862      173.496      134.756       61.818        0.255        0.019       67.200        5.050        0.006      330.392       -2.263      864.446
01/02/2015  20:07:00      -73.845      -20.385      -17.737       12.840       13.544        8.312      164.860      183.453       69.083        0.330        0.021       76.607        6.135        0.006      330.289       -2.433      864.457
01/02/2015  20:08:00      -65.094      -17.029      -13.999       11.809       12.080       10.810      139.447      145.915      116.867        0.256        0.020       67.285        6.515        0.009      330.285       -2.440      864.454
01/02/2015  20:09:00      -77.416      -14.953      -22.350       10.713       10.425        8.429      114.778      108.677       71.055        0.351        0.015       78.847        4.284        0.003      330.230       -2.531      864.449
01/02/2015  20:10:00      -67.583      -23.063      -20.201       13.554        9.306        9.024      183.714       86.609       81.427        0.293        0.018       71.410        2.547        0.001      330.258       -2.485      864.437
01/02/2015  20:11:00      -84.010      -14.534      -15.229       14.204       14.340       10.479      201.763      205.631      109.811        0.401        0.026       85.258        7.111        0.007      330.149       -2.664      864.431
01/02/2015  20:12:00      -86.168      -18.853      -18.006       16.223       17.686       12.554      263.189      312.789      157.613        0.442        0.037       88.207        9.524        0.012      330.218       -2.549      864.433
01/02/2015  20:13:00      -89.859      -27.075      -15.143       16.158       13.001        9.855      261.087      169.013       97.128        0.478        0.026       93.849        6.356        0.005      330.135       -2.687      864.426
01/02/2015  20:14:00      -83.233      -23.436      -15.002       15.226       12.922        9.140      231.836      166.987       83.546        0.409        0.024       86.470        6.739        0.006      330.176       -2.620      864.416
01/02/2015  20:15:00      -90.486       -6.591      -12.399       13.540       15.308       13.757      183.326      234.345      189.269        0.450        0.030       90.726        7.037        0.006      330.115       -2.719      864.404
01/02/2015  20:16:00      -93.087      -14.128      -20.002       16.222       13.795        9.627      263.160      190.306       92.682        0.491        0.027       94.153        4.667        0.002      330.140       -2.679      864.396
01/02/2015  20:17:00      -85.635      -20.330      -16.877       15.702       18.219        9.750      246.567      331.932       95.053        0.435        0.034       88.016        7.305        0.007      330.130       -2.695      864.380
01/02/2015  20:18:00      -97.354      -21.848      -19.183       16.265       15.624       13.205      264.550      244.094      174.385        0.550        0.034       99.775        7.880        0.006      330.145       -2.671      864.355
01/02/2015  20:19:00      -91.468      -36.783      -21.360       21.804       17.661       12.825      475.433      311.894      164.469        0.556        0.048       98.587       10.853        0.012      330.161       -2.647      864.336
01/02/2015  20:20:00     -104.647      -18.460      -17.396       11.490       16.047       14.725      132.019      257.491      216.811        0.610        0.030      106.263        5.721        0.003      330.140       -2.678      864.313
01/02/2015  20:21:00      -98.069      -23.510      -13.887       20.349       15.956       14.203      414.073      254.581      201.730        0.562        0.044      100.848       11.484        0.013      330.193       -2.593      864.304
01/02/2015  20:22:00      -99.821      -19.706      -13.247       18.553       22.695       15.065      344.201      515.061      226.952        0.581        0.054      101.748        6.834        0.005      330.132       -2.692      864.302
01/02/2015  20:23:00     -133.339        0.034      -19.020       25.899       20.683       14.932      670.745      427.792      222.972        0.973        0.066      133.339        8.328        0.004      330.043       -2.836      864.317
01/02/2015  20:24:00     -149.721      -20.492      -18.157       19.583       23.670       17.135      383.498      560.264      293.615        1.220        0.062      151.116       12.694        0.007      330.010       -2.890      864.319
01/02/2015  20:25:00     -133.443      -19.347      -18.543       36.477       20.589       20.434     1330.565      423.919      417.537        1.035        0.109      134.838       21.469        0.025      329.991       -2.922      864.321
01/02/2015  20:26:00     -112.755      -27.338      -10.879       24.419       19.839       17.138      596.298      393.592      293.725        0.743        0.064      116.022       15.018        0.017      329.974       -2.950      864.322
01/02/2015  20:27:00     -113.639      -23.494      -19.287       17.396       18.588       16.310      302.629      345.501      266.006        0.738        0.046      116.042       11.519        0.010      329.979       -2.941      864.330
01/02/2015  20:28:00     -125.007      -32.488      -18.015       25.711       28.103       15.568      661.076      789.773      242.367        0.935        0.085      129.160        2.825        0.000      330.021       -2.873      864.350
01/02/2015  20:29:00     -103.357      -33.007      -18.911       42.908       25.216       16.907     1841.134      635.822      285.838        0.745        0.138      108.499       13.546        0.016      330.019       -2.875      864.365
01/02/2015  20:30:00      -84.683      -18.613      -12.207       30.305       26.622       18.750      918.381      708.734      351.573        0.482        0.099       86.704       11.752        0.018      330.039       -2.843      864.373
01/02/2015  20:31:00      -77.438      -28.348       -8.657       19.211       26.478       13.380      369.079      701.059      179.014        0.406        0.062       82.464       10.136        0.015      330.012       -2.889      864.382
01/02/2015  20:32:00      -85.303      -24.977      -12.059       20.809       17.792       13.488      433.033      316.569      181.926        0.449        0.047       88.884        9.979        0.013      329.997       -2.912      864.385
01/02/2015  20:33:00     -102.068       -8.355      -14.202       23.918       14.839       14.429      572.085      220.182      208.203        0.584        0.050      102.409        9.408        0.008      329.986       -2.932      864.385
01/02/2015  20:34:00     -103.059      -24.002      -17.676       22.993       14.246       12.944      528.685      202.943      167.558        0.620        0.045      105.817       12.150        0.013      330.001       -2.906      864.385
01/02/2015  20:35:00      -85.869      -33.240       -4.363       25.263       25.093       21.358      638.234      629.650      456.155        0.511        0.086       92.079       17.473        0.036      330.047       -2.831      864.386
01/02/2015  20:36:00     -102.737      -21.948      -17.735       12.528       18.324       13.319      156.944      335.755      177.401        0.601        0.034      105.055        4.351        0.002      330.095       -2.753      864.399
01/02/2015  20:37:00     -113.645      -16.648      -19.997       23.160       15.733       13.869      536.394      247.513      192.339        0.728        0.049      114.858        7.311        0.004      330.056       -2.816      864.403
01/02/2015  20:38:00     -100.943      -25.054       -7.352       27.281       19.168       15.908      744.278      367.405      253.068        0.612        0.068      104.006       12.894        0.015      330.040       -2.841      864.394
01/02/2015  20:39:00     -105.906      -28.830      -14.410       19.966       25.405       11.432      398.646      645.393      130.686        0.671        0.059      109.760        6.563        0.004      329.980       -2.938      864.399
01/02/2015  20:40:00      -92.761      -27.028      -14.194       18.088       19.081       13.565      327.191      364.086      183.999        0.521        0.044       96.618        6.149        0.004      330.040       -2.843      864.395
01/02/2015  20:41:00      -95.148      -18.296      -16.185       12.916       11.694       12.603      166.813      136.753      158.836        0.506        0.023       96.891        7.238        0.006      330.022       -2.871      864.392
01/02/2015  20:42:00     -102.188      -33.521      -16.168       12.288       13.661       10.741      150.985      186.617      115.361        0.614        0.023      107.546        6.794        0.004      330.037       -2.848      864.393
01/02/2015  20:43:00     -111.393      -18.982      -18.010       13.374       14.761       13.066      178.872      217.885      170.712        0.683        0.028      112.998       10.247        0.008      329.999       -2.909      864.397
01/02/2015  20:44:00     -109.315      -18.138      -14.228       15.266       18.926       12.316      233.042      358.204      151.693        0.661        0.037      110.810        5.607        0.003      330.013       -2.885      864.388
01/02/2015  20:45:00      -99.808      -20.080      -13.179       25.467       22.379       13.380      648.572      500.840      179.019        0.593        0.066      101.807       10.933        0.012      329.992       -2.921      864.379
01/02/2015  20:46:00     -102.079      -22.241      -13.930       23.226       18.719       13.102      539.437      350.387      171.664        0.608        0.053      104.474       10.575        0.010      330.005       -2.899      864.384
01/02/2015  20:47:00     -117.005      -18.211      -17.219       18.362       20.159       19.108      337.156      406.388      365.120        0.771        0.055      118.414       11.475        0.009      329.964       -2.965      864.383
01/02/2015  20:48:00      -96.843      -23.105      -13.330       18.865       23.785       16.475      355.883      565.744      271.427        0.564        0.060       99.561       12.204        0.015      329.945       -2.996      864.376
01/02/2015  20:49:00      -98.769      -23.896      -13.543       15.387       18.076       14.376      236.769      326.746      206.682        0.564        0.039      101.619        7.751        0.006      329.925       -3.031      864.379
01/02/2015  20:50:00      -82.946      -32.778      -14.648       22.217       23.291       13.364      493.605      542.487      178.586        0.469        0.061       89.188       10.764        0.015      329.928       -3.026      864.377
01/02/2015  20:51:00      -80.861      -47.398      -10.481       21.347       20.303       15.754      455.695      412.223      248.204        0.501        0.056       93.729        6.442        0.005      329.948       -2.992      864.371
01/02/2015  20:52:00     -100.394      -42.639      -10.518       21.330       22.324       14.502      454.965      498.351      210.300        0.659        0.058      109.074       12.064        0.012      329.902       -3.069      864.354
01/02/2015  20:53:00      -96.601      -40.858      -10.612       19.575       18.474       16.151      383.187      341.273      260.845        0.605        0.049      104.886        9.535        0.008      329.942       -3.004      864.343
01/02/2015  20:54:00      -99.932      -38.373      -23.120       22.853       17.464       14.817      522.254      304.984      219.541        0.652        0.052      107.047        9.511        0.008      329.983       -2.936      864.329
01/02/2015  20:55:00     -107.034      -12.846      -14.519       17.219       19.915       16.584      296.486      396.590      275.035        0.640        0.048      107.802        8.419        0.006      329.929       -3.023      864.317
01/02/2015  20:56:00      -89.678      -38.428       -9.839       14.245       14.269       18.347      202.916      203.591      336.601        0.518        0.037       97.565        6.064        0.004      329.896       -3.077      864.330
01/02/2015  20:57:00      -91.414      -32.496      -14.233       18.501       19.489       15.087      342.294      379.836      227.631        0.528        0.047       97.018        8.634        0.008      329.974       -2.949      864.351
01/02/2015  20:58:00     -100.393      -31.801      -13.593       18.115       22.531       18.283      328.167      507.643      334.277        0.622        0.059      105.309       10.679        0.010      329.941       -3.003      864.359
01/02/2015  20:59:00      -73.068      -18.037      -17.257       30.709       25.178       16.745      943.048      633.928      280.397        0.391        0.093       75.261       12.131        0.026      329.954       -2.982      864.358
01/02/2015  21:00:00     -104.194      -29.362      -16.917       17.800       23.919       16.096      316.844      572.136      259.085        0.658        0.057      108.252        3.090        0.001      329.884       -3.098      864.355
01/02/2015  21:01:00      -92.200      -33.064      -15.124       21.339       19.914       15.421      455.342      396.580      237.800        0.546        0.054       97.950       12.013        0.015      329.904       -3.065      864.353
01/02/2015  21:02:00      -93.853      -58.199      -16.774       26.256       19.042       14.727      689.375      362.595      216.893        0.687        0.063      110.434       11.468        0.011      329.867       -3.126      864.337
01/02/2015  21:03:00      -93.101      -33.822      -17.339       24.341       22.512       15.547      592.482      506.784      241.708        0.573        0.067       99.054        4.721        0.002      329.858       -3.140      864.326
01/02/2015  21:04:00      -84.841      -51.725       -9.415       23.240       16.560       14.968      540.103      274.234      224.053        0.550        0.052       99.365       14.068        0.020      329.883       -3.099      864.317
01/02/2015  21:05:00      -97.340      -41.068      -16.468       16.191       16.154       12.368      262.157      260.936      152.962        0.605        0.034      105.649        1.894        0.000      329.859       -3.138      864.305
01/02/2015  21:06:00     -100.787      -44.481      -19.011       23.544       14.343       14.151      554.325      205.736      200.237        0.673        0.048      110.166        8.503        0.006      329.809       -3.220      864.295
01/02/2015  21:07:00      -79.526      -37.824       -6.733       24.879       19.222       16.981      618.952      369.467      288.368        0.454        0.064       88.062       14.196        0.026      329.868       -3.122      864.284
01/02/2015  21:08:00      -91.194      -56.615      -11.992       28.352       22.532       17.374      803.836      507.673      301.866        0.664        0.081      107.339       15.352        0.020      329.844       -3.164      864.270
01/02/2015  21:09:00     -141.394      -26.716      -15.038       13.955       16.380       12.289      194.731      268.301      151.028        1.077        0.031      143.896        4.039        0.001      329.799       -3.237      864.262
01/02/2015  21:10:00     -120.757      -13.357      -12.645       19.430       17.208       15.296      377.532      296.099      233.968        0.791        0.045      121.494       10.427        0.007      329.824       -3.196      864.256
01/02/2015  21:11:00     -109.382      -32.888      -12.193       17.003       18.671       14.379      289.093      348.618      206.764        0.702        0.042      114.220       10.578        0.009      329.884       -3.099      864.239
01/02/2015  21:12:00      -96.814      -27.988       -8.931       14.440       14.531       11.086      208.521      211.160      122.892        0.539        0.027      100.778        6.760        0.004      329.908       -3.059      864.217
01/02/2015  21:13:00      -70.303      -29.976       -3.717       25.270       15.652       11.652      638.564      244.983      135.769        0.344        0.051       76.427       13.411        0.031      329.868       -3.124      864.194
01/02/2015  21:14:00      -43.785      -16.451        2.642       14.963       18.255       11.477      223.878      333.252      131.733        0.144        0.034       46.774        6.437        0.019      329.888       -3.090      864.177
01/02/2015  21:15:00      -61.189      -16.612       -0.401       15.755       16.146        9.363      248.210      260.688       87.663        0.231        0.030       63.404        7.846        0.015      329.927       -3.026      864.171
01/02/2015  21:16:00      -75.035      -35.106        1.493       26.019       18.559       13.376      677.009      344.421      178.916        0.403        0.060       82.841       13.119        0.025      329.904       -3.064      864.166
01/02/2015  21:17:00      -92.576      -10.645       -4.628       21.092       16.280       12.067      444.878      265.027      145.618        0.478        0.043       93.186        8.840        0.009      329.922       -3.034      864.165
01/02/2015  21:18:00     -119.114      -14.878      -11.330       24.712       18.152       12.823      610.687      329.482      164.418        0.782        0.055      120.039       10.101        0.007      329.887       -3.093      864.169
01/02/2015  21:19:00     -107.381       -2.601       -7.144       31.481       23.397       16.324      991.070      547.430      266.464        0.670        0.090      107.412       16.746        0.024      329.805       -3.228      864.184
01/02/2015  21:20:00      -89.240      -12.407       -7.249       32.555       23.009       16.954     1059.817      529.436      287.444        0.502        0.094       90.098       15.709        0.030      329.817       -3.207      864.199
01/02/2015  21:21:00     -102.835      -13.159       -7.308       31.066       21.302       20.299      965.072      453.758      412.063        0.632        0.092      103.674       19.572        0.036      329.784       -3.261      864.212
01/02/2015  21:22:00     -106.827      -17.159      -10.559       22.739       15.946       14.559      517.047      254.274      211.965        0.640        0.049      108.196       13.076        0.015      329.742       -3.329      864.228
01/02/2015  21:23:00      -62.703      -11.031        2.727       38.851       23.280       20.010     1509.415      541.946      400.406        0.326        0.123       63.666       20.238        0.101      329.699       -3.401      864.243
01/02/2015  21:24:00      -75.415      -17.384       -6.746       28.461       19.865       11.715      810.004      394.603      137.252        0.369        0.067       77.393        9.511        0.015      329.654       -3.474      864.256
01/02/2015  21:25:00     -103.859       -9.241       -5.705       29.704       21.640       18.567      882.332      468.276      344.740        0.630        0.085      104.269       18.882        0.033      329.692       -3.412      864.268
01/02/2015  21:26:00     -121.805       -8.671      -11.665       29.602       15.661       15.674      876.300      245.268      245.666        0.821        0.068      122.114       16.408        0.018      329.645       -3.488      864.275
01/02/2015  21:27:00     -112.359      -10.738       -3.409       29.733       20.742       21.279      884.058      430.223      452.776        0.726        0.088      112.871       20.601        0.033      329.629       -3.514      864.277
01/02/2015  21:28:00     -114.568      -24.551      -11.370       21.470       16.864       16.196      460.952      284.401      262.299        0.743        0.050      117.169       13.102        0.013      329.638       -3.500      864.273
01/02/2015  21:29:00     -110.108      -38.844      -11.699       22.919       19.766       11.912      525.288      390.678      141.901        0.741        0.053      116.759       11.324        0.009      329.668       -3.449      864.270
01/02/2015  21:30:00     -123.787      -28.573      -15.795       28.111       16.117       13.292      790.245      259.771      176.684        0.881        0.061      127.042       13.807        0.012      329.677       -3.436      864.264
01/02/2015  21:31:00     -107.996      -21.703      -13.099       18.836       14.844       14.901      354.786      220.342      222.042        0.655        0.040      110.155       11.270        0.010      329.664       -3.458      864.262
01/02/2015  21:32:00     -123.117       -6.872      -16.330       13.372       11.766        8.630      178.807      138.438       74.472        0.793        0.020      123.308        5.570        0.002      329.696       -3.404      864.247
01/02/2015  21:33:00     -125.499       -4.877      -17.822       17.572       12.542       11.570      308.765      157.307      133.871        0.835        0.030      125.594        3.714        0.001      329.703       -3.395      864.234
01/02/2015  21:34:00     -116.016       -4.465      -12.832       24.443       13.144       14.826      597.450      172.759      219.807        0.732        0.050      116.101       12.650        0.012      329.692       -3.410      864.231
01/02/2015  21:35:00     -104.944       -5.668       -9.281       23.746       14.951       18.807      563.876      223.530      353.702        0.614        0.057      105.097       16.579        0.025      329.634       -3.507      864.228
01/02/2015  21:36:00      -80.245      -28.285       -7.507       16.090       14.099       11.673      258.903      198.775      136.257        0.394        0.030       85.084        8.781        0.011      329.596       -3.570      864.223
01/02/2015  21:37:00      -82.483      -21.846      -11.383       10.779       15.807       11.768      116.179      249.848      138.492        0.396        0.025       85.327        8.050        0.009      329.565       -3.618      864.203
01/02/2015  21:38:00      -94.786       -8.761      -17.690       18.497       16.999       12.226      342.148      288.982      149.469        0.508        0.039       95.190       10.368        0.012      329.544       -3.652      864.195
01/02/2015  21:39:00      -92.710      -13.713      -14.084       19.943       15.381       13.178      397.706      236.573      173.649        0.489        0.040       93.719       10.070        0.012      329.460       -3.789      864.192
01/02/2015  21:40:00      -88.459      -10.778      -18.021       12.763       16.536       13.718      162.902      273.438      188.174        0.445        0.031       89.113        5.864        0.004      329.451       -3.806      864.192
01/02/2015  21:41:00      -78.148      -24.711      -15.937       16.269       15.314       11.884      264.673      234.511      141.234        0.381        0.032       81.961        7.634        0.009      329.472       -3.770      864.201
01/02/2015  21:42:00      -61.929      -19.727      -10.319       15.564       13.918       11.527      242.247      193.708      132.876        0.245        0.028       64.995        9.418        0.021      329.539       -3.661      864.202
01/02/2015  21:43:00      -39.389      -21.303      -12.479       15.694       15.264       10.245      246.316      232.999      104.966        0.137        0.029       44.780        7.138        0.025      329.631       -3.511      864.208
01/02/2015  21:44:00      -27.299      -11.708       -4.806       13.093        9.296        8.421      171.416       86.417       70.913        0.062        0.016       29.704        7.005        0.056      329.852       -3.148      864.211
01/02/2015  21:45:00      -32.258       -8.293       -2.192        7.338        8.499       10.264       53.847       72.225      105.354        0.067        0.012       33.307        6.280        0.036      329.822       -3.198      864.224
01/02/2015  21:46:00      -32.754      -12.591       -6.604        6.768       12.537       11.695       45.801      157.174      136.776        0.081        0.017       35.091        6.602        0.035      329.832       -3.181      864.252
01/02/2015  21:47:00      -29.071      -24.541       -7.851       10.877        8.525        7.044      118.316       72.677       49.625        0.087        0.012       38.044        3.925        0.011      329.779       -3.270      864.278
01/02/2015  21:48:00      -21.323      -19.661       -6.775       10.791       13.176        8.825      116.442      173.612       77.880        0.063        0.018       29.004        3.618        0.016      329.709       -3.384      864.304
01/02/2015  21:49:00      -17.078      -16.341       -5.580       16.831       11.016       12.878      283.284      121.346      165.837        0.058        0.029       23.636        4.175        0.031      329.815       -3.210      864.327
01/02/2015  21:50:00      -39.755      -17.655       -8.632       14.996       11.089        9.818      224.881      122.971       96.402        0.121        0.022       43.499        5.078        0.014      329.664       -3.458      864.342
01/02/2015  21:51:00      -48.486      -16.230      -15.210       21.604       10.392       10.149      466.728      107.986      103.002        0.176        0.034       51.131        7.190        0.020      329.530       -3.675      864.359
01/02/2015  21:52:00      -58.620      -13.442      -15.264       13.164        8.798        6.746      173.282       77.409       45.507        0.207        0.015       60.141        3.818        0.004      329.433       -3.835      864.374
01/02/2015  21:53:00      -58.431       -7.487      -11.794       10.713        8.628        8.452      114.762       74.450       71.438        0.193        0.013       58.909        7.104        0.015      329.380       -3.923      864.384
01/02/2015  21:54:00      -40.862      -18.004      -11.857       11.155       12.878        8.779      124.435      165.840       77.063        0.125        0.018       44.653        5.377        0.014      329.433       -3.834      864.390
01/02/2015  21:55:00      -47.533      -12.125      -15.563        6.626        8.638        5.538       43.900       74.622       30.673        0.140        0.007       49.055        4.074        0.007      329.416       -3.863      864.396
01/02/2015  21:56:00      -37.164      -19.047      -14.376       12.471       13.917        9.693      155.530      193.677       93.959        0.120        0.022       41.761        6.569        0.025      329.583       -3.590      864.404
01/02/2015  21:57:00      -37.414      -24.091       -6.516       15.501       16.935       12.357      240.289      286.797      152.693        0.135        0.034       44.499        7.757        0.030      329.746       -3.323      864.408
01/02/2015  21:58:00      -41.545       -2.344       -4.065       13.259       21.118        9.259      175.812      445.966       85.726        0.123        0.035       41.611        4.064        0.010      329.838       -3.173      864.412
01/02/2015  21:59:00      -35.460      -11.830       -8.935       18.533       18.655       11.467      343.469      347.992      131.485        0.115        0.041       37.382        7.482        0.040      329.868       -3.123      864.418
01/02/2015  22:00:00      -42.798      -13.316       -9.894       13.215       12.189        7.180      174.644      148.574       51.547        0.124        0.019       44.822        5.286        0.014      329.779       -3.268      864.416
01/02/2015  22:01:00      -31.239       -8.886       -0.837       14.249       10.142       10.783      203.027      102.853      116.284        0.074        0.021       32.479        7.705        0.056      329.821       -3.199      864.413
01/02/2015  22:02:00       -7.283        3.259        0.103       20.271       16.922       10.116      410.924      286.361      102.340        0.043        0.040        7.979        6.770        0.720      329.917       -3.043      864.417
01/02/2015  22:03:00       -9.221       20.757        1.479       32.683       29.699       19.090     1068.185      882.021      364.411        0.142        0.116       22.713       12.963        0.326      330.069       -2.793      864.410
01/02/2015  22:04:00       -2.859       39.895       -4.170       21.767       33.758       18.304      473.801     1139.593      335.020        0.178        0.097       39.997       17.466        0.191      330.250       -2.497      864.401
01/02/2015  22:05:00       -3.671       15.686       -1.667       23.371       18.646       15.609      546.221      347.690      243.635        0.070        0.057       16.110       12.471        0.599      330.252       -2.494      864.398
01/02/2015  22:06:00      -35.176      -17.600        0.427       22.043       12.878       18.133      485.881      165.836      328.818        0.126        0.049       39.333        9.385        0.057      329.724       -3.358      864.390
01/02/2015  22:07:00      -58.571      -21.187      -12.534       10.192       14.080       10.265      103.878      198.254      105.378        0.222        0.020       62.285        7.032        0.013      329.578       -3.598      864.411
01/02/2015  22:08:00      -48.679       -4.455       -9.895       17.408        8.105        9.453      303.030       65.693       89.368        0.147        0.023       48.883        6.706        0.019      330.025       -2.865      864.441
01/02/2015  22:09:00      -44.100        0.037       -3.265       23.872       14.624       11.418      569.884      213.865      130.368        0.143        0.046       44.100       10.379        0.055      330.079       -2.777      864.477
01/02/2015  22:10:00      -64.161       -3.113      -10.347       12.128       10.527        9.553      147.093      110.819       91.263        0.229        0.017       64.236        6.601        0.011      329.556       -3.634      864.503
01/02/2015  22:11:00      -53.490      -23.803      -12.153        8.257        8.843        7.927       68.171       78.197       62.831        0.189        0.010       58.547        3.821        0.004      329.485       -3.750      864.524
01/02/2015  22:12:00      -67.403      -21.937       -7.843       13.946       12.317        8.367      194.490      151.705       70.002        0.275        0.021       70.883        7.219        0.010      329.416       -3.864      864.535
01/02/2015  22:13:00      -85.830      -15.522      -18.640       16.660       15.737       10.525      277.552      247.662      110.785        0.430        0.032       87.223       10.337        0.014      329.342       -3.983      864.545
01/02/2015  22:14:00      -96.858       -6.351      -18.133       16.572       16.518       12.209      274.646      272.832      149.065        0.522        0.035       97.066       10.224        0.011      329.387       -3.911      864.552
01/02/2015  22:15:00      -68.801      -14.817      -12.634       30.796       13.726       14.869      948.383      188.411      221.089        0.324        0.068       70.379       12.739        0.033      329.428       -3.843      864.554
01/02/2015  22:16:00      -83.394        3.347      -18.430       24.951       32.276       17.357      622.547     1041.756      301.274        0.464        0.098       83.461       11.016        0.017      329.586       -3.584      864.559
01/02/2015  22:17:00      -76.756       15.744      -24.611       37.762       38.049       20.370     1425.957     1447.753      414.933        0.502        0.164       78.354       14.185        0.033      329.629       -3.515      864.564
01/02/2015  22:18:00      -78.084       20.595      -24.403       37.338       33.381       23.627     1394.090     1114.307      558.249        0.509        0.153       80.754       14.003        0.030      329.696       -3.404      864.573
01/02/2015  22:19:00      -77.848       28.227      -17.276       37.646       33.086       21.726     1417.184     1094.714      472.003        0.507        0.149       82.808        4.432        0.003      329.857       -3.140      864.580
01/02/2015  22:20:00      -85.005       22.151      -19.575       32.658       30.162       15.551     1066.576      909.739      241.842        0.516        0.111       87.844       17.146        0.038      329.931       -3.020      864.605
01/02/2015  22:21:00      -84.846       19.714      -18.353       28.813       27.489       19.949      830.197      755.669      397.950        0.495        0.099       87.106       18.405        0.045      330.078       -2.779      864.623
01/02/2015  22:22:00      -71.801       70.067      -17.785       22.490       47.872       16.250      505.807     2291.692      264.065        0.672        0.153      100.324       17.877        0.032      330.439       -2.188      864.644
01/02/2015  22:23:00      -55.238       80.933      -19.884       18.697       35.148       14.354      349.596     1235.352      206.040        0.589        0.090       97.986       13.318        0.018      330.620       -1.891      864.665
01/02/2015  22:24:00      -55.337      103.027      -14.978       36.175       46.122       21.781     1308.624     2127.247      474.410        0.890        0.196      116.948       21.200        0.033      330.761       -1.658      864.684
01/02/2015  22:25:00      -37.751       57.942       -9.530       22.333       29.656       18.960      498.746      879.469      359.466        0.331        0.087       69.155       12.506        0.033      330.674       -1.803      864.706
01/02/2015  22:26:00      -34.024       45.373       -5.221       25.096       43.394       17.887      629.791     1883.011      319.937        0.304        0.142       56.713       20.835        0.135      330.497       -2.091      864.720
01/02/2015  22:27:00      -19.806       45.069      -12.641       26.880       33.285       13.224      722.518     1107.898      174.885        0.229        0.100       49.229       16.235        0.109      330.620       -1.891      864.742
01/02/2015  22:28:00        0.954       16.214       -1.525       31.481       34.736       16.898      991.029     1206.618      285.529        0.137        0.124       16.242       13.155        0.656      330.606       -1.914      864.756
01/02/2015  22:29:00      -32.366       -4.429       -1.009       19.318        8.163       11.786      373.204       66.638      138.913        0.082        0.029       32.668       13.113        0.161      330.214       -2.557      864.786
01/02/2015  22:30:00      -23.639       14.015       -5.457       20.092       17.915       12.039      403.683      320.948      144.943        0.083        0.043       27.482        4.174        0.023      330.420       -2.219      864.816
01/02/2015  22:31:00      -44.320       -3.199       -7.892       10.683       10.683        9.942      114.136      114.125       98.839        0.118        0.016       44.436        3.480        0.006      330.271       -2.462      864.835
01/02/2015  22:32:00      -32.995      -10.541      -12.987       10.901       16.268       13.366      118.832      264.645      178.662        0.097        0.028       34.638       12.044        0.121      330.302       -2.413      864.858
01/02/2015  22:33:00      -11.245       -1.446        5.560       13.121       12.240       10.474      172.148      149.820      109.703        0.030        0.022       11.337        6.937        0.374      330.423       -2.214      864.866
01/02/2015  22:34:00      -10.544        1.218       -3.739        9.083        4.337        4.159       82.508       18.810       17.298        0.012        0.006       10.614        3.494        0.108      330.403       -2.249      864.870
01/02/2015  22:35:00        5.879       56.254       -7.608       21.391       42.181       18.480      457.574     1779.269      341.518        0.292        0.129       56.561       19.604        0.120      330.671       -1.807      864.874
01/02/2015  22:36:00       32.627       67.520       -6.503       26.424       23.068       14.826      698.227      532.113      219.817        0.356        0.073       74.990        9.607        0.016      330.658       -1.827      864.869
01/02/2015  22:37:00       41.909       23.021       11.345       33.011       30.438       30.982     1089.752      926.442      959.863        0.269        0.149       47.816       23.539        0.242      330.506       -2.077      864.866
01/02/2015  22:38:00       33.541        4.687        1.057       15.063       11.307       10.333      226.885      127.856      106.775        0.080        0.023       33.867        9.466        0.078      330.466       -2.143      864.855
01/02/2015  22:39:00       56.566       14.631        4.004       42.339       22.285       15.360     1792.595      496.616      235.940        0.298        0.126       58.428       14.221        0.059      330.679       -1.794      864.849
01/02/2015  22:40:00       18.045       16.561       -1.663       14.733       13.448       12.002      217.064      180.848      144.038        0.057        0.027       24.493        8.860        0.131      330.807       -1.583      864.849
01/02/2015  22:41:00        3.911       12.845       -5.966       11.788       18.837       15.789      138.947      354.831      249.284        0.048        0.037       13.427       14.831        1.220      330.741       -1.692      864.863
01/02/2015  22:42:00       30.586       14.099        6.787       11.124       12.987       12.000      123.751      168.671      144.004        0.081        0.022       33.679        5.786        0.030      330.787       -1.617      864.889
01/02/2015  22:43:00      -12.148       27.924      -11.315       30.346       25.379       14.533      920.875      644.078      211.220        0.142        0.089       30.452       16.534        0.295      330.707       -1.746      864.904
01/02/2015  22:44:00      -29.188      -21.917       -5.094       17.492        9.560       10.258      305.955       91.402      105.233        0.093        0.025       36.501        6.694        0.034      330.382       -2.282      864.907
01/02/2015  22:45:00       -6.066       -7.640       -6.414        6.834        5.829        7.592       46.701       33.976       57.637        0.014        0.007        9.755        5.809        0.355      330.621       -1.888      864.902
01/02/2015  22:46:00        4.249      -18.517       -0.091       21.950       16.845       13.124      481.802      283.770      172.243        0.065        0.047       18.998        8.312        0.191      330.636       -1.866      864.895
01/02/2015  22:47:00       19.164      -49.658       -7.658       20.720       17.673       11.042      429.329      312.326      121.929        0.188        0.043       53.228        9.875        0.034      330.740       -1.695      864.886
01/02/2015  22:48:00       16.164      -34.793       -3.418       20.818       34.177       17.344      433.390     1168.101      300.812        0.169        0.095       38.365       21.382        0.311      330.518       -2.057      864.884
01/02/2015  22:49:00      -23.763        9.356       11.630       21.003        8.878       16.392      441.126       78.813      268.689        0.079        0.039       25.538        8.020        0.099      330.444       -2.181      864.866
01/02/2015  22:50:00      -49.641        0.819        2.911       16.168       17.021       14.986      261.389      289.706      224.580        0.162        0.039       49.648        9.440        0.036      330.449       -2.172      864.851
01/02/2015  22:51:00      -25.223      -15.360        3.565       27.113       17.148       11.067      735.104      294.059      122.472        0.102        0.058       29.532        7.746        0.069      330.293       -2.427      864.831
01/02/2015  22:52:00      -17.865      -29.630       -0.859       21.525       23.107       13.574      463.326      533.929      184.243        0.119        0.059       34.599       12.085        0.122      330.206       -2.569      864.825
01/02/2015  22:53:00      -26.738      -54.452        5.032       32.565       52.292       19.915     1060.508     2734.403      396.597        0.395        0.210       60.663       14.172        0.055      330.294       -2.425      864.825
01/02/2015  22:54:00      -40.765      -58.199        1.604       50.091       34.418       23.874     2509.128     1184.627      569.976        0.466        0.213       71.055       22.975        0.105      330.337       -2.354      864.833
01/02/2015  22:55:00      -53.215      -67.563        0.494       44.125       34.174       26.269     1946.986     1167.866      690.060        0.560        0.190       86.003       21.162        0.061      330.189       -2.598      864.839
01/02/2015  22:56:00      -47.610      -71.309        1.630       49.489       48.734       32.488     2449.204     2375.025     1055.467        0.662        0.294       85.742       28.110        0.107      330.049       -2.827      864.834
01/02/2015  22:57:00      -68.064      -93.041        1.964       74.191       66.917       40.282     5504.260     4477.941     1622.603        1.245        0.580      115.280       41.181        0.128      329.910       -3.055      864.825
01/02/2015  22:58:00      -77.161      -78.144        8.457       60.040       64.567       32.227     3604.835     4168.876     1038.585        1.047        0.441      109.820       36.265        0.109      329.814       -3.212      864.802
01/02/2015  22:59:00     -129.629      -99.210      -13.495       58.860       49.406       34.153     3464.536     2440.913     1166.436        1.695        0.354      163.238       21.477        0.017      329.748       -3.321      864.764
01/02/2015  23:00:00     -116.775     -104.002       -4.475       55.716       57.185       37.622     3104.264     3270.153     1415.408        1.613        0.389      156.374       31.457        0.040      329.651       -3.480      864.723
01/02/2015  23:01:00     -108.011      -87.612        3.775       73.552       62.261       47.683     5409.895     3876.408     2273.662        1.546        0.578      139.077       33.051        0.056      329.630       -3.513      864.684
01/02/2015  23:02:00      -73.205      -89.035        3.395       56.809       62.434       39.344     3227.282     3898.047     1547.977        1.098        0.434      115.266       32.415        0.079      329.609       -3.547      864.651
01/02/2015  23:03:00     -119.850     -114.350       -0.864       48.473       61.129       35.844     2349.646     3736.812     1284.793        1.740        0.369      165.650       27.929        0.028      329.546       -3.650      864.618
01/02/2015  23:04:00     -122.453     -141.124       -6.287       56.575       57.317       32.568     3200.697     3285.201     1060.681        2.125        0.377      186.844       30.925        0.027      329.528       -3.681      864.600
01/02/2015  23:05:00     -157.567     -122.830      -17.226       46.510       49.486       29.689     2163.213     2448.869      881.448        2.285        0.275      199.786       23.542        0.014      329.481       -3.758      864.582
01/02/2015  23:06:00     -108.651      -96.666       -1.400       64.858       67.476       42.699     4206.495     4553.008     1823.190        1.586        0.529      145.428       43.690        0.090      329.517       -3.698      864.557
01/02/2015  23:07:00     -104.092     -103.137       -0.386       49.928       54.135       36.997     2492.780     2930.557     1368.810        1.413        0.340      146.534       29.938        0.042      329.543       -3.655      864.530
01/02/2015  23:08:00     -112.024     -116.284        2.562       67.567       56.498       34.577     4565.362     3191.989     1195.593        1.751        0.448      161.466       41.847        0.067      329.557       -3.632      864.516
01/02/2015  23:09:00     -131.597     -136.087      -13.570       34.825       48.957       32.733     1212.797     2396.831     1071.443        2.035        0.234      189.308       20.934        0.012      329.564       -3.621      864.503
01/02/2015  23:10:00     -130.959      -99.790      -15.044       38.002       36.685       24.652     1444.118     1345.822      607.726        1.537        0.170      164.646       12.106        0.005      329.519       -3.694      864.495
01/02/2015  23:11:00     -117.565      -79.581      -11.395       34.552       49.887       25.166     1193.834     2488.690      633.326        1.230        0.216      141.967       15.340        0.012      329.540       -3.660      864.506
01/02/2015  23:12:00      -93.211      -74.931       -7.724       37.021       48.653       18.490     1370.576     2367.094      341.890        0.922        0.204      119.595       11.388        0.009      329.546       -3.649      864.537
01/02/2015  23:13:00     -131.768      -54.571      -10.542       57.621       31.459       23.839     3320.208      989.698      568.303        1.266        0.244      142.622       21.692        0.023      329.569       -3.613      864.584
01/02/2015  23:14:00     -117.379      -44.692      -18.333       31.127       26.530       18.345      968.913      703.840      336.556        0.906        0.100      125.600        9.921        0.006      329.567       -3.617      864.625
01/02/2015  23:15:00      -73.625      -17.372       -1.592       36.431       32.320       21.248     1327.203     1044.610      451.466        0.427        0.141       75.646       22.165        0.086      329.558       -3.631      864.643
01/02/2015  23:16:00      -93.994        9.476      -13.289       27.585       22.028       14.253      760.906      485.217      203.158        0.527        0.072       94.470       11.192        0.014      329.470       -3.775      864.642
01/02/2015  23:17:00      -75.175       -4.016       -4.471       25.445       25.877       11.050      647.430      669.625      122.092        0.356        0.072       75.282        6.290        0.007      329.466       -3.780      864.640
01/02/2015  23:18:00      -66.829       -6.691       -2.262       30.229       15.009       13.084      913.788      225.261      171.183        0.291        0.066       67.163       14.763        0.048      329.457       -3.794      864.638
01/02/2015  23:19:00      -65.834       -9.173       -8.275       24.680       18.962       11.651      609.082      359.558      135.742        0.280        0.055       66.470       10.854        0.027      329.504       -3.717      864.639
01/02/2015  23:20:00      -56.709      -24.624      -10.154       10.985       13.151        8.121      120.662      172.953       65.956        0.214        0.018       61.824        4.961        0.006      329.506       -3.715      864.641
01/02/2015  23:21:00      -49.056      -20.907        1.756       14.236       13.707       14.314      202.666      187.869      204.890        0.172        0.030       53.326        7.490        0.020      329.523       -3.686      864.638
01/02/2015  23:22:00      -54.350      -21.609       -9.898       10.709       10.438        8.292      114.680      108.955       68.760        0.191        0.015       58.488        5.661        0.009      329.578       -3.597      864.626
01/02/2015  23:23:00      -42.637      -11.410      -10.865       11.896        9.716        8.416      141.521       94.394       70.836        0.119        0.015       44.138        2.722        0.004      329.589       -3.581      864.607
01/02/2015  23:24:00      -23.877      -15.946       -6.937       21.570       10.337        9.573      465.251      106.850       91.644        0.077        0.033       28.712        4.056        0.020      329.645       -3.490      864.584
01/02/2015  23:25:00      -51.105      -17.752       -3.757       14.492        8.158        6.470      210.006       66.548       41.856        0.163        0.016       54.100        6.059        0.013      329.585       -3.587      864.561
01/02/2015  23:26:00      -77.830      -28.808       -7.063        9.013       14.586        9.540       81.234      212.757       91.013        0.366        0.019       82.990        6.857        0.007      329.597       -3.567      864.571
01/02/2015  23:27:00      -51.780      -29.816       -4.790       14.341       13.571       11.710      205.677      184.164      137.124        0.206        0.026       59.751        6.880        0.013      329.565       -3.620      864.580
01/02/2015  23:28:00      -43.699      -31.180        1.762       22.809       11.394       11.492      520.244      129.817      132.055        0.183        0.039       53.682       14.192        0.070      329.565       -3.619      864.591
01/02/2015  23:29:00      -32.952      -16.580       -0.797       25.633       14.757       10.524      657.040      217.756      110.756        0.117        0.049       36.888       11.470        0.097      329.579       -3.597      864.600
01/02/2015  23:30:00      -39.082      -10.692       -1.040       18.921        9.507       11.008      357.991       90.388      121.165        0.111        0.028       40.518       11.852        0.086      329.564       -3.622      864.602
01/02/2015  23:31:00      -20.522      -10.604       -0.227       15.525        7.513        6.407      241.015       56.442       41.044        0.044        0.017       23.100        8.022        0.121      329.566       -3.619      864.602
01/02/2015  23:32:00       -4.829       -6.247       -2.065        6.495        6.211        5.604       42.182       38.571       31.401        0.009        0.006        7.896        4.649        0.347      329.581       -3.593      864.609
01/02/2015  23:33:00        1.523        2.572       -2.881        4.575        8.343        4.727       20.929       69.611       22.340        0.007        0.006        2.989        3.733        1.559      329.608       -3.550      864.637
01/02/2015  23:34:00      -11.158        7.898        0.678        9.704        4.813        7.191       94.162       23.165       51.708        0.018        0.008       13.670        5.570        0.166      329.616       -3.534      864.660
01/02/2015  23:35:00      -30.344       30.867      -10.804       11.454       14.043        6.621      131.204      197.200       43.843        0.118        0.019       43.284        4.683        0.012      329.682       -3.428      864.690
01/02/2015  23:36:00      -37.250       31.150       -6.492       15.479       11.672       11.083      239.590      136.243      122.839        0.145        0.025       48.558        8.180        0.028      329.804       -3.228      864.723
01/02/2015  23:37:00      -44.525       26.755       -8.634       15.794       18.808        9.447      249.464      353.724       89.245        0.173        0.035       51.945        8.474        0.027      329.686       -3.421      864.756
01/02/2015  23:38:00      -48.998        0.404       -5.645       11.135       13.077        8.050      123.985      171.016       64.796        0.140        0.018       49.000        8.292        0.029      329.627       -3.517      864.776
01/02/2015  23:39:00      -51.793      -12.336       -6.788       10.680       11.195        8.991      114.063      125.332       80.830        0.160        0.016       53.242        6.418        0.015      329.401       -3.887      864.792
01/02/2015  23:40:00      -42.411       -4.143       -4.639       28.804       16.321       15.727      829.659      266.386      247.326        0.159        0.067       42.612       14.339        0.113      329.363       -3.951      864.811
01/02/2015  23:41:00      -35.979        8.798       -2.802       29.843       26.724       14.260      890.623      714.163      203.335        0.159        0.090       37.039       13.474        0.132      329.484       -3.752      864.822
01/02/2015  23:42:00      -75.260       -0.838       -8.841       24.758       16.117       12.428      612.936      259.766      154.456        0.338        0.051       75.265        5.178        0.005      329.473       -3.769      864.837
01/02/2015  23:43:00      -90.500        2.467      -14.005       25.651       20.761       13.135      657.998      431.014      172.535        0.483        0.063       90.534        4.968        0.003      329.420       -3.857      864.829
01/02/2015  23:44:00      -90.789       -1.391      -13.316       21.407       22.714       15.674      458.267      515.905      245.681        0.482        0.061       90.799       10.024        0.012      329.399       -3.891      864.826
01/02/2015  23:45:00      -78.528      -10.729      -13.407       32.603       24.289       18.523     1062.945      589.949      343.091        0.423        0.100       79.257       17.350        0.048      329.306       -4.043      864.819
01/02/2015  23:46:00      -76.066      -18.423      -10.558       24.959       22.900       15.666      622.928      524.389      245.438        0.381        0.070       78.265       12.794        0.027      329.239       -4.152      864.807
01/02/2015  23:47:00      -83.928      -29.022       -7.710       30.162       29.734       17.338      909.750      884.094      300.607        0.502        0.105       88.804        9.226        0.011      329.263       -4.113      864.803
01/02/2015  23:48:00      -56.708       -0.767       -9.425       67.099       24.497       22.233     4502.313      600.099      494.328        0.445        0.280       56.713       26.318        0.215      329.185       -4.241      864.798
01/02/2015  23:49:00     -134.937       35.543      -10.421       51.987       37.055       21.173     2702.642     1373.088      448.307        1.205        0.226      139.540       19.482        0.019      329.161       -4.280      864.808
01/02/2015  23:50:00     -124.089       34.532      -13.407       48.774       31.242       23.566     2378.858      976.082      555.358        1.034        0.196      128.804       13.734        0.011      329.186       -4.240      864.802
01/02/2015  23:51:00      -95.681       46.634      -12.841       38.627       25.292       19.938     1492.066      639.673      397.527        0.701        0.126      106.440       10.398        0.010      329.325       -4.013      864.789
01/02/2015  23:52:00      -85.117       22.503      -12.439       30.697       24.521       19.445      942.285      601.301      378.123        0.491        0.096       88.041       14.537        0.027      329.271       -4.099      864.766
01/02/2015  23:53:00      -78.400        3.255      -22.708       17.597       18.602       12.839      309.655      346.037      164.833        0.375        0.041       78.467        6.198        0.006      329.262       -4.114      864.740
01/02/2015  23:54:00      -80.395      -16.893      -19.942       15.607       33.209       13.124      243.566     1102.861      172.252        0.433        0.076       82.150        6.410        0.006      329.361       -3.953      864.716
01/02/2015  23:55:00      -67.520        4.112      -11.330       24.310       15.532       12.279      590.957      241.240      150.770        0.284        0.049       67.645       10.504        0.024      329.435       -3.831      864.681
01/02/2015  23:56:00      -55.584        0.240       -8.672       20.158       18.071       11.910      406.355      326.559      141.857        0.202        0.044       55.584        8.186        0.022      329.537       -3.666      864.660
01/02/2015  23:57:00      -57.208      -18.252       -2.230       15.044       17.697       15.376      226.316      313.171      236.418        0.219        0.039       60.049        9.153        0.023      329.457       -3.797      864.649
01/02/2015  23:58:00      -61.742      -31.856      -12.196        9.782        8.669        9.879       95.679       75.152       97.592        0.262        0.013       69.476        4.912        0.005      329.233       -4.164      864.642
01/02/2015  23:59:00      -63.379      -27.032      -16.229       11.660       10.387        7.526      135.955      107.888       56.640        0.266        0.015       68.903        7.448        0.012      329.140       -4.312      864.641
